[[{"header":{"parameterUnit":"m.s-1","parameterCategory":1,"la1":30.6,"la2":28.766,"lo1":-90.7593,"lo2":-88.6598,"dy":0.0162,"dx":0.0183,"nx":116,"ny":114,"refTime":"2023-05-02T18:00:00:Z","depth":0,"parameterNumber":2,"parameterNumberName":"U-component_of_WINDS"},"data":[0.0,0.0,0.0,0.0,0.0,0.0,0.0,0.0,0.0,0.0,0.0,0.0,0.0,0.0,0.0,0.0,0.0,0.0,0.0,0.0,0.0,0.0,0.0,0.0,0.0,0.0,0.0,0.0,0.0,0.0,0.0,0.0,0.0,0.0,0.0,0.0,0.0,0.0,0.0,0.0,0.0,0.0,0.0,0.0,0.0,0.0,0.0,0.0,0.0,0.0,0.0,0.0,0.0,0.0,0.0,0.0,0.0,0.0,0.0,0.0,0.0,0.0,0.0,0.0,0.0,0.0,0.0,0.0,0.0,0.0,0.0,0.0,0.0,0.0,0.0,0.0,0.0,0.0,0.0,0.0,0.0,0.0,0.0,0.0,0.0,0.0,0.0,0.0,0.0,0.0,0.0,0.0,0.0,0.0,0.0,0.0,0.0,0.0,0.0,0.0,0.0,0.0,0.0,0.0,0.0,0.0,0.0,0.0,0.0,0.0,0.0,0.0,0.0,0.0,0.0,0.0,0.0,0.0,0.0,0.0,0.0,0.0,0.0,0.0,0.0,0.0,0.0,0.0,0.0,0.0,0.0,0.0,0.0,0.0,0.0,0.0,0.0,0.0,0.0,0.0,0.0,0.0,0.0,0.0,0.0,0.0,0.0,0.0,0.0,0.0,0.0,0.0,0.0,0.0,0.0,0.0,0.0,0.0,0.0,0.0,0.0,0.0,0.0,0.0,0.0,0.0,0.0,0.0,0.0,0.0,0.0,0.0,0.0,0.0,0.0,0.0,0.0,0.0,0.0,0.0,0.0,0.0,0.0,0.0,0.0,0.0,0.0,0.0,0.0,0.0,0.0,0.0,0.0,0.0,0.0,0.0,0.0,0.0,0.0,0.0,0.0,0.0,0.0,0.0,0.0,0.0,0.0,0.0,0.0,0.0,0.0,0.0,0.0,0.0,0.0,0.0,0.0,0.0,0.0,0.0,0.0,0.0,0.0,0.0,0.0,0.0,0.0,0.0,0.0,0.0,0.0,0.0,0.0,0.0,0.0,0.0,0.0,0.0,0.0,0.0,0.0,0.0,0.0,0.0,0.0,0.0,0.0,0.0,0.0,0.0,0.0,0.0,0.0,0.0,0.0,0.0,0.0,0.0,0.0,0.0,0.0,0.0,0.0,0.0,0.0,0.0,0.0,0.0,0.0,0.0,0.0,0.0,0.0,0.0,0.0,0.0,0.0,0.0,0.0,0.0,0.0,0.0,0.0,0.0,0.0,0.0,0.0,0.0,0.0,0.0,0.0,0.0,0.0,0.0,0.0,0.0,0.0,0.0,0.0,0.0,0.0,0.0,0.0,0.0,0.0,0.0,0.0,0.0,0.0,0.0,0.0,0.0,0.0,0.0,0.0,0.0,0.0,0.0,0.0,0.0,0.0,0.0,0.0,0.0,0.0,0.0,0.0,0.0,0.0,0.0,0.0,0.0,0.0,0.0,0.0,0.0,0.0,0.0,0.0,0.0,0.0,0.0,0.0,0.0,0.0,0.0,0.0,0.0,0.0,0.0,0.0,0.0,0.0,0.0,0.0,0.0,0.0,0.0,0.0,0.0,0.0,0.0,0.0,0.0,0.0,0.0,0.0,0.0,0.0,0.0,0.0,0.0,0.0,0.0,0.0,0.0,0.0,0.0,0.0,0.0,0.0,0.0,0.0,0.0,0.0,0.0,0.0,0.0,0.0,0.0,0.0,0.0,0.0,0.0,0.0,0.0,0.0,0.0,0.0,0.0,0.0,0.0,0.0,0.0,0.0,0.0,0.0,0.0,0.0,0.0,0.0,0.0,0.0,0.0,0.0,0.0,0.0,0.0,0.0,0.0,0.0,0.0,0.0,0.0,0.0,0.0,0.0,0.0,0.0,0.0,0.0,0.0,0.0,0.0,0.0,0.0,0.0,0.0,0.0,0.0,0.0,0.0,0.0,0.0,0.0,0.0,0.0,0.0,0.0,0.0,0.0,0.0,0.0,0.0,0.0,0.0,0.0,0.0,0.0,0.0,0.0,0.0,0.0,0.0,0.0,0.0,0.0,0.0,0.0,0.0,0.0,0.0,0.0,0.0,0.0,0.0,0.0,0.0,0.0,0.0,0.0,0.0,0.0,0.0,0.0,0.0,0.0,0.0,0.0,0.0,0.0,0.0,0.0,0.0,0.0,0.0,0.0,0.0,0.0,0.0,0.0,0.0,0.0,0.0,0.0,0.0,0.0,0.0,0.0,0.0,0.0,0.0,0.0,0.0,0.0,0.0,0.0,0.0,0.0,0.0,0.0,0.0,0.0,0.0,0.0,0.0,0.0,0.0,0.0,0.0,0.0,0.0,0.0,0.0,0.0,0.0,0.0,0.0,0.0,0.0,0.0,0.0,0.0,0.0,0.0,0.0,0.0,0.0,0.0,0.0,0.0,0.0,0.0,0.0,0.0,0.0,0.0,0.0,0.0,0.0,0.0,0.0,0.0,0.0,0.0,0.0,0.0,0.0,0.0,0.0,0.0,0.0,0.0,0.0,0.0,0.0,0.0,0.0,0.0,0.0,0.0,0.0,0.0,0.0,0.0,0.0,0.0,0.0,0.0,0.0,0.0,0.0,0.0,0.0,0.0,0.0,0.0,0.0,0.0,0.0,0.0,0.0,0.0,0.0,0.0,0.0,0.0,0.0,0.0,0.0,0.0,0.0,0.0,0.0,0.0,0.0,0.0,0.0,0.0,0.0,0.0,0.0,0.0,0.0,0.0,0.0,0.0,0.0,0.0,0.0,0.0,0.0,0.0,0.0,0.0,0.0,0.0,0.0,0.0,0.0,0.0,0.0,0.0,0.0,0.0,0.0,0.0,0.0,0.0,0.0,0.0,0.0,0.0,0.0,0.0,0.0,0.0,0.0,0.0,0.0,0.0,0.0,0.0,0.0,0.0,0.0,0.0,0.0,0.0,0.0,0.0,0.0,0.0,0.0,0.0,0.0,0.0,0.0,0.0,0.0,0.0,0.0,0.0,0.0,0.0,0.0,0.0,0.0,0.0,0.0,0.0,0.0,0.0,0.0,0.0,0.0,0.0,0.0,0.0,0.0,0.0,0.0,0.0,0.0,0.0,0.0,0.0,0.0,0.0,0.0,0.0,0.0,0.0,0.0,0.0,0.0,0.0,0.0,0.0,0.0,0.0,0.0,0.0,0.0,0.0,0.0,0.0,0.0,0.0,0.0,0.0,0.0,0.0,0.0,0.0,0.0,0.0,0.0,0.0,0.0,0.0,0.0,0.0,0.0,0.0,0.0,0.0,0.0,0.0,0.0,0.0,0.0,0.0,0.0,0.0,0.0,0.0,0.0,0.0,0.0,0.0,0.0,0.0,0.0,0.0,0.0,0.0,0.0,0.0,0.0,0.0,0.0,0.0,0.0,0.0,0.0,0.0,0.0,0.0,0.0,0.0,0.0,0.0,0.0,0.0,0.0,0.0,0.0,0.0,0.0,0.0,0.0,0.0,0.0,0.0,0.0,0.0,0.0,0.0,0.0,0.0,0.0,0.0,0.0,0.0,0.0,0.0,0.0,0.0,0.0,0.0,0.0,0.0,0.0,0.0,0.0,0.0,0.0,0.0,0.0,0.0,0.0,0.0,0.0,0.0,0.0,0.0,0.0,0.0,0.0,0.0,0.0,0.0,0.0,0.0,0.0,0.0,0.0,0.0,0.0,0.0,0.0,0.0,0.0,0.0,0.0,0.0,0.0,0.0,0.0,0.0,0.0,0.0,0.0,0.0,0.0,0.0,0.0,0.0,0.0,0.0,0.0,0.0,0.0,0.0,0.0,0.0,0.0,0.0,0.0,0.0,0.0,0.0,0.0,0.0,0.0,0.0,0.0,0.0,0.0,0.0,0.0,0.0,0.0,0.0,0.0,0.0,0.0,0.0,0.0,0.0,0.0,0.0,0.0,0.0,0.0,0.0,0.0,0.0,0.0,0.0,0.0,0.0,0.0,0.0,0.0,0.0,0.0,0.0,0.0,0.0,0.0,0.0,0.0,0.0,0.0,0.0,0.0,0.0,0.0,0.0,0.0,0.0,0.0,0.0,0.0,0.0,0.0,0.0,0.0,0.0,0.0,0.0,0.0,0.0,0.0,0.0,0.0,0.0,0.0,0.0,0.0,0.0,0.0,0.0,0.0,0.0,0.0,0.0,0.0,0.0,0.0,0.0,0.0,0.0,0.0,0.0,0.0,0.0,0.0,0.0,0.0,0.0,0.0,0.0,0.0,0.0,0.0,0.0,0.0,0.0,0.0,0.0,0.0,0.0,0.0,0.0,0.0,0.0,0.0,0.0,0.0,0.0,0.0,0.0,0.0,0.0,0.0,0.0,0.0,0.0,0.0,0.0,0.0,0.0,0.0,0.0,0.0,0.0,0.0,0.0,0.0,0.0,0.0,0.0,0.0,0.0,0.0,0.0,0.0,0.0,0.0,0.0,0.0,0.0,0.0,0.0,0.0,0.0,0.0,0.0,0.0,0.0,0.0,0.0,0.0,0.0,0.0,0.0,0.0,0.0,0.0,0.0,0.0,0.0,0.0,0.0,0.0,0.0,0.0,0.0,0.0,0.0,0.0,0.0,0.0,0.0,0.0,0.0,0.0,0.0,0.0,0.0,0.0,0.0,0.0,0.0,0.0,0.0,0.0,0.0,0.0,0.0,0.0,0.0,0.0,0.0,0.0,0.0,0.0,0.0,0.0,0.0,0.0,0.0,0.0,0.0,0.0,0.0,0.0,0.0,0.0,0.0,0.0,0.0,0.0,0.0,0.0,0.0,0.0,0.0,0.0,0.0,0.0,0.0,0.0,0.0,0.0,0.0,0.0,0.0,0.0,0.0,0.0,0.0,0.0,0.0,0.0,0.0,0.0,0.0,0.0,0.0,0.0,0.0,0.0,0.0,0.0,0.0,0.0,0.0,0.0,0.0,0.0,0.0,0.0,0.0,0.0,0.0,0.0,0.0,0.0,0.0,0.0,0.0,0.0,0.0,0.0,0.0,0.0,0.0,0.0,0.0,0.0,0.0,0.0,0.0,0.0,0.0,0.0,0.0,0.0,0.0,0.0,0.0,0.0,0.0,0.0,0.0,0.0,0.0,0.0,0.0,0.0,0.0,0.0,0.0,0.0,0.0,0.0,0.0,0.0,0.0,0.0,0.0,0.0,0.0,0.0,0.0,0.0,0.0,0.0,0.0,0.0,0.0,0.0,0.0,0.0,0.0,0.0,0.0,0.0,0.0,0.0,0.0,0.0,0.0,0.0,0.0,0.0,0.0,0.0,0.0,0.0,0.0,0.0,0.0,0.0,0.0,0.0,0.0,0.0,0.0,0.0,0.0,0.0,0.0,0.0,0.0,0.0,0.0,0.0,0.0,0.0,0.0,0.0,0.0,0.0,0.0,0.0,0.0,0.0,0.0,0.0,0.0,0.0,0.0,0.0,0.0,0.0,0.0,0.0,0.0,0.0,0.0,0.0,0.0,0.0,0.0,0.0,0.0,0.0,0.0,0.0,0.0,0.0,0.0,0.0,0.0,0.0,0.0,0.0,0.0,0.0,0.0,0.0,0.0,0.0,0.0,0.0,0.0,0.0,0.0,0.0,0.0,0.0,0.0,0.0,0.0,0.0,0.0,0.0,0.0,0.0,0.0,0.0,0.0,0.0,0.0,0.0,0.0,0.0,0.0,0.0,0.0,0.0,0.0,0.0,0.0,0.0,0.0,0.0,0.0,0.0,0.0,0.0,0.0,0.0,0.0,0.0,0.0,0.0,0.0,0.0,0.0,0.0,0.0,0.0,0.0,0.0,0.0,0.0,0.0,0.0,0.0,0.0,0.0,0.0,0.0,0.0,0.0,0.0,0.0,0.0,0.0,0.0,0.0,0.0,0.0,0.0,0.0,0.0,0.0,0.0,0.0,0.0,0.0,0.0,0.0,0.0,0.0,0.0,0.0,0.0,0.0,0.0,0.0,0.0,0.0,0.0,0.0,0.0,0.0,0.0,0.0,0.0,0.0,0.0,0.0,0.0,0.0,0.0,0.0,0.0,0.0,0.0,0.0,0.0,0.0,0.0,1.8526,0.0,0.0,0.0,0.0,0.0,0.0,0.0,0.0,0.0,0.0,0.0,0.0,0.0,0.0,0.0,0.0,0.0,0.0,0.0,0.0,0.0,0.0,0.0,0.0,0.0,0.0,0.0,0.0,0.0,0.0,0.0,0.0,0.0,0.0,0.0,0.0,0.0,0.0,0.0,0.0,0.0,0.0,0.0,0.0,0.0,0.0,0.0,0.0,0.0,0.0,0.0,0.0,0.0,0.0,0.0,0.0,0.0,0.0,0.0,0.0,0.0,0.0,0.0,0.0,0.0,0.0,0.0,0.0,0.0,0.0,0.0,0.0,0.0,0.0,0.0,0.0,0.0,0.0,0.0,0.0,0.0,0.0,0.0,0.0,0.0,0.0,0.0,0.0,0.0,0.0,0.0,0.0,0.0,0.0,0.0,0.0,0.0,0.0,0.0,0.0,0.0,0.0,0.0,0.0,0.0,0.0,0.0,0.0,0.0,0.0,0.0,0.0,0.0,0.0,0.0,0.0,2.0067,0.0,0.0,0.0,0.0,0.0,0.0,0.0,0.0,0.0,0.0,0.0,0.0,0.0,0.0,0.0,0.0,0.0,0.0,0.0,0.0,0.0,0.0,0.0,0.0,0.0,0.0,0.0,0.0,0.0,0.0,0.0,0.0,0.0,0.0,0.0,0.0,0.0,0.0,0.0,0.0,0.0,0.0,0.0,0.0,0.0,0.0,0.0,0.0,0.0,0.0,0.0,0.0,0.0,0.0,0.0,0.0,0.0,0.0,0.0,0.0,0.0,0.0,0.0,0.0,0.0,0.0,0.0,0.0,0.0,0.0,0.0,0.0,0.0,0.0,0.0,0.0,0.0,0.0,0.0,0.0,0.0,0.0,0.0,0.0,0.0,0.0,0.0,0.0,0.0,0.0,0.0,0.0,0.0,0.0,0.0,0.0,0.0,0.0,0.0,0.0,0.0,0.0,0.0,0.0,0.0,0.0,0.0,0.0,2.5835,2.6159,2.6162,2.5226,2.4879,2.4893,2.228,2.1316,2.1498,2.0963,0.0,0.0,0.0,0.0,0.0,0.0,0.0,0.0,0.0,0.0,0.0,0.0,0.0,0.0,0.0,0.0,0.0,0.0,0.0,0.0,0.0,0.0,0.0,0.0,0.0,0.0,0.0,0.0,0.0,0.0,0.0,0.0,0.0,0.0,0.0,0.0,0.0,0.0,0.0,0.0,0.0,0.0,0.0,0.0,0.0,0.0,0.0,0.0,0.0,0.0,0.0,0.0,0.0,0.0,0.0,0.0,0.0,0.0,0.0,0.0,0.0,0.0,0.0,0.0,0.0,0.0,0.0,0.0,0.0,0.0,0.0,0.0,0.0,0.0,0.0,0.0,0.0,0.0,0.0,0.0,0.0,0.0,0.0,0.0,0.0,0.0,2.2682,2.2653,0.0,0.0,0.0,0.0,0.0,0.0,0.0,0.0,0.0,0.0,0.0,0.0,0.0,2.5511,2.6206,2.6698,2.6585,2.5877,2.6494,2.6129,2.4936,2.4782,2.4883,2.5145,2.4512,0.0,2.1327,2.1238,0.0,0.0,0.0,0.0,0.0,0.0,0.0,0.0,0.0,0.0,0.0,0.0,0.0,0.0,0.0,0.0,0.0,0.0,0.0,0.0,0.0,0.0,0.0,0.0,0.0,0.0,0.0,0.0,0.0,0.0,0.0,0.0,0.0,0.0,0.0,0.0,0.0,0.0,0.0,0.0,0.0,0.0,0.0,0.0,0.0,0.0,0.0,0.0,0.0,0.0,0.0,0.0,0.0,0.0,0.0,0.0,0.0,0.0,0.0,0.0,0.0,0.0,0.0,0.0,0.0,0.0,0.0,0.0,0.0,0.0,0.0,0.0,0.0,0.0,0.0,0.0,0.0,0.0,0.0,0.0,0.0,0.0,0.0,0.0,0.0,2.3961,2.4103,2.4545,2.4446,2.4339,0.0,0.0,0.0,0.0,0.0,0.0,0.0,0.0,0.0,2.7907,2.7318,2.7363,2.8178,2.8326,2.8192,2.7853,2.849,2.8507,2.7969,2.7794,2.7601,2.7368,2.7174,2.5764,2.3561,2.304,2.2408,2.1713,0.0,0.0,0.0,0.0,2.0665,2.102,0.0,0.0,0.0,0.0,0.0,0.0,0.0,0.0,0.0,0.0,0.0,0.0,0.0,0.0,0.0,1.8419,0.0,0.0,0.0,0.0,0.0,0.0,0.0,0.0,0.0,0.0,0.0,0.0,0.0,0.0,0.0,0.0,0.0,0.0,0.0,0.0,0.0,0.0,0.0,0.0,0.0,0.0,0.0,0.0,0.0,0.0,0.0,0.0,0.0,0.0,0.0,0.0,0.0,0.0,0.0,0.0,0.0,0.0,0.0,0.0,0.0,0.0,0.0,0.0,0.0,0.0,0.0,0.0,0.0,0.0,0.0,0.0,0.0,0.0,0.0,0.0,0.0,2.5281,2.5536,2.5842,2.5641,2.5371,0.0,0.0,0.0,0.0,0.0,0.0,2.7448,2.7853,2.876,3.018,2.9484,2.9372,2.9991,3.0066,2.9976,2.9781,3.0504,3.0769,3.0698,3.0561,3.0044,2.9247,2.9089,2.8003,2.6213,2.4757,2.3694,2.2883,2.184,2.11,2.0639,2.069,2.1333,2.199,0.0,0.0,0.0,0.0,0.0,0.0,0.0,0.0,0.0,0.0,0.0,0.0,0.0,0.0,1.8433,1.8999,1.8535,1.7993,0.0,0.0,0.0,0.0,0.0,0.0,0.0,0.0,0.0,0.0,0.0,0.0,0.0,0.0,0.0,0.0,0.0,0.0,0.0,0.0,0.0,0.0,0.0,0.0,0.0,0.0,0.0,0.0,0.0,0.0,0.0,0.0,0.0,0.0,0.0,0.0,0.0,0.0,0.0,0.0,0.0,0.0,0.0,0.0,0.0,0.0,0.0,0.0,0.0,0.0,0.0,0.0,0.0,0.0,0.0,0.0,0.0,0.0,0.0,0.0,0.0,2.5179,2.6362,0.0,0.0,0.0,0.0,2.6667,2.8052,2.9181,2.9814,2.9564,3.0104,3.1655,3.1404,3.1246,3.1296,3.1927,3.1878,3.1122,3.193,3.1913,3.1175,3.1479,3.0897,2.9656,2.9456,2.916,2.8599,2.5757,2.4249,2.3692,2.3125,2.2986,2.3135,2.3201,2.275,2.2081,0.0,0.0,0.0,0.0,0.0,0.0,0.0,0.0,0.0,0.0,0.0,0.0,0.0,1.8278,1.7845,1.8044,1.7977,1.7384,1.6031,0.0,0.0,0.0,0.0,0.0,0.0,0.0,0.0,0.0,0.0,0.0,0.0,0.0,0.0,0.0,0.0,0.0,0.0,0.0,0.0,0.0,0.0,0.0,0.0,0.0,0.0,0.0,0.0,0.0,0.0,0.0,0.0,0.0,0.0,0.0,0.0,0.0,0.0,0.0,0.0,0.0,0.0,0.0,0.0,0.0,0.0,0.0,0.0,0.0,0.0,0.0,0.0,0.0,0.0,0.0,0.0,0.0,0.0,0.0,0.0,2.8603,2.9426,0.0,2.8438,2.9275,2.9521,2.8676,3.0122,3.1266,3.1768,3.2063,3.2867,3.4341,3.3829,3.3741,3.4233,3.3477,3.295,3.2687,3.2493,3.2348,3.2243,3.2339,3.1893,3.0944,3.0538,2.9909,2.9043,2.732,2.587,2.4714,2.4173,2.3351,2.2529,2.3084,2.3417,2.3561,0.0,0.0,0.0,0.0,0.0,0.0,0.0,0.0,0.0,0.0,0.0,1.8387,1.8779,1.7913,1.7453,1.783,1.7622,1.7006,1.5838,0.0,0.0,0.0,0.0,0.0,0.0,0.0,0.0,0.0,0.0,0.0,0.0,0.0,0.0,0.0,0.0,0.0,0.0,0.0,0.0,0.0,0.0,0.0,2.0519,0.0,0.0,0.0,0.0,0.0,0.0,0.0,0.0,0.0,0.0,0.0,0.0,0.0,0.0,0.0,0.0,0.0,0.0,0.0,0.0,0.0,0.0,0.0,0.0,0.0,0.0,0.0,0.0,0.0,0.0,0.0,0.0,0.0,0.0,0.0,3.0214,3.1273,3.2165,3.224,3.1118,3.1869,3.1975,3.0836,3.2018,3.3198,3.4212,3.4129,3.4833,3.6531,3.5864,3.5583,3.5811,3.453,3.3757,3.3494,3.2757,3.2366,3.2261,3.2357,3.1979,3.1194,3.0664,3.0089,2.9431,2.8476,2.7343,2.616,2.556,2.4631,2.3683,2.3962,2.4407,2.4776,0.0,0.0,0.0,0.0,0.0,0.0,0.0,0.0,0.0,0.0,1.6677,1.7054,1.8113,1.7429,1.7329,1.8347,1.7464,1.6863,0.0,1.6449,0.0,0.0,0.0,0.0,0.0,0.0,0.0,0.0,0.0,0.0,0.0,0.0,0.0,0.0,0.0,0.0,0.0,0.0,0.0,0.0,0.0,0.0,2.2167,0.0,0.0,0.0,0.0,0.0,0.0,0.0,0.0,0.0,0.0,0.0,0.0,0.0,0.0,0.0,0.0,0.0,0.0,0.0,0.0,0.0,0.0,0.0,0.0,0.0,0.0,0.0,0.0,0.0,0.0,0.0,0.0,0.0,2.8881,3.0965,3.2573,3.2884,3.4298,3.4351,3.2005,3.4085,3.4852,3.3105,3.3755,3.5116,3.7135,3.5678,3.5794,3.8041,3.7374,3.6636,3.5899,3.5109,3.4319,3.3512,3.2792,3.2002,3.1263,3.1505,3.1186,3.0356,2.9897,2.9781,2.9897,2.9138,2.8535,2.7959,2.723,2.6916,2.6786,2.6024,2.5726,2.5613,0.0,0.0,0.0,0.0,0.0,0.0,0.0,0.0,0.0,0.0,1.7501,1.7493,1.7176,1.697,1.6944,1.7255,1.6386,1.585,1.5919,0.0,0.0,0.0,0.0,0.0,0.0,0.0,0.0,0.0,0.0,0.0,0.0,0.0,0.0,0.0,0.0,0.0,0.0,0.0,0.0,0.0,0.0,0.0,2.3023,0.0,0.0,0.0,0.0,0.0,0.0,0.0,0.0,0.0,0.0,0.0,0.0,0.0,0.0,0.0,0.0,0.0,0.0,0.0,0.0,0.0,0.0,0.0,0.0,0.0,0.0,0.0,0.0,0.0,0.0,0.0,0.0,3.006,3.0465,3.2744,3.4574,3.512,3.5984,3.6244,3.5592,3.6785,3.7354,3.6703,3.6996,3.7403,3.784,3.6921,3.6882,3.8058,3.7374,3.7145,3.7479,3.6162,3.5127,3.4354,3.3564,3.2895,3.2364,3.2382,3.2384,3.2379,3.1799,3.1265,3.0742,3.0173,2.9517,2.879,2.7999,2.7337,2.6802,2.6522,2.6154,2.5695,0.0,0.0,0.0,0.0,0.0,0.0,0.0,0.0,0.0,0.0,1.6579,1.6917,1.6415,1.6286,1.6258,1.6441,1.581,1.543,1.5472,0.0,0.0,0.0,0.0,2.1349,2.2906,0.0,0.0,0.0,0.0,0.0,0.0,0.0,0.0,0.0,0.0,0.0,0.0,0.0,0.0,0.0,0.0,0.0,2.5143,2.4606,2.4456,2.4471,2.4116,2.4324,2.4538,2.2949,0.0,0.0,0.0,0.0,0.0,0.0,0.0,0.0,0.0,0.0,0.0,0.0,0.0,0.0,0.0,0.0,0.0,0.0,0.0,0.0,0.0,0.0,0.0,0.0,3.0995,3.278,3.4099,3.4784,3.5581,3.6773,3.7519,3.7953,3.7953,3.876,3.9077,3.8638,3.8408,3.8513,3.9076,3.8058,3.797,3.9059,3.8023,3.783,3.8602,3.6759,3.5759,3.5636,3.4196,3.3195,3.2621,3.2168,3.214,3.2402,3.1791,3.1546,3.1465,3.065,3.0051,0.0,0.0,0.0,0.0,0.0,2.6012,2.5431,0.0,0.0,0.0,0.0,0.0,0.0,0.0,0.0,0.0,0.0,0.0,1.5805,1.5638,1.5417,1.5445,1.5782,1.5477,1.5352,0.0,0.0,0.0,1.9703,2.0775,2.1903,2.3096,2.3722,0.0,0.0,0.0,0.0,0.0,0.0,0.0,0.0,0.0,0.0,0.0,0.0,0.0,0.0,0.0,0.0,2.772,2.6362,2.6309,2.6896,2.6024,2.5365,2.4772,2.3975,0.0,0.0,0.0,0.0,0.0,0.0,0.0,0.0,0.0,0.0,0.0,0.0,0.0,0.0,0.0,0.0,0.0,0.0,0.0,0.0,0.0,0.0,0.0,0.0,3.4006,3.6363,3.8498,3.7128,3.6609,3.8415,3.9111,3.9515,3.9691,4.0253,4.0358,3.9743,3.9041,3.9217,4.0533,0.0,0.0,0.0,0.0,3.8585,3.9305,3.7145,3.6338,3.6829,3.4758,3.3353,3.2582,3.1655,3.1388,3.1661,3.1069,3.1337,3.2073,3.0954,3.0436,3.0318,2.9529,2.8753,2.7886,2.6744,2.5759,2.5013,0.0,0.0,0.0,0.0,0.0,0.0,0.0,0.0,0.0,1.4542,1.5159,1.5234,1.4083,1.4298,1.4522,1.4631,1.4546,1.489,0.0,0.0,1.8388,2.0039,2.1093,2.236,2.3905,2.4305,2.5034,0.0,0.0,0.0,0.0,0.0,0.0,0.0,0.0,0.0,0.0,0.0,0.0,0.0,0.0,0.0,2.7896,2.7928,2.7765,2.7497,2.7226,2.7796,2.8387,2.6628,2.6441,2.664,2.5088,0.0,0.0,0.0,0.0,0.0,0.0,0.0,0.0,0.0,0.0,0.0,0.0,0.0,0.0,0.0,0.0,0.0,0.0,0.0,0.0,3.4942,3.7309,3.9167,4.0017,4.0275,4.0742,4.1762,4.092,4.0744,4.2008,4.1692,4.1587,4.2096,4.199,4.1745,4.1411,4.0516,4.0446,4.1358,3.9884,3.9147,3.9305,3.8216,3.711,3.6039,0.0,0.0,3.4069,3.3442,3.3312,3.3555,3.2985,3.2664,3.2481,3.2239,3.1875,3.1351,2.9927,2.8422,2.7158,2.7967,2.6887,2.5114,0.0,0.0,0.0,0.0,0.0,0.0,0.0,0.0,0.0,0.0,1.4885,1.5045,1.4309,1.449,1.4538,1.4313,1.4329,0.0,0.0,1.7322,1.8983,2.0924,2.1743,2.2955,2.4591,2.4744,2.5177,2.5779,0.0,0.0,0.0,0.0,0.0,0.0,0.0,0.0,0.0,0.0,0.0,0.0,0.0,0.0,2.8866,2.9692,2.9478,2.8723,2.8659,2.8738,2.8599,2.6903,2.6948,2.7466,2.5853,2.5086,2.464,0.0,0.0,0.0,0.0,0.0,0.0,0.0,0.0,0.0,0.0,0.0,0.0,0.0,0.0,2.9839,0.0,0.0,3.5065,3.7059,3.8951,4.0524,4.1525,4.2289,4.2605,4.2254,4.1868,4.2096,4.3237,4.2658,4.2377,4.278,4.2816,4.2622,4.2219,4.2201,4.2359,4.2745,4.1271,4.0463,4.0463,3.8901,3.7725,3.697,3.6584,3.5948,3.5139,3.4994,3.4869,3.4778,3.4171,3.3876,3.3725,3.2944,3.2293,3.1734,3.1042,2.9757,2.8347,2.8259,2.7445,2.6416,0.0,0.0,0.0,0.0,0.0,0.0,0.0,0.0,0.0,0.0,0.0,1.4665,1.4557,1.4545,1.4454,0.0,0.0,0.0,0.0,1.7617,1.9426,2.1479,2.2078,2.3142,2.4847,2.4774,2.4939,2.537,2.5908,0.0,0.0,0.0,0.0,0.0,0.0,0.0,0.0,0.0,0.0,0.0,0.0,0.0,2.9929,3.1076,3.086,2.9915,2.9724,2.8833,2.7663,2.6542,2.653,2.686,2.6134,2.5929,2.5763,2.494,2.4005,0.0,0.0,0.0,0.0,0.0,0.0,0.0,0.0,0.0,2.8962,2.9963,3.1103,3.2643,3.5072,3.615,3.7268,3.9022,4.0329,4.1587,4.2851,4.3751,4.3744,4.2335,4.2791,4.3458,4.3973,4.3546,4.3131,4.2833,4.3079,4.3254,4.3254,4.3535,4.3816,4.4115,4.25,4.1604,4.1604,3.9445,3.8251,3.8093,3.7338,3.6654,3.6001,3.6127,3.5918,3.5421,3.486,3.4663,3.466,3.3523,3.2779,3.2322,3.2325,3.1657,3.0519,2.9003,2.8217,2.7931,0.0,0.0,0.0,0.0,0.0,0.0,0.0,0.0,0.0,0.0,0.0,0.0,0.0,0.0,0.0,0.0,0.0,0.0,1.6402,1.7629,1.8992,2.0644,2.1246,2.2296,2.3887,2.3583,2.4098,2.5591,2.6025,2.5915,0.0,0.0,0.0,0.0,0.0,0.0,0.0,0.0,0.0,0.0,0.0,0.0,3.0539,3.125,3.1076,3.0366,2.9388,2.8209,2.7137,2.7208,2.6183,2.5197,2.7118,2.643,2.4978,2.5038,0.0,2.322,2.338,2.3877,2.4728,2.6264,2.6372,2.7018,0.0,0.0,3.1921,3.3542,3.5139,3.6521,3.7566,3.9229,4.0778,4.1645,4.2776,4.357,4.3746,4.483,4.5258,4.4306,4.4558,4.4777,4.4555,4.4728,4.4273,4.2903,4.4079,4.4852,4.4852,4.3623,4.3553,4.4922,4.278,4.1604,4.1604,3.9989,3.8813,3.8093,3.7338,3.6895,3.6654,3.6595,3.6107,3.5321,3.5059,3.4541,3.3972,3.4523,3.4518,3.4127,3.3435,3.3318,3.3341,3.1694,3.0109,2.8758,0.0,0.0,0.0,0.0,0.0,0.0,0.0,0.0,0.0,0.0,0.0,0.0,0.0,0.0,0.0,0.0,0.0,0.0,1.5996,1.7159,1.8734,2.0959,2.1284,2.2149,2.3737,2.3308,2.3789,2.5144,2.5246,2.524,2.5146,0.0,0.0,0.0,0.0,0.0,0.0,0.0,0.0,0.0,0.0,0.0,3.0054,3.0332,2.9798,2.884,2.8359,2.7214,0.0,0.0,2.547,2.5493,2.6455,2.623,2.5489,2.483,2.4163,0.0,2.4147,2.5359,0.0,0.0,2.8965,3.0764,3.2204,3.3718,3.5204,3.665,3.8021,3.9393,4.0909,4.1867,4.2612,0.0,4.4432,4.4879,4.3453,4.4935,4.5575,4.4023,4.4605,4.4843,4.4263,4.4348,4.4082,4.3182,4.3704,4.4198,4.4378,4.3799,4.3746,4.4378,4.3044,4.2078,4.1604,4.0077,3.8918,3.8111,3.8015,3.7835,3.7597,3.8546,3.8114,3.6557,3.5985,3.5101,3.406,3.4228,3.4377,3.447,3.4132,3.4205,3.4333,3.2775,3.1737,3.1107,0.0,0.0,0.0,0.0,0.0,0.0,0.0,0.0,0.0,0.0,0.0,0.0,0.0,0.0,0.0,0.0,0.0,0.0,0.0,1.6305,1.7905,1.9997,2.037,0.0,2.2859,2.2522,2.2898,2.4093,2.436,2.4481,2.4469,2.4489,0.0,0.0,0.0,0.0,0.0,0.0,0.0,0.0,0.0,0.0,2.9334,2.8973,2.794,2.6692,2.6814,2.5625,0.0,0.0,2.3876,2.4406,2.5187,2.546,2.5408,2.4794,2.4424,2.4339,2.5077,0.0,0.0,2.9158,3.1489,3.3706,3.4434,3.6209,3.8083,3.9278,4.0271,4.1416,4.3073,4.3039,4.3045,4.4015,4.4862,4.4874,4.333,4.4753,4.5199,4.3265,4.3889,4.4144,4.336,4.3701,4.3736,4.3179,4.3268,4.3579,4.4064,4.3786,4.3693,4.3886,4.2973,4.2306,4.1938,4.0411,3.9234,3.8444,3.8479,3.8267,3.7812,3.9211,3.8988,3.7489,3.6872,3.5644,3.4092,3.4126,3.4266,3.4508,3.4508,3.4694,3.4849,3.3786,3.3261,3.3032,0.0,0.0,0.0,0.0,0.0,0.0,0.0,0.0,0.0,0.0,0.0,0.0,0.0,0.0,0.0,0.0,0.0,0.0,0.0,1.5007,1.6104,1.6691,1.7748,1.9047,2.0692,2.0682,2.1211,2.2258,2.3418,2.3703,2.3201,2.4588,2.5316,0.0,0.0,0.0,0.0,0.0,0.0,0.0,0.0,0.0,2.8594,2.7345,2.5676,2.408,2.4704,0.0,0.0,0.0,2.1024,2.0661,2.3364,2.4029,0.0,2.5145,2.5082,0.0,0.0,0.0,2.8369,3.2336,3.3406,3.441,3.7825,3.922,4.0139,4.1379,4.1882,4.2396,4.324,4.2139,4.1849,4.4287,4.367,4.3172,4.3857,4.4418,4.4086,4.2365,4.2585,4.2544,0.0,4.3012,4.3602,4.2862,4.3135,4.3629,4.4456,4.3411,4.3167,4.3869,4.2429,4.2008,4.2763,4.1218,4.0059,3.9269,3.848,3.7684,3.6846,3.7502,3.7688,3.7507,3.7489,3.6074,3.3862,3.4651,3.4784,3.4508,3.4508,3.4793,3.5193,3.5152,3.4636,3.3834,0.0,0.0,0.0,0.0,0.0,0.0,0.0,0.0,0.0,0.0,0.0,0.0,0.0,0.0,0.0,0.0,0.0,0.0,0.0,1.4192,1.4814,1.6008,1.6056,1.6811,1.8434,1.8688,1.9563,2.1115,2.1731,2.2318,2.2852,2.2948,2.3894,2.5439,0.0,0.0,0.0,0.0,0.0,0.0,0.0,0.0,2.7243,2.5712,2.42,2.2936,0.0,0.0,0.0,0.0,2.1302,2.1421,2.2736,0.0,0.0,2.4567,2.5343,2.629,2.8652,0.0,3.2809,3.5232,3.7185,3.8948,4.04,4.1488,4.2265,4.2419,4.2087,4.1872,4.2181,4.1743,4.1681,4.2514,4.3675,4.3778,4.1866,4.3121,4.3,3.9697,4.0889,0.0,0.0,0.0,0.0,4.3195,4.3287,4.359,4.4147,4.3306,4.292,4.3171,4.2669,4.2526,4.2813,4.1812,4.0879,4.0016,3.9209,3.8887,3.8997,3.893,3.8696,3.832,3.7746,3.6519,3.4939,3.4972,3.4803,3.4508,3.4508,3.4715,3.5034,3.5209,3.5105,3.4802,0.0,0.0,0.0,0.0,0.0,0.0,0.0,0.0,0.0,0.0,0.0,0.0,0.0,0.0,0.0,0.0,0.0,0.0,0.0,0.0,1.3263,1.4105,1.4317,1.5085,1.6393,1.7024,1.7896,1.9181,1.9484,2.0038,2.0785,2.0884,2.1877,2.3557,2.3595,0.0,0.0,0.0,0.0,0.0,0.0,0.0,2.4234,2.3024,2.201,0.0,0.0,0.0,0.0,0.0,0.0,0.0,0.0,2.2912,2.368,2.5005,2.6467,2.831,3.1376,3.3824,3.599,3.798,3.9988,4.1536,4.1814,4.2445,4.2699,4.1679,4.0828,4.0178,3.99,3.912,3.9008,4.0476,4.1794,4.2222,4.0996,4.2407,4.2482,3.9565,4.0624,4.1497,0.0,0.0,0.0,4.3133,4.3036,4.3065,4.3341,4.3264,4.2991,4.2393,4.2393,4.2248,4.194,4.147,4.08,3.9967,3.9425,3.9446,3.997,3.9908,3.9483,3.8773,3.8493,3.7247,3.5391,3.5269,3.5144,3.5044,3.5128,3.5477,3.5982,3.6176,3.6243,3.6131,0.0,0.0,0.0,0.0,0.0,0.0,0.0,0.0,0.0,0.0,0.0,0.0,0.0,0.0,0.0,0.0,0.0,0.0,0.0,0.0,0.0,1.1075,1.2565,1.3727,1.4522,1.5521,1.623,1.6506,1.7011,1.7299,1.7365,1.8632,1.9531,2.0144,2.095,2.2449,0.0,0.0,0.0,0.0,0.0,0.0,2.0094,1.9627,0.0,0.0,0.0,0.0,0.0,0.0,0.0,0.0,0.0,2.367,2.5408,2.6497,2.8504,3.1049,3.4058,3.6116,3.8029,4.0588,4.1832,4.2372,4.228,4.2176,4.1521,3.9472,3.8321,3.7448,0.0,0.0,3.4351,3.8209,3.8422,3.8868,4.1229,4.2289,4.2512,0.0,0.0,0.0,0.0,0.0,0.0,4.2783,0.0,4.2213,4.2334,4.3433,4.332,4.1742,4.1687,4.1307,4.0526,4.0472,4.0073,3.9293,3.917,3.934,3.9708,4.0276,3.9918,3.8888,3.9663,3.8224,3.5393,3.5653,3.5878,3.6116,3.6293,3.6986,3.7901,3.7901,3.7901,3.7655,0.0,0.0,0.0,0.0,0.0,0.0,0.0,0.0,0.0,0.0,0.0,0.0,0.0,0.0,0.0,0.0,0.0,0.0,0.0,0.0,0.0,0.0,0.0,0.0,0.0,0.0,0.0,0.0,0.0,1.7119,1.8078,1.8769,1.9407,0.0,2.0378,2.1359,2.2673,2.2089,0.0,0.0,0.0,0.0,2.0415,0.0,0.0,0.0,0.0,0.0,0.0,0.0,0.0,0.0,0.0,2.5508,2.6988,2.9002,3.1853,3.4758,3.6708,4.0148,4.3213,4.3235,4.4082,4.4583,4.3389,4.1931,4.037,3.8553,3.6575,3.4699,0.0,0.0,0.0,3.5299,3.7996,0.0,4.0907,4.2219,0.0,4.1372,0.0,4.2284,4.2473,4.2322,0.0,0.0,4.309,4.3269,4.4089,4.4448,4.4111,4.3033,4.3015,4.2621,4.1815,4.1215,4.0723,4.03,3.9686,3.9425,3.9462,3.964,3.9618,3.9477,3.9627,3.8895,3.7587,3.7656,3.7457,3.711,3.7185,3.7481,3.7894,3.7894,3.7897,3.7846,0.0,0.0,0.0,0.0,0.0,0.0,0.0,0.0,0.0,0.0,0.0,0.0,0.0,0.0,0.0,0.0,0.0,0.0,0.0,0.0,0.0,0.0,0.0,0.0,0.0,0.0,0.0,0.0,0.0,0.0,0.0,1.7014,1.7653,1.8222,1.9043,2.0147,2.1329,0.0,0.0,0.0,0.0,0.0,0.0,0.0,0.0,0.0,0.0,0.0,0.0,0.0,0.0,2.5839,2.6619,2.7994,2.9828,3.2191,0.0,3.7312,3.9583,4.2412,4.4681,4.4399,4.4601,4.4217,4.1669,4.0021,3.8116,3.4918,3.3209,0.0,0.0,0.0,0.0,0.0,0.0,0.0,3.9614,4.1235,4.2246,0.0,4.2639,0.0,4.3504,4.3248,4.3425,0.0,4.3771,4.3661,4.4338,4.4699,4.4338,4.3102,4.3064,4.2446,4.1196,4.112,4.0848,4.0311,4.0594,4.0513,4.0169,4.0484,4.0513,4.0268,0.0,3.9513,3.8458,3.8586,3.8441,3.8173,3.8263,3.8594,3.9035,3.9035,3.9084,3.9114,0.0,0.0,0.0,0.0,0.0,0.0,0.0,0.0,0.0,0.0,0.0,0.0,0.0,0.0,0.0,0.0,0.0,0.0,0.0,0.0,0.0,0.0,0.0,0.0,0.0,0.0,0.0,0.0,0.0,0.0,0.0,0.0,0.0,0.0,0.0,0.0,0.0,0.0,0.0,0.0,0.0,0.0,0.0,0.0,0.0,0.0,0.0,0.0,0.0,0.0,2.6429,2.7869,2.8846,3.0782,3.3149,3.5538,3.733,3.9207,4.2209,4.367,4.4436,4.4665,4.4179,4.269,3.9002,3.7435,3.5433,3.0622,0.0,2.8957,2.7295,2.7308,2.8373,3.0731,0.0,3.4999,3.8366,4.0191,4.1787,4.3447,4.375,4.4173,4.5036,4.4545,4.4549,4.548,4.4534,4.3959,4.4058,4.4614,4.4174,4.2469,4.2316,4.1495,3.9922,4.0642,4.064,3.9859,4.1317,4.1696,4.1168,4.1692,4.1613,4.1089,4.0915,4.0063,3.8757,3.9013,3.916,3.9216,3.9519,4.0004,4.0554,4.065,4.0621,4.0532,0.0,0.0,0.0,0.0,0.0,0.0,0.0,0.0,0.0,0.0,0.0,0.0,0.0,0.0,0.0,0.0,0.0,0.0,0.0,0.0,0.0,0.0,0.0,0.0,0.0,0.0,0.0,0.0,0.0,0.0,0.0,0.0,0.0,0.0,0.0,0.0,0.0,0.0,0.0,0.0,0.0,0.0,0.0,0.0,0.0,0.0,0.0,0.0,0.0,0.0,2.7196,2.9057,3.0982,3.2967,3.5138,3.7748,3.9703,4.1356,4.3039,4.4908,4.6158,4.5057,4.4158,4.2655,3.9222,3.6226,0.0,0.0,0.0,2.7418,2.6454,2.763,2.9257,3.0906,0.0,0.0,0.0,0.0,4.2295,0.0,0.0,0.0,0.0,0.0,0.0,0.0,0.0,4.5512,4.553,4.4982,4.3847,4.2058,4.1363,4.081,4.0389,4.053,4.0441,4.0139,4.0367,4.0804,4.1338,4.0787,4.0922,4.1551,4.0856,0.0,4.0096,4.0178,4.0233,4.0312,4.1072,4.1084,4.0752,4.1409,4.0834,3.9723,0.0,0.0,0.0,0.0,0.0,0.0,0.0,0.0,0.0,0.0,1.1917,1.1196,0.0,0.0,0.0,0.0,0.0,0.0,0.0,0.0,0.0,0.0,0.0,0.0,0.0,0.0,0.0,0.0,0.0,0.0,0.0,0.0,0.0,0.0,0.0,0.0,0.0,0.0,0.0,0.0,0.0,0.0,0.0,0.0,0.0,0.0,0.0,0.0,0.0,0.0,2.7443,2.9289,3.1941,3.4673,3.7248,3.8869,4.0597,4.2309,4.3866,4.5022,4.5663,4.4978,4.3255,4.0741,3.6976,0.0,0.0,0.0,2.6872,2.6224,2.5768,0.0,0.0,0.0,0.0,0.0,0.0,0.0,0.0,0.0,0.0,0.0,0.0,0.0,0.0,0.0,0.0,4.5772,4.5358,4.4106,4.3216,4.2801,4.1424,4.0655,4.054,4.0523,4.0427,4.0307,4.0783,4.1204,4.1532,4.1184,4.1555,4.2414,4.1078,0.0,4.1886,4.0982,4.1164,4.1951,4.1467,4.1342,4.1429,4.1344,4.056,3.9511,0.0,0.0,0.0,0.0,0.0,0.0,0.0,1.4014,1.3798,1.3761,1.3285,1.2574,1.1493,1.0668,0.0,0.0,0.0,0.0,0.0,0.0,0.0,0.0,0.0,0.0,0.0,0.0,0.0,0.0,0.0,0.0,0.0,0.0,0.0,0.0,0.0,0.0,0.0,0.0,0.0,0.0,0.0,0.0,0.0,0.0,0.0,0.0,0.0,0.0,0.0,0.0,2.6985,2.8734,3.149,3.487,3.7938,3.8724,4.0276,4.2155,4.4017,4.445,4.4357,4.4255,4.1934,3.8629,3.4441,3.1799,0.0,0.0,2.5428,2.5473,2.5356,0.0,0.0,0.0,0.0,0.0,0.0,0.0,0.0,0.0,0.0,0.0,0.0,0.0,0.0,0.0,0.0,4.534,4.4605,4.3134,4.2543,4.302,4.1568,4.0723,4.0617,4.054,4.0473,4.0413,4.1152,4.1588,4.1758,4.1809,4.2242,4.2847,4.1459,0.0,0.0,4.1488,4.1732,4.2721,4.171,4.1521,4.1714,4.1045,4.0098,3.9119,0.0,0.0,0.0,0.0,0.0,0.0,0.0,1.4323,1.4082,1.3913,1.3665,1.3374,1.2945,1.2668,0.0,0.0,0.0,0.0,0.0,0.0,0.0,0.0,0.0,0.0,0.0,0.0,0.0,0.0,0.0,0.0,0.0,0.0,0.0,0.0,0.0,0.0,0.0,0.0,0.0,0.0,0.0,0.0,0.0,0.0,0.0,0.0,0.0,0.0,0.0,0.0,0.0,2.7082,2.8766,3.1993,3.5363,3.6466,0.0,0.0,4.2742,4.3185,4.2874,4.2446,4.0391,3.7337,3.3059,0.0,0.0,2.6016,2.5498,2.5502,2.5477,2.5612,0.0,0.0,0.0,0.0,0.0,0.0,0.0,0.0,0.0,0.0,0.0,0.0,0.0,0.0,0.0,4.4401,4.3827,4.2906,4.2051,4.1266,4.1078,4.0876,4.0694,4.0557,4.0506,4.0489,4.0523,4.1011,4.187,4.1944,4.2027,4.2108,4.2004,0.0,0.0,4.1692,4.1565,4.1084,4.2504,4.2145,4.0839,4.0801,3.9595,3.7849,0.0,0.0,0.0,0.0,0.0,0.0,0.0,1.4744,1.4639,1.4528,1.4324,1.4067,1.374,1.3485,1.2849,0.0,0.0,0.0,0.0,0.0,0.0,0.0,0.0,0.0,0.0,0.0,0.0,0.0,0.0,0.0,0.0,0.0,0.0,0.0,0.0,0.0,0.0,0.0,0.0,0.0,0.0,0.0,0.0,0.0,0.0,0.0,0.0,0.0,0.0,0.0,0.0,0.0,2.63,2.8466,0.0,0.0,3.6493,3.9182,4.0671,4.209,4.2937,4.2276,3.9409,3.6014,3.3243,0.0,2.7311,2.58,2.5508,2.5507,2.5503,2.5488,2.594,0.0,0.0,0.0,0.0,0.0,0.0,0.0,0.0,0.0,0.0,0.0,0.0,0.0,0.0,4.3815,4.3197,4.2598,4.2146,4.1852,4.128,4.0935,4.082,4.0731,4.0916,4.1409,4.0887,4.1105,4.1946,4.15,4.1529,4.1963,4.1437,0.0,0.0,4.1261,4.1348,4.1968,4.146,4.085,4.0213,3.9723,3.7928,3.5744,0.0,0.0,0.0,0.0,0.0,0.0,1.4805,1.483,1.4769,1.4676,1.4376,1.4064,1.3751,1.3227,1.2296,1.08,0.0,0.0,0.0,0.0,0.0,0.0,0.0,0.0,0.0,0.0,0.0,0.0,0.0,0.0,0.0,0.0,0.0,0.0,0.0,0.0,0.0,0.0,0.0,0.0,0.0,0.0,0.0,0.0,0.0,0.0,0.0,0.0,0.0,0.0,0.0,0.0,0.0,0.0,0.0,0.0,3.3916,3.693,3.8422,4.0027,4.1258,4.1228,3.789,3.4178,0.0,0.0,2.6082,2.5227,2.5118,2.5169,2.5142,2.5159,2.5448,0.0,0.0,2.7689,0.0,0.0,0.0,0.0,0.0,0.0,0.0,0.0,0.0,0.0,4.392,4.3368,4.2467,4.2267,4.2108,4.1951,4.1344,4.1003,4.0922,4.0857,4.1104,4.1636,4.1043,4.1073,4.1593,4.1208,4.1206,4.146,4.0859,0.0,0.0,4.0405,4.0372,4.1186,3.9784,3.9106,3.8728,3.7559,3.578,3.3944,0.0,0.0,0.0,0.0,0.0,0.0,0.0,1.4438,1.4259,1.4121,1.3593,1.3107,1.2837,1.1745,1.0844,1.0444,0.0,0.0,0.0,0.0,0.0,0.0,0.0,0.0,0.0,0.0,0.0,0.0,0.0,0.0,0.0,0.0,0.0,0.0,0.0,0.0,0.0,0.0,0.0,0.0,0.0,0.0,0.0,0.0,0.0,0.0,0.0,0.0,0.0,0.0,0.0,0.0,0.0,0.0,0.0,0.0,3.0272,3.3437,3.6116,3.6649,3.691,3.8693,3.5618,3.1684,0.0,0.0,2.5145,2.4208,2.4238,2.4388,2.432,2.4531,2.4943,2.5687,0.0,0.0,0.0,0.0,0.0,0.0,0.0,0.0,0.0,0.0,0.0,0.0,4.3463,0.0,4.159,4.1893,4.1735,4.0935,4.1038,4.1074,4.0996,4.0935,4.0875,4.0811,4.0746,4.0717,4.0736,4.1319,4.1124,4.0322,0.0,0.0,0.0,3.903,3.8426,3.7661,3.7713,3.7126,3.5994,3.4141,3.323,3.2703,0.0,0.0,0.0,0.0,0.0,0.0,0.0,1.421,1.4025,1.3684,1.3371,1.2957,1.2332,1.1825,1.1365,1.0919,0.0,0.0,0.0,0.0,0.0,0.0,0.0,0.0,0.0,0.0,0.0,0.0,0.0,0.0,0.0,0.0,0.0,0.0,0.0,0.0,0.0,0.0,0.0,0.0,0.0,0.0,0.0,0.0,0.0,0.0,0.0,0.0,0.0,0.0,0.0,0.0,0.0,0.0,0.0,0.0,0.0,0.0,3.1593,3.2624,3.343,3.381,3.1108,2.8182,2.7587,0.0,2.2924,2.2641,2.2623,2.2677,2.2665,2.288,2.3467,2.471,2.5283,0.0,0.0,0.0,0.0,0.0,0.0,0.0,0.0,0.0,0.0,0.0,4.2368,4.1977,4.0683,4.1041,4.1032,4.0497,4.0539,4.0626,4.0797,4.1349,4.1632,4.1618,4.1378,4.1135,4.0881,4.0003,3.9276,0.0,0.0,0.0,0.0,3.6314,3.5872,3.5605,3.5421,3.4864,3.3949,3.2844,3.1529,3.019,0.0,0.0,0.0,0.0,0.0,0.0,0.0,1.3774,1.3578,1.3293,1.2918,1.2441,1.1849,1.1535,1.1227,1.0825,0.0,0.0,0.0,0.0,0.0,0.0,0.0,0.0,0.0,0.0,0.0,0.0,0.0,0.0,0.0,0.0,0.0,0.0,0.0,0.0,0.0,0.0,0.0,0.0,0.0,0.0,1.4217,0.0,0.0,0.0,0.0,0.0,0.0,0.0,0.0,0.0,0.0,0.0,0.0,0.0,2.4044,0.0,0.0,2.9008,2.9727,2.988,2.7514,0.0,0.0,0.0,2.0853,2.0834,2.0908,2.0965,2.0965,2.1178,2.1809,2.3122,2.3743,0.0,0.0,0.0,0.0,0.0,0.0,0.0,0.0,0.0,0.0,4.0822,4.092,4.0464,3.9425,3.9554,3.9448,3.898,3.9584,4.0082,4.0408,4.0936,4.1137,4.0963,4.0364,3.9742,3.9096,3.7643,3.663,0.0,0.0,0.0,0.0,3.3519,3.3068,3.3051,3.2565,3.1936,3.1206,3.0349,2.9127,2.7777,0.0,0.0,0.0,0.0,0.0,0.0,0.0,0.0,0.0,0.0,1.2285,1.1703,1.14,1.0977,1.0621,0.0,0.0,0.0,0.0,0.0,0.0,0.0,0.0,0.0,0.0,0.0,0.0,0.0,1.0965,1.103,1.2149,0.0,0.0,0.0,0.0,0.0,0.0,0.0,0.0,0.0,0.0,0.0,0.0,0.0,0.0,0.0,0.0,0.0,0.0,0.0,0.0,0.0,0.0,0.0,0.0,0.0,0.0,0.0,0.0,0.0,0.0,0.0,0.0,0.0,0.0,0.0,0.0,0.0,1.9108,1.9281,1.9276,1.9528,2.0051,2.1117,0.0,0.0,0.0,0.0,0.0,0.0,0.0,0.0,0.0,0.0,3.9389,3.942,3.9092,3.8605,3.7827,3.7524,3.7126,3.6573,3.8079,3.9169,3.9712,3.9757,3.9565,3.9067,3.8074,3.6998,3.5859,3.4505,3.358,0.0,0.0,0.0,0.0,3.0709,3.0238,3.0174,2.9457,2.877,2.8126,2.7083,2.6309,2.5664,0.0,0.0,0.0,0.0,0.0,0.0,0.0,0.0,0.0,0.0,0.0,1.1805,1.1247,1.1038,0.0,0.0,0.0,0.0,0.0,0.0,0.0,0.0,0.0,0.0,0.0,0.0,0.0,1.052,1.0584,1.1044,1.1808,1.146,0.0,0.0,0.0,0.0,0.0,0.0,0.0,0.0,0.0,0.0,0.0,0.0,0.0,0.0,1.5812,1.6011,0.0,0.0,0.0,0.0,0.0,0.0,0.0,0.0,2.021,2.0585,2.0724,0.0,2.1408,2.141,2.0225,0.0,0.0,0.0,0.0,0.0,0.0,0.0,0.0,0.0,0.0,0.0,0.0,0.0,0.0,0.0,0.0,0.0,0.0,0.0,0.0,0.0,3.6899,3.7329,3.6731,3.6166,3.5717,3.5202,3.4759,3.4366,3.4827,3.5966,3.7814,3.8425,3.8159,3.7015,3.6712,3.5683,3.4054,3.2807,3.1945,0.0,0.0,0.0,2.9988,2.9138,2.8777,2.8715,2.8109,2.7766,2.7455,2.6153,2.5551,2.5335,0.0,0.0,0.0,0.0,0.0,0.0,0.0,0.0,0.0,0.0,0.0,0.0,0.0,0.0,0.0,0.0,0.0,0.0,0.0,0.0,0.0,0.0,0.0,0.0,0.0,0.0,0.0,0.0,0.0,1.1182,0.0,0.0,0.0,0.0,0.0,0.0,0.0,0.0,0.0,0.0,1.329,0.0,0.0,0.0,0.0,0.0,1.5358,1.5522,0.0,1.6276,1.721,1.8129,0.0,0.0,0.0,0.0,1.9431,1.9522,1.9124,1.9178,1.9176,1.8682,1.7905,1.7203,0.0,0.0,0.0,0.0,0.0,0.0,0.0,0.0,0.0,0.0,0.0,0.0,0.0,0.0,0.0,0.0,0.0,0.0,0.0,0.0,3.5429,3.5446,3.4876,3.4399,3.4038,3.3497,3.2944,3.2306,3.2413,3.3551,3.5884,3.6404,3.6168,3.5206,3.4395,3.3135,3.1502,2.9952,2.8919,0.0,0.0,0.0,2.7325,2.6922,2.6791,2.6718,2.6371,2.6041,2.5642,2.4636,2.4133,2.3777,0.0,0.0,0.0,0.0,0.0,0.0,0.0,0.0,0.0,0.0,0.0,0.0,0.0,0.0,0.0,0.0,0.0,0.0,0.0,0.0,0.0,0.0,0.0,0.0,0.0,0.0,0.0,0.0,0.0,0.0,0.0,0.0,0.0,0.0,0.0,0.0,1.1718,0.0,0.0,0.0,1.3373,0.0,0.0,0.0,0.0,0.0,0.0,0.0,0.0,1.6434,1.7011,1.7581,1.854,0.0,0.0,0.0,0.0,0.0,1.8745,1.8458,1.8064,1.7422,1.6879,1.6392,0.0,0.0,0.0,0.0,0.0,0.0,0.0,0.0,0.0,0.0,0.0,0.0,0.0,0.0,0.0,0.0,0.0,0.0,0.0,3.344,3.4006,3.3469,3.2944,3.2524,3.2199,3.1704,3.1041,3.0335,3.0335,3.1287,3.3372,3.368,3.3649,3.3201,3.1638,3.0145,2.8679,2.7187,2.5909,2.4951,0.0,0.0,2.4951,2.4951,2.4951,2.5009,2.4732,2.4291,2.3733,2.3098,2.2524,2.2016,0.0,0.0,0.0,0.0,0.0,0.0,0.0,0.0,0.0,0.0,0.0,0.0,0.0,0.0,0.0,0.0,0.0,0.0,0.0,0.0,0.0,0.0,0.0,0.0,0.0,0.0,0.0,0.0,0.0,0.0,1.283,1.3151,1.2869,0.0,0.0,0.0,1.1681,1.2687,1.2994,1.2871,1.386,0.0,0.0,0.0,0.0,0.0,0.0,0.0,0.0,1.5054,1.6063,1.728,1.645,0.0,0.0,0.0,0.0,0.0,1.7948,1.7407,1.6879,1.7144,1.685,1.6349,0.0,0.0,0.0,0.0,0.0,0.0,0.0,0.0,0.0,0.0,0.0,0.0,0.0,0.0,0.0,0.0,0.0,0.0,3.0578,3.0766,3.0855,3.0983,2.9821,2.9147,2.9094,2.8529,2.8141,2.8025,2.8128,2.837,2.8705,2.9865,3.0162,2.9604,2.8961,2.798,2.6619,2.6136,2.5436,2.4584,0.0,2.4754,2.4754,2.4754,2.4881,2.4898,2.385,2.3425,2.3142,2.2073,2.1595,2.1513,0.0,0.0,0.0,0.0,0.0,0.0,0.0,0.0,0.0,0.0,0.0,0.0,0.0,0.0,0.0,0.0,0.0,0.0,0.0,0.0,0.0,0.0,0.0,0.0,0.0,0.0,0.0,0.0,0.0,1.2371,1.2314,1.2532,1.2591,1.2522,0.0,1.1857,1.1867,1.2671,1.2817,1.2549,0.0,0.0,0.0,0.0,0.0,0.0,0.0,0.0,0.0,0.0,1.5371,1.5951,1.6032,0.0,0.0,0.0,0.0,0.0,1.7475,1.7131,1.6689,1.6395,1.6211,1.6013,0.0,0.0,0.0,0.0,0.0,0.0,0.0,0.0,0.0,0.0,0.0,0.0,0.0,0.0,0.0,0.0,0.0,2.8235,2.8973,2.9314,2.9289,2.8892,2.8402,2.8132,2.793,2.7735,2.7391,2.6947,2.6544,2.6177,2.5763,2.6392,2.7249,2.836,2.7769,2.6876,2.572,2.5236,2.4458,2.3518,0.0,2.3456,2.3199,2.3508,2.3335,2.2855,2.2572,2.2286,2.1891,2.1036,2.0584,2.0346,0.0,0.0,0.0,0.0,0.0,0.0,0.0,0.0,0.0,0.0,0.0,0.0,0.0,0.0,0.0,0.0,0.0,0.0,0.0,0.0,0.0,0.0,0.0,0.0,0.0,0.0,1.1536,1.1752,1.2314,1.2423,1.2046,1.1802,1.1999,0.0,0.0,1.1765,1.192,1.2583,1.2587,1.2195,0.0,0.0,0.0,0.0,0.0,0.0,0.0,0.0,0.0,0.0,0.0,0.0,0.0,0.0,0.0,1.6702,1.6853,1.6976,1.6964,1.6795,1.6469,1.5701,0.0,0.0,0.0,0.0,0.0,0.0,0.0,0.0,0.0,0.0,0.0,0.0,0.0,0.0,0.0,0.0,2.5025,2.5877,2.6291,2.6801,2.7609,2.7974,2.7868,2.7218,2.731,2.7258,2.7002,2.6883,2.6544,2.5906,2.4979,2.4271,2.3648,2.375,2.4917,2.7085,2.6646,2.5886,2.4937,2.4335,2.3524,2.2555,2.2616,2.225,2.1654,2.2188,2.1809,2.0917,2.1138,2.0824,2.0167,1.9756,1.9423,1.9239,0.0,0.0,0.0,0.0,0.0,0.0,0.0,0.0,0.0,0.0,0.0,0.0,0.0,0.0,0.0,0.0,0.0,0.0,0.0,0.0,0.0,0.0,0.0,0.0,0.0,1.1296,1.1876,1.2785,1.3042,1.3033,1.2811,1.1672,1.122,1.1345,0.0,1.1487,1.1609,1.2657,1.2839,1.2501,1.2821,0.0,0.0,0.0,0.0,0.0,0.0,0.0,0.0,0.0,0.0,0.0,0.0,0.0,1.6284,1.562,1.5883,1.6355,1.6201,1.592,1.5546,1.5344,0.0,0.0,0.0,0.0,0.0,0.0,0.0,0.0,0.0,0.0,0.0,0.0,0.0,0.0,0.0,0.0,2.4967,2.5569,2.5678,2.5953,2.6609,2.6306,2.6105,2.6166,2.5743,2.5511,2.5441,2.4767,2.4325,2.4264,2.3149,2.2485,2.2424,2.2684,2.3341,2.4385,2.4795,2.456,2.3881,2.3643,2.3042,2.2247,2.2371,2.18,2.0803,2.1416,2.1091,2.0226,1.974,1.8864,1.7831,1.7797,1.8124,1.8578,0.0,0.0,0.0,0.0,0.0,0.0,0.0,0.0,0.0,0.0,0.0,0.0,0.0,0.0,0.0,0.0,0.0,0.0,0.0,0.0,0.0,0.0,0.0,1.1474,1.1275,1.168,1.1989,1.221,1.2174,1.2048,1.1881,1.1233,0.0,0.0,0.0,1.1102,1.1068,1.1682,1.1709,1.1319,1.1966,1.2342,0.0,0.0,0.0,0.0,0.0,0.0,0.0,0.0,1.4075,1.4001,0.0,1.4612,1.5039,1.533,1.5617,1.58,1.5756,1.5546,1.5264,1.4894,0.0,0.0,0.0,0.0,0.0,0.0,0.0,0.0,0.0,0.0,0.0,0.0,0.0,0.0,2.3379,2.3955,2.4601,2.5471,2.5283,2.5356,2.595,2.5451,2.4847,2.4186,2.3918,2.3523,2.2933,2.2559,2.2488,2.2629,2.1674,2.115,2.115,2.1673,2.211,2.2477,2.3647,2.3851,2.328,2.3204,2.2817,2.2185,2.1776,2.1046,2.0084,2.0522,1.9746,1.8306,1.8115,1.7947,1.7731,1.7479,1.7479,1.7699,0.0,0.0,0.0,0.0,0.0,0.0,0.0,0.0,0.0,0.0,0.0,0.0,0.0,0.0,0.0,0.0,0.0,0.0,0.0,0.0,0.0,0.0,0.0,1.1285,1.1305,1.1474,1.1642,1.1811,1.1553,1.1394,1.1271,0.0,0.0,0.0,0.0,0.0,0.0,1.1031,1.0978,1.0687,1.1274,1.1542,0.0,0.0,0.0,0.0,0.0,0.0,0.0,0.0,1.4242,0.0,0.0,0.0,1.4198,1.4595,1.4817,1.4944,1.49,1.4811,1.4697,0.0,0.0,0.0,0.0,0.0,0.0,0.0,0.0,0.0,0.0,0.0,0.0,0.0,0.0,2.1229,2.2003,2.2777,2.3501,2.4215,2.4223,2.4295,2.4718,2.4211,2.3557,2.2736,2.2492,2.2066,2.1317,2.1096,2.1026,2.1167,2.0255,1.9768,1.9768,2.0306,2.0578,2.0578,2.1811,2.2615,2.2979,2.2339,2.2004,2.18,2.1071,2.0216,1.9304,1.9577,1.8653,1.7159,1.7263,1.7318,1.7328,1.7101,1.702,1.6944,0.0,0.0,0.0,0.0,0.0,0.0,0.0,0.0,0.0,0.0,0.0,0.0,0.0,0.0,0.0,0.0,0.0,0.0,0.0,0.0,0.0,0.0,0.0,1.127,1.1297,1.0568,1.0701,1.1774,1.1468,1.1282,1.126,1.0276,0.0,0.0,0.0,0.0,0.0,0.0,1.0943,1.0878,1.0878,1.0943,1.1019,0.0,0.0,0.0,0.0,0.0,0.0,0.0,1.4301,1.4165,0.0,0.0,0.0,1.3189,1.3387,1.3762,1.3619,1.3575,1.3619,0.0,0.0,0.0,0.0,0.0,0.0,0.0,0.0,0.0,0.0,0.0,0.0,1.7605,1.8508,1.9323,1.9702,2.0797,2.1596,2.1596,2.224,2.273,2.2945,2.2298,2.1931,2.2184,2.1472,2.1054,2.1054,2.0277,1.9858,1.9858,1.8686,1.8057,1.8057,1.8379,1.8489,1.8499,1.9135,2.0707,2.2891,2.0978,2.042,2.106,2.0355,1.9437,1.8394,1.8566,1.8034,1.7057,1.74,1.7001,1.6123,1.6572,1.6527,1.6374,0.0,0.0,0.0,0.0,0.0,0.0,0.0,0.0,0.0,0.0,0.0,0.0,0.0,0.0,0.0,0.0,0.0,0.0,0.0,0.0,0.0,0.0,0.0,0.0,0.0,0.0,0.9781,1.0389,1.0764,1.0715,0.0,0.0,0.0,1.0312,0.0,0.0,0.0,0.0,1.0235,1.0166,1.039,1.0505,1.0572,0.0,0.0,0.0,0.0,0.0,0.0,0.0,0.0,0.0,0.0,0.0,0.0,1.301,1.3114,1.322,1.3176,1.3176,0.0,0.0,0.0,0.0,0.0,0.0,0.0,0.0,0.0,0.0,0.0,0.0,0.0,1.721,1.7511,1.8009,1.8846,1.9131,1.9473,1.9945,2.0044,2.01,2.0389,2.0111,1.9765,1.9338,1.9134,1.8803,1.8399,1.7861,1.7648,1.7794,1.7102,1.6751,1.6751,1.7387,1.7799,1.8046,1.7971,1.885,2.0543,1.9933,1.963,1.9508,1.8816,1.7996,1.7073,1.6718,1.6658,1.6899,1.6733,1.6645,1.6567,1.6415,1.6119,1.5819,0.0,0.0,0.0,0.0,0.0,0.0,0.0,0.0,0.0,0.0,0.0,0.0,0.0,0.0,0.0,0.0,0.0,0.0,0.0,0.0,0.0,0.0,0.0,0.0,0.0,0.92,0.9079,0.0,0.0,0.0,0.0,0.0,0.0,1.0205,0.0,1.0127,0.0,0.0,0.9862,0.9793,0.998,1.0088,1.0127,0.0,0.0,0.0,0.0,0.0,0.0,0.0,0.0,0.0,0.0,0.0,0.0,1.245,1.2304,1.2152,1.2152,0.0,0.0,0.0,0.0,0.0,0.0,0.0,0.0,0.0,0.0,0.0,0.0,0.0,0.0,1.5235,1.5213,1.5374,1.6042,1.6597,1.7129,1.7516,1.7965,1.8335,1.8475,1.8216,1.7835,1.7441,1.712,1.6797,1.6413,1.6193,1.5999,1.5858,1.5539,1.5274,1.5006,1.5432,1.5808,1.6057,1.5799,1.6113,1.7044,1.7805,1.8202,1.8197,1.752,1.6779,1.593,1.5619,1.5748,1.6116,1.5863,1.5937,1.6334,1.6185,1.5883,1.5586,0.0,0.0,0.0,0.0,0.0,0.0,0.0,0.0,0.0,0.0,0.0,0.0,0.0,0.0,0.0,0.0,0.0,0.0,0.0,0.0,0.0,0.0,0.0,0.0,0.0,0.0,0.0,0.0,0.0,0.0,0.0,0.0,1.0205,1.0079,0.0,1.001,0.0,0.9783,0.9753,0.9643,0.9643,0.9643,0.9634,0.9704,0.0,0.0,0.0,0.0,0.0,0.0,0.0,0.0,1.3194,1.2822,1.2403,1.1704,1.1233,1.0884,0.0,0.0,0.0,0.0,0.0,0.0,0.0,0.0,0.0,0.0,0.0,0.0,0.0,1.3018,1.2978,1.2477,1.2226,1.2157,1.2279,1.3587,1.4549,1.454,1.5846,1.6757,1.6828,1.623,1.5848,1.5987,1.5313,1.4971,1.4985,1.5015,1.4663,1.4049,1.4016,1.3729,1.3127,1.306,1.3142,1.3173,1.3142,1.3076,1.324,1.5053,1.6271,1.6842,1.6132,1.5396,1.479,1.4989,1.4944,1.4805,1.4861,1.506,1.5433,1.5733,1.5675,1.5454,0.0,0.0,0.0,0.0,0.0,0.0,0.0,0.0,0.0,0.0,0.0,0.0,0.0,0.0,0.0,0.0,0.0,0.0,0.0,0.0,0.0,0.0,0.0,0.0,0.0,0.0,0.0,0.0,0.0,0.0,0.0,0.0,0.0,1.0079,0.0,1.001,0.9783,0.9783,0.9545,0.9145,0.9145,0.9145,0.9145,0.9177,0.9496,0.0,0.0,0.0,0.0,0.0,0.0,0.0,1.2474,1.2206,1.1836,1.1565,1.1239,1.0904,0.0,1.0404,0.0,0.0,0.0,0.0,0.0,0.0,0.0,0.0,0.0,0.0,1.1647,1.1634,1.1587,1.1472,1.1414,1.1406,1.1464,1.17,1.1863,1.197,1.2084,1.2414,1.3178,1.2547,1.2621,1.3699,1.317,1.3036,1.3595,1.3355,1.3067,1.2938,1.2617,1.2422,1.2288,1.2288,1.2419,1.2737,1.2411,1.2426,1.2744,1.3483,1.3778,1.3603,1.3081,1.2886,1.2911,1.3084,1.3252,1.3369,1.3525,1.3711,1.3991,1.4459,1.4513,1.4435,0.0,0.0,0.0,0.0,0.0,0.0,0.0,0.0,0.0,0.0,0.0,0.0,0.0,0.0,0.0,0.0,0.0,0.0,0.0,0.0,0.0,0.0,0.0,0.0,0.0,0.0,0.0,0.0,0.0,0.0,0.0,0.0,0.0,1.0049,0.0,0.9971,0.9753,0.9585,0.9297,0.8975,0.8773,0.8643,0.8692,0.8895,0.929,0.9744,1.0049,0.0,0.0,0.0,0.0,0.0,0.0,0.0,1.1677,1.1536,1.0947,1.0365,0.0,0.0,0.0,0.0,0.0,0.0,0.0,0.0,0.0,0.0,0.0,0.0,1.0114,1.0336,1.04,0.9918,0.9841,0.9785,0.9639,0.9966,1.0226,1.0282,1.0526,1.0906,1.1359,1.1084,1.1172,1.1878,1.1606,1.1511,1.1864,1.1637,1.1358,1.1052,1.0984,1.0861,1.0492,1.0635,1.0785,1.0999,1.0715,1.0647,1.08,1.2067,1.2503,1.2319,1.2088,1.192,1.1867,1.1814,1.1992,1.215,1.2104,1.236,1.2804,1.2996,1.3172,1.3449,0.0,0.0,0.0,0.0,0.0,0.0,0.0,0.0,0.0,0.0,0.0,0.0,0.0,0.0,0.0,0.0,0.0,0.0,0.0,0.0,0.0,0.0,0.0,0.0,0.0,0.0,0.0,0.0,0.0,0.0,0.0,0.0,0.0,0.9734,0.0,0.0,0.9435,0.9257,0.9016,0.8732,0.8379,0.8286,0.8336,0.8774,0.919,0.9537,0.9647,0.9811,0.999,1.0308,0.0,0.0,0.0,0.0,1.159,1.1343,1.057,0.9698,0.0,0.0,0.0,0.0,0.0,0.0,0.0,0.0,0.0,0.0,0.0,0.9392,0.8722,0.9048,0.913,0.8373,0.8225,0.8141,0.7872,0.8565,0.9035,0.9035,0.9743,1.0235,1.0348,1.0235,1.0257,1.0421,1.0201,1.0058,1.0107,1.0043,0.969,0.9118,0.9471,0.9357,0.8821,0.9033,0.9139,0.9139,0.8949,0.8783,0.8717,1.0499,1.1348,1.1348,1.1348,1.1202,1.093,1.0629,1.0683,1.0957,1.056,1.0927,1.1578,1.1516,1.1866,1.2378,0.0,0.0,0.0,0.0,0.0,0.0,0.0,0.0,0.0,0.0,0.0,0.0,0.0,0.0,0.0,0.0,0.0,0.0,0.0,0.0,0.0,0.0,0.0,0.0,0.0,0.0,0.0,0.0,0.0,0.0,0.0,0.0,0.0,0.8724,0.0,0.0,0.0,0.8895,0.8602,0.787,0.8047,0.8121,0.8151,0.8527,0.8883,0.9281,0.9271,0.9067,0.8972,1.0106,1.0335,0.0,0.0,0.0,1.124,1.0562,1.0014,0.9593,0.0,0.0,0.0,0.0,0.0,0.0,0.0,0.0,0.0,0.0,0.7578,0.7781,0.7672,0.7726,0.7769,0.7632,0.7728,0.7764,0.7729,0.7919,0.811,0.811,0.8195,0.8476,0.8998,0.8463,0.8402,0.9196,0.8608,0.8372,0.8598,0.8604,0.8545,0.8434,0.8469,0.8486,0.8368,0.8402,0.842,0.842,0.842,0.8402,0.8374,0.8634,0.8765,0.8765,0.8765,0.8877,0.8977,0.8759,0.889,0.9199,0.9057,0.9325,0.9894,1.0332,1.0793,1.1254,0.0,0.0,0.0,0.0,0.0,0.0,0.0,0.0,0.0,0.0,0.0,0.0,0.0,0.0,0.0,0.0,0.0,0.0,0.0,0.0,0.0,0.9016,0.8349,0.7889,0.0,0.0,0.0,0.0,0.0,0.0,0.0,0.7572,0.7987,0.0,0.0,0.0,0.0,0.0,0.8054,0.769,0.7546,0.7376,0.7321,0.8032,0.849,0.8731,0.8998,0.9064,0.9089,0.9332,0.9498,0.9589,0.9944,0.0,0.0,0.0,0.9394,0.0,0.0,0.0,0.0,0.0,0.0,0.0,0.0,0.0,0.0,0.0,0.6996,0.7087,0.7224,0.7359,0.7365,0.7365,0.7521,0.7568,0.7568,0.7628,0.7681,0.7681,0.7681,0.7788,0.8043,0.7783,0.7722,0.816,0.7796,0.7627,0.7734,0.7678,0.7616,0.7616,0.7869,0.7942,0.7942,0.8136,0.8145,0.8027,0.8027,0.796,0.7769,0.7654,0.7841,0.8316,0.8316,0.8322,0.8445,0.8322,0.8385,0.8549,0.8494,0.8711,0.9062,0.9307,0.958,0.9958,0.0,0.0,0.0,0.0,0.0,0.0,0.0,0.0,0.0,0.0,0.0,0.0,0.0,0.0,0.0,0.0,0.0,0.0,0.0,0.0,0.0,0.8683,0.7931,0.7467,0.7342,0.0,0.0,0.0,0.0,0.0,0.6852,0.6823,0.728,0.0,0.8144,0.0,0.0,0.0,0.0,0.7588,0.7047,0.6809,0.6902,0.765,0.8003,0.8142,0.8619,0.8826,0.8908,0.8731,0.8857,0.904,0.904,0.9226,0.0,0.0,0.0,0.0,0.0,0.0,0.0,0.0,0.0,0.0,0.0,0.0,0.0,0.0,0.6492,0.6452,0.668,0.6993,0.7203,0.7149,0.7306,0.7413,0.7359,0.7413,0.7521,0.7521,0.7354,0.7246,0.7246,0.7079,0.6966,0.6966,0.681,0.6761,0.6761,0.6593,0.6539,0.6539,0.692,0.7181,0.7181,0.7464,0.7554,0.7386,0.7386,0.7234,0.6956,0.6731,0.6929,0.7423,0.7538,0.7717,0.7896,0.7775,0.791,0.8139,0.8077,0.8246,0.8522,0.8521,0.8652,0.8856,0.0,0.0,0.0,0.0,0.0,0.0,0.0,0.0,0.0,0.0,0.0,0.0,0.0,0.0,0.0,0.9683,0.9683,0.9515,0.9056,0.8602,0.8144,0.7765,0.7308,0.0,0.6374,0.0,0.0,0.0,0.0,0.0,0.652,0.6002,0.6087,0.6647,0.7056,0.7182,0.7021,0.0,0.0,0.0,0.6656,0.6786,0.7466,0.0,0.0,0.0,0.0,0.7918,0.7753,0.8693,0.8848,0.8607,0.8607,0.8337,0.786,0.0,0.0,0.0,0.0,0.0,0.0,0.0,0.0,0.0,0.0,0.0,0.0,0.0,0.5951,0.5611,0.5663,0.6448,0.7031,0.6756,0.7036,0.7209,0.6987,0.7252,0.7521,0.7521,0.6972,0.6642,0.6642,0.6036,0.5597,0.5597,0.5378,0.5218,0.5218,0.5113,0.5007,0.5007,0.5449,0.5723,0.5723,0.6123,0.6296,0.6296,0.6296,0.6069,0.5668,0.5673,0.5458,0.5089,0.5521,0.6123,0.6737,0.6287,0.6808,0.7774,0.7553,0.7693,0.8067,0.8078,0.8204,0.8291,0.0,0.0,0.0,0.0,0.0,0.0,0.0,0.0,0.0,0.0,0.0,0.0,0.0,0.0,0.9594,0.9266,0.8975,0.8732,0.857,0.8144,0.7716,0.7287,0.6797,0.6337,0.591,0.591,0.0,0.0,0.0,0.5782,0.6002,0.5782,0.5782,0.6002,0.6167,0.6337,0.655,0.6368,0.0,0.0,0.6696,0.6573,0.6707,0.0,0.0,0.0,0.0,0.0,0.7784,0.8088,0.7945,0.7599,0.7422,0.7008,0.6498,0.6093,0.0,0.0,0.0,0.0,0.0,0.0,0.0,0.0,0.0,0.0,0.0,0.5555,0.5146,0.4818,0.4956,0.5246,0.5531,0.5517,0.5618,0.5686,0.5647,0.5719,0.5828,0.5828,0.5664,0.55,0.55,0.5277,0.5113,0.5113,0.5003,0.4948,0.4948,0.4952,0.4897,0.4897,0.5062,0.5167,0.5167,0.5277,0.5391,0.5391,0.5391,0.5281,0.5167,0.4952,0.4787,0.4625,0.4346,0.4732,0.5555,0.5386,0.5575,0.5919,0.5849,0.6155,0.6693,0.6804,0.7325,0.7913,0.0,0.0,0.0,0.0,0.0,0.0,0.0,0.0,0.0,0.0,0.0,0.0,0.0,0.0,0.9266,0.8814,0.848,0.8234,0.8103,0.7716,0.7252,0.6784,0.6192,0.5685,0.526,0.526,0.0,0.0,0.0,0.0,0.0,0.5308,0.5308,0.5437,0.5308,0.5561,0.0,0.0,0.0,0.6828,0.0,0.6311,0.6541,0.0,0.0,0.0,0.0,0.0,0.0,0.0,0.6872,0.6608,0.6339,0.0,0.0,0.0,0.0,0.0,0.0,0.0,0.0,0.0,0.0,0.0,0.0,0.0,0.4697,0.4735,0.4302,0.3983,0.4097,0.3938,0.4007,0.4572,0.4741,0.4793,0.4692,0.4809,0.4897,0.4897,0.4732,0.4618,0.4618,0.4398,0.4291,0.4291,0.4239,0.0,0.4239,0.4181,0.4236,0.4405,0.4405,0.446,0.457,0.457,0.457,0.457,0.457,0.4515,0.4405,0.4187,0.4021,0.3855,0.3244,0.3685,0.4736,0.457,0.4709,0.4971,0.4919,0.5166,0.555,0.5723,0.6155,0.6773,0.0,0.0,0.0,0.0,0.0,0.0,0.0,0.0,0.0,0.0,0.0,0.0,0.0,0.0,0.0,0.8275,0.8234,0.8062,0.7675,0.7203,0.6742,0.6289,0.5508,0.486,0.4387,0.4347,0.0,0.0,0.0,0.0,0.0,0.0,0.4535,0.4961,0.4487,0.4792,0.561,0.0,0.5489,0.6541,0.0,0.6013,0.7052,0.0,0.0,0.0,0.6683,0.6583,0.0,0.5975,0.0,0.0,0.0,0.0,0.0,0.0,0.0,0.0,0.0,0.0,0.0,0.0,0.0,0.0,0.0,0.0,0.4092,0.4045,0.3473,0.2982,0.3105,0.2621,0.2575,0.3899,0.4426,0.4588,0.4278,0.4567,0.4831,0.4831,0.4326,0.3941,0.3941,0.345,0.3067,0.3067,0.2963,0.291,0.2907,0.2742,0.291,0.3352,0.3355,0.358,0.3968,0.3913,0.3968,0.3968,0.3968,0.3747,0.3357,0.3357,0.3135,0.2635,0.2352,0.3016,0.4405,0.3962,0.4316,0.5113,0.4905,0.4826,0.4768,0.4849,0.4836,0.4879,0.0,0.0,0.0,0.0,0.0,0.0,0.0,0.0,0.0,0.0,0.0,0.0,0.0,0.0,0.0,0.6897,0.6579,0.6374,0.6246,0.6118,0.5862,0.5394,0.4865,0.4299,0.3686,0.3426,0.0,0.0,0.0,0.0,0.0,0.0,0.0,0.0,0.4056,0.414,0.4403,0.4792,0.0,0.0,0.5647,0.5922,0.0,0.0,0.0,0.0,0.0,0.6005,0.5779,0.0,0.5529,0.5327,0.0,0.0,0.0,0.0,0.0,0.0,0.3381,0.0,0.0,0.0,0.0,0.0,0.0,0.0,0.0,0.3341,0.2588,0.1975,0.1907,0.1488,0.1217,0.1609,0.2433,0.2867,0.2488,0.2829,0.3108,0.3108,0.2953,0.285,0.285,0.2697,0.2594,0.0,0.266,0.2617,0.2549,0.2609,0.2591,0.2479,0.2487,0.2573,0.2685,0.2516,0.2629,0.3079,0.2798,0.2629,0.2519,0.28,0.2575,0.2071,0.2183,0.235,0.2569,0.2627,0.2923,0.3396,0.3312,0.3485,0.3801,0.3909,0.4361,0.492,0.0,0.0,0.0,0.0,0.0,0.0,0.0,0.0,0.0,0.0,0.0,0.0,0.0,0.0,0.0,0.5839,0.5728,0.5696,0.5615,0.5346,0.5043,0.4739,0.4041,0.347,0.294,0.2765,0.0,0.0,0.0,0.0,0.0,0.0,0.0,0.0,0.0,0.0,0.0,0.0,0.0,0.0,0.5255,0.0,0.0,0.5695,0.5566,0.0,0.0,0.0,0.5146,0.4604,0.4313,0.0,0.0,0.0,0.0,0.0,0.0,0.0,0.0,0.0,0.0,0.0,0.0,0.0,0.326,0.2898,0.2593,0.0,0.1969,0.1164,0.094,0.0805,0.0626,0.0447,0.1095,0.1551,0.1369,0.1645,0.1813,0.1813,0.1813,0.1913,0.2112,0.2114,0.2164,0.2367,0.2415,0.232,0.212,0.2193,0.213,0.1916,0.198,0.2015,0.2015,0.1902,0.1959,0.2296,0.2127,0.2015,0.2015,0.224,0.2127,0.179,0.1793,0.1793,0.179,0.1793,0.2074,0.2465,0.2465,0.2745,0.3142,0.3201,0.3548,0.3977,0.0,0.0,0.0,0.0,0.0,0.0,0.0,0.0,0.0,0.0,0.0,0.0,0.0,0.0,0.0,0.0,0.5168,0.5313,0.5217,0.4552,0.416,0.4135,0.3149,0.2476,0.2294,0.215,0.201,0.0,0.0,0.0,0.0,0.0,0.0,0.0,0.0,0.0,0.0,0.0,0.0,0.4571,0.4615,0.503,0.0,0.0,0.5267,0.5452,0.4798,0.4562,0.4405,0.3197,0.2682,0.0,0.0,0.0,0.0,0.0,0.3294,0.0,0.0,0.0,0.0,0.0,0.0,0.0,0.2845,0.2169,0.1668,0.0,0.1389,0.0537,0.0224,0.0358,0.0403,-0.0,0.0268,0.0589,0.0753,0.0877,0.0946,0.0946,0.0946,0.1144,0.1539,0.1638,0.1788,0.2188,0.2038,0.1894,0.1705,0.1715,0.1696,0.1643,0.1703,0.1734,0.1734,0.1729,0.1728,0.179,0.1783,0.1729,0.1734,0.179,0.179,0.1679,0.1401,0.1457,0.168,0.1402,0.1625,0.2183,0.2183,0.2352,0.2635,0.2635,0.2697,0.2717,0.0,0.0,0.0,0.0,0.0,0.0,0.0,0.0,0.0,0.0,0.0,0.0,0.0,0.0,0.0,0.0,0.0,0.32,0.3404,0.3083,0.2986,0.3234,0.2384,0.1971,0.2113,0.1136,0.0716,0.0,0.0,0.0,0.0,0.0,0.0,0.0,0.0,0.0,0.0,0.0,0.0,0.385,0.4047,0.0,0.5513,0.4854,0.4351,0.4006,0.3887,0.3308,0.2554,0.2113,0.2035,0.2173,0.0,0.0,0.0,0.0,0.0,0.0,0.0,0.0,0.0,0.0,0.0,0.0,0.1426,0.1109,0.0932,0.0,0.0582,0.0134,0.0045,-0.0224,-0.0449,-0.0539,-0.0494,-0.027,0.0136,0.0501,0.0779,0.0779,0.0779,0.0779,0.0871,0.1238,0.1284,0.0917,0.1054,0.1257,0.1588,0.1599,0.153,0.1325,0.1358,0.1402,0.1402,0.1199,0.1308,0.1789,0.1525,0.142,0.1402,0.168,0.1512,0.1065,0.1234,0.1234,0.1065,0.1009,0.1345,0.1902,0.1902,0.2071,0.2296,0.2296,0.2507,0.2687,0.0,0.0,0.0,0.0,0.0,0.0,0.0,0.0,0.0,0.0,0.0,0.0,0.0,0.0,0.0,0.0,0.0,0.0,0.0,0.0,0.1868,0.1905,0.1431,0.1125,0.1076,0.0672,0.0424,0.0,0.0,0.0,0.0,0.0,0.0,0.0,0.0,0.0,0.0,0.0,0.3491,0.3599,0.3498,0.0,0.4485,0.3612,0.3269,0.3208,0.2943,0.2366,0.1749,0.1698,0.1566,0.0,0.0,0.1479,0.1815,0.0,0.2131,0.2072,0.0,0.0,0.0,0.1827,0.0,0.0,0.0,0.019,-0.0378,-0.0834,-0.1198,-0.1427,-0.1568,-0.1587,-0.1566,-0.1523,-0.13,-0.1032,-0.076,-0.0313,-0.0,-0.0,-0.0,0.009,0.0313,0.0582,0.0626,0.0358,0.0582,0.0768,0.0878,0.1106,0.1139,0.1008,0.1064,0.1094,0.1094,0.0968,0.0913,0.0982,0.0805,0.0759,0.0729,0.0728,0.0672,0.0561,0.0505,0.0393,0.0224,0.0224,0.0448,0.0728,0.112,0.1399,0.1679,0.1846,0.1753,0.1606,0.0,0.0,0.0,0.0,0.0,0.0,0.0,0.0,0.0,0.0,0.0,0.0,0.0,0.0,0.0,0.0,0.0,0.0,0.0,0.0,0.0,0.0737,0.0452,0.0251,0.0098,0.0199,0.0149,0.0,0.0,0.0,0.0,0.0,0.0,0.0,0.0,0.0,0.0,0.0,0.0,0.3199,0.0,0.2932,0.3297,0.2449,0.235,0.2573,0.2016,0.1566,0.1308,0.1459,0.1217,0.0797,0.0736,0.0775,0.0,0.0,0.0,0.0,0.0,0.0,0.0,0.0,0.0,0.0051,0.0,0.0,0.0,-0.2364,-0.2586,0.0,0.0,0.0,0.0,0.0,0.0,0.0,0.0,-0.1116,0.0,-0.0764,-0.0719,-0.0584,-0.0224,-0.0179,-0.0089,0.0219,0.0222,0.0179,0.0089,0.0465,0.0678,0.0598,0.0776,0.0843,0.079,0.0838,0.063,0.0213,0.0212,0.0162,0.0056,-0.0224,-0.0224,0.0056,-0.028,-0.0393,-0.0393,-0.0393,-0.0393,-0.0336,0.028,0.0672,0.0951,0.123,0.095,0.0503,0.055,0.101,0.0,0.0,0.0,0.0,0.0,0.0,0.0,0.0,0.0,0.0,0.0,0.0,0.0,0.0,0.0,0.0,0.0349,0.0,0.0,0.0453,-0.0301,-0.0398,0.0344,-0.0621,-0.1006,0.0,0.0,0.0,0.0,0.0,0.0,0.0,0.0584,0.0,0.0,0.0,0.2366,0.0,0.1679,0.2011,0.0,0.2344,0.2031,0.1742,0.1092,0.0809,0.0814,0.0,0.0815,0.0729,0.0,0.0778,0.0775,0.0988,0.0,0.0,0.0,0.0,0.0,0.0,-0.0325,0.0,0.0,0.0,-0.2258,-0.2195,0.0,0.0,0.0,0.0,0.0,0.0,0.0,0.0,-0.1864,-0.1659,-0.1345,-0.0944,-0.09,-0.0855,-0.0809,-0.0896,-0.0607,0.0241,-0.0343,-0.0617,-0.0255,0.0091,0.0143,-0.0144,0.0448,0.066,0.0355,0.064,0.06,0.0213,0.0155,-0.0053,-0.0336,-0.0393,-0.0393,-0.0336,-0.0393,-0.0393,-0.0393,-0.0393,-0.0393,-0.0393,-0.028,-0.0112,0.0168,0.028,0.0392,0.0391,0.0,0.0,0.0,0.0,0.0,0.0,0.0,0.0,0.0,0.0,0.0,0.0,0.0,0.0,0.0,0.0,0.0,-0.0883,0.0,0.0,0.0,0.0,-0.1498,-0.1387,-0.0753,-0.0997,-0.1276,-0.1665,-0.1569,0.0,0.0,0.0,0.0,0.0,-0.0504,0.0,0.096,0.0,0.2101,0.0,0.0,0.0,0.0,0.1083,0.1105,0.0781,0.0497,0.0269,0.0045,0.0,0.0097,0.0,0.0,0.0,0.0,0.0,0.0,0.0,0.0,0.0,0.0,0.0,0.0,0.0,-0.2261,0.0,-0.3034,0.0,0.0,0.0,0.0,0.0,0.0,0.0,-0.3087,0.0,0.0,0.0,-0.1921,0.0,0.0,0.0,-0.0956,-0.1082,-0.0969,-0.0553,-0.071,-0.0772,-0.059,-0.0262,-0.0136,-0.0285,-0.0,0.0099,-0.0101,0.0049,-0.0098,-0.0568,-0.0559,-0.0673,-0.0763,-0.1056,-0.1066,-0.0842,-0.1066,-0.1234,-0.1234,-0.1234,-0.1234,-0.1234,-0.1234,-0.0954,-0.0617,-0.0392,-0.056,-0.084,0.0,0.0,0.0,0.0,0.0,0.0,0.0,0.0,0.0,0.0,0.0,0.0,-0.0906,-0.092,0.0,0.0,-0.1474,-0.1815,0.0,0.0,-0.264,0.0,0.0,0.0,0.0,-0.1315,-0.1607,-0.2483,0.0,0.0,0.0,0.0,0.0,0.0,0.0,-0.0643,-0.0278,0.0,0.0,0.2785,0.1257,-0.0098,-0.1121,-0.0094,0.0183,0.0045,0.0045,-0.0136,-0.0406,-0.038,-0.0493,0.0,-0.062,0.0,0.0,0.0,0.0,0.0,-0.3263,0.0,0.0,0.0,0.0,0.0,0.0,0.0,0.0,0.0,0.0,0.0,0.0,0.0,0.0,0.0,0.0,-0.3679,0.0,-0.3011,0.0,0.0,0.0,0.0,0.0,-0.1235,-0.1167,-0.1085,-0.0978,-0.0921,-0.0952,-0.0628,-0.0479,-0.0607,-0.0421,-0.038,-0.0537,-0.038,-0.0576,-0.1109,-0.1109,-0.1138,-0.1244,-0.161,-0.1628,-0.1347,-0.185,-0.2074,-0.2074,-0.2074,-0.2074,-0.2018,-0.1853,-0.1572,-0.129,-0.1008,-0.1289,-0.1685,-0.4872,-0.3618,0.0,0.0,0.0,0.0,0.0,0.0,0.0,0.0,0.0,0.0,0.0,0.0,0.0,0.0,0.0,-0.2465,-0.2778,0.0,-0.2768,0.0,0.0,-0.2427,0.0,0.0,-0.2076,-0.2687,0.0,0.0,0.0,0.0,0.0,0.0,0.0,-0.078,-0.1935,-0.025,0.1375,0.267,-0.018,-0.1078,-0.0725,0.0,-0.0575,-0.036,-0.0375,0.0,0.0,-0.0392,-0.0655,0.0,0.0,0.0,0.0,0.0,0.0,0.0,0.0,0.0,0.0,-0.354,0.0,0.0,0.0,0.0,-0.4713,0.0,0.0,0.0,0.0,0.0,0.0,0.0,0.0,0.0,0.0,0.0,0.0,0.0,0.0,0.0,0.0,-0.1527,-0.1231,-0.1035,-0.1197,-0.1278,-0.1264,-0.0946,-0.0946,-0.1345,-0.0717,-0.0538,-0.0899,-0.0538,-0.0654,-0.1109,-0.1109,-0.1363,-0.1794,-0.1797,-0.1797,-0.1797,-0.2404,-0.2681,-0.2681,-0.2681,-0.2681,-0.2625,-0.2018,-0.1797,-0.1741,-0.1628,-0.1685,-0.1741,0.0,0.0,0.0,0.0,0.0,0.0,0.0,-0.1909,0.0,0.0,0.0,0.0,0.0,-0.3022,-0.3163,0.0,0.0,-0.384,-0.3861,-0.4191,0.0,0.0,0.0,-0.3332,0.0,0.0,0.0,0.0,0.0,0.0,0.0,0.0,0.0,0.0,0.0,-0.1978,0.0,0.0,0.0,0.0,0.0,-0.2007,-0.1864,0.0,-0.0733,-0.0762,-0.091,-0.1042,0.0,-0.1377,-0.1413,-0.1431,-0.1483,-0.2074,-0.2747,-0.3086,-0.297,0.0,0.0,0.0,-0.3805,-0.4252,0.0,0.0,0.0,0.0,0.0,0.0,0.0,0.0,0.0,0.0,0.0,0.0,0.0,0.0,0.0,0.0,0.0,0.0,0.0,0.0,0.0,0.0,0.0,-0.1652,-0.1422,-0.1296,-0.1313,-0.1208,-0.12,-0.1386,-0.1242,-0.1182,-0.1213,-0.1087,-0.1261,-0.1775,-0.1783,-0.2067,-0.2599,-0.2658,-0.2745,-0.2856,-0.3077,-0.3239,-0.3292,-0.3292,-0.3292,-0.3292,-0.3072,-0.3019,-0.2963,-0.2516,-0.235,-0.2406,-1.3962,0.0,0.0,0.0,0.0,0.0,0.0,0.0,0.0,0.0,-0.2676,0.0,-0.4005,0.0,-0.4072,0.0,-0.4799,-0.4776,-0.4663,-0.4954,0.0,-0.3976,-0.412,0.0,0.0,0.0,0.0,0.0,0.0,-0.3259,0.0,0.0,0.0,0.0,0.0,0.0,-0.1947,0.0,-0.1818,0.0,0.0,-0.224,0.0,0.0,-0.1354,-0.142,0.0,-0.1623,-0.1624,-0.1957,-0.1853,-0.1665,-0.1766,-0.2132,-0.2577,-0.2914,-0.3109,-0.3359,-0.4073,-0.4066,0.0,-0.4494,-0.4641,0.0,-0.4944,0.0,-0.5832,0.0,0.0,0.0,0.0,0.0,0.0,0.0,0.0,0.0,0.0,-0.4709,0.0,0.0,0.0,0.0,0.0,0.0,-0.2233,-0.2004,-0.1911,-0.1749,0.0,-0.1591,-0.1625,-0.1654,-0.1771,-0.1877,-0.1924,-0.1952,-0.2103,-0.2442,-0.2439,-0.2613,-0.303,-0.3099,-0.3188,-0.3413,-0.3577,-0.3796,-0.3904,-0.3904,-0.3904,-0.3904,-0.3683,-0.3624,-0.3572,-0.3181,-0.2903,-0.2681,0.0,0.0,0.0,0.0,-0.562,0.0,0.0,0.0,-0.3018,0.0,-0.3529,-0.3837,-0.4914,-0.4845,-0.4969,-0.554,-0.5478,-0.5262,-0.5066,-0.513,0.0,0.0,-0.4025,-0.3651,-0.3372,0.0,0.0,0.0,0.0,0.0,0.0,0.0,0.0,0.0,-0.2811,0.0,-0.2427,-0.1262,-0.1305,-0.2117,-0.1975,-0.1885,-0.1932,-0.2373,-0.2479,-0.2386,-0.2374,-0.2207,-0.1929,-0.2125,-0.1964,-0.1713,-0.1832,-0.2018,-0.235,-0.2963,-0.3224,-0.3486,-0.4313,-0.4204,-0.4056,-0.4446,-0.4409,0.0,0.0,0.0,-0.6136,0.0,0.0,0.0,0.0,0.0,0.0,0.0,0.0,0.0,0.0,0.0,0.0,0.0,0.0,0.0,0.0,-0.291,-0.2711,-0.2107,-0.2536,-0.2592,0.0,-0.214,-0.2139,-0.2142,-0.233,-0.2571,-0.29,-0.3115,-0.3133,-0.3033,-0.3028,-0.3081,-0.3186,-0.3186,-0.3299,-0.3524,-0.4015,-0.4346,-0.4519,-0.4519,-0.4519,-0.4463,-0.3904,-0.3683,-0.3683,-0.368,-0.3292,-0.2792,-1.7597,-1.5512,-1.2585,0.0,-0.5589,-0.4223,0.0,0.0,0.0,0.0,-0.4364,-0.4587,-0.5495,-0.5512,-0.552,-0.575,-0.6042,0.0,0.0,0.0,0.0,-0.4442,-0.5022,-0.496,-0.4206,-0.4584,0.0,-0.3492,0.0,0.0,-0.3021,0.0,0.0,0.0,0.0,0.0,-0.2327,-0.227,-0.2315,-0.2375,-0.2154,-0.2372,-0.2846,0.0,-0.3075,-0.3407,-0.274,-0.2386,-0.2253,-0.2116,-0.1843,-0.1708,-0.2305,-0.2571,-0.285,-0.3463,-0.3553,-0.3698,-0.4453,-0.4518,-0.4527,-0.5156,-0.5263,-0.5249,0.0,0.0,0.0,0.0,0.0,0.0,0.0,0.0,0.0,0.0,0.0,0.0,0.0,0.0,0.0,-0.5129,0.0,0.0,-0.3944,-0.3567,-0.3285,-0.319,-0.2959,-0.2755,-0.2715,0.0,-0.269,-0.2674,-0.2871,-0.2973,-0.2973,-0.3085,-0.3303,-0.358,-0.3436,-0.3616,-0.4128,-0.4128,-0.4294,-0.4515,-0.4677,-0.4849,-0.5077,-0.5077,-0.5077,-0.5077,-0.4908,-0.4853,-0.4798,-0.4405,-0.4184,-0.4015,-2.0064,0.0,0.0,-1.1578,0.0,0.0,-0.6139,-0.539,0.0,-0.5631,-0.541,0.0,-0.6179,-0.6211,-0.6171,-0.6105,-0.6415,0.0,-0.5197,0.0,0.0,-0.4974,-0.5341,-0.531,-0.478,-0.517,0.0,-0.4025,0.0,0.0,-0.3297,0.0,0.0,0.0,0.0,-0.2611,0.0,-0.2494,-0.2539,-0.2571,-0.2478,-0.272,0.0,-0.3155,-0.3481,-0.3775,-0.317,-0.289,-0.278,-0.2787,-0.2581,-0.2391,-0.2808,-0.3007,-0.3234,-0.3889,-0.3935,-0.3921,-0.4761,-0.48,-0.4809,-0.5526,-0.5609,-0.5563,-0.5925,-0.6423,-0.6895,0.0,-0.8012,-0.8577,0.0,0.0,0.0,0.0,0.0,0.0,0.0,0.0,0.0,0.0,-0.5345,0.0,-0.4966,-0.4303,-0.3786,-0.3638,-0.3535,-0.3387,-0.3249,0.0,-0.3236,-0.3297,-0.3504,-0.3689,-0.385,-0.394,-0.4053,-0.4187,-0.4104,-0.4216,-0.4574,-0.4519,-0.468,-0.4956,-0.4901,-0.5069,-0.5297,-0.5297,-0.5297,-0.5297,-0.5297,-0.5297,-0.5242,-0.4963,-0.4684,-0.4519,0.0,0.0,0.0,0.0,0.0,0.0,0.0,-0.7253,0.0,-0.7279,0.0,-0.6812,-0.6914,-0.6899,-0.6763,-0.6606,0.0,-0.6659,-0.6121,-0.6002,-0.5848,-0.5687,-0.5465,-0.532,-0.532,-0.5434,-0.5164,0.0,0.0,0.0,0.0,0.0,0.0,0.0,0.0,0.0,0.0,-0.2303,-0.2416,-0.2775,-0.2853,-0.2943,-0.3031,-0.3429,-0.3736,-0.3887,-0.3767,-0.3589,-0.3405,-0.3634,-0.3505,-0.3253,-0.339,-0.3451,-0.3629,-0.4392,-0.4456,-0.4397,-0.5202,-0.5203,-0.5093,-0.5747,-0.5741,-0.5785,-0.6358,-0.671,-0.7071,-0.7659,-0.8024,-0.8426,0.0,0.0,0.0,0.0,0.0,0.0,0.0,0.0,0.0,0.0,0.0,0.0,-0.5918,-0.498,-0.425,-0.3924,-0.4183,-0.4188,-0.3832,0.0,-0.3788,-0.3882,-0.4098,-0.4455,-0.4916,-0.5039,-0.4963,-0.4746,-0.4691,-0.4691,-0.4743,-0.4574,-0.4739,-0.5069,-0.4956,-0.5069,-0.5297,-0.5297,-0.5297,-0.5297,-0.5297,-0.5297,-0.5297,-0.5297,-0.5018,-0.4629,0.0,0.0,0.0,0.0,0.0,-1.7718,-1.4526,-1.3441,-1.2435,-1.0777,-1.0322,-0.9365,-0.7372,-0.7127,-0.7115,-0.7066,-0.7103,0.0,0.0,0.0,0.0,-0.6024,-0.6305,-0.6507,-0.6507,-0.628,-0.5988,0.0,0.0,0.0,0.0,0.0,0.0,0.0,0.0,0.0,-0.264,-0.2325,0.0,-0.3114,-0.2954,-0.3164,-0.3565,-0.3605,-0.3939,-0.4386,-0.4492,-0.4183,-0.3657,-0.3226,-0.3,-0.3083,-0.3794,-0.4278,-0.4644,-0.5257,-0.5578,-0.5807,-0.5872,-0.5844,-0.5883,-0.636,-0.6347,-0.6368,-0.6773,-0.7226,-0.7647,-0.8099,-0.8697,-0.9297,-0.9577,0.0,0.0,0.0,0.0,0.0,0.0,0.0,0.0,0.0,0.0,-0.6551,0.0,-0.5546,-0.4904,-0.4995,-0.4691,-0.4412,0.0,0.0,-0.4457,0.0,-0.4711,0.0,0.0,0.0,-0.5073,-0.5018,-0.4798,-0.4743,-0.4846,-0.4739,-0.4798,-0.5124,-0.5069,-0.5128,-0.5297,-0.5297,-0.5297,-0.5297,-0.5297,-0.5297,-0.5297,-0.5297,-0.5242,-0.5187,0.0,0.0,0.0,0.0,0.0,0.0,0.0,-1.9435,-1.7357,-1.2275,-1.2547,-1.1758,-0.7882,-0.8609,-0.8789,-0.7389,-0.7328,-0.7194,-0.6695,-0.6871,-0.6918,-0.6684,-0.8265,-0.9176,-0.9176,-1.0043,-0.9895,-0.8667,0.0,0.0,0.0,0.0,0.0,0.0,0.0,-0.3474,0.0,0.0,0.0,-0.4264,-0.4307,-0.4675,-0.5139,-0.4819,-0.4809,-0.492,-0.4697,-0.4525,-0.4455,-0.4264,-0.4198,-0.4334,-0.5084,-0.5471,-0.5714,-0.6253,-0.6447,-0.6509,-0.6581,-0.6581,-0.6632,-0.6979,-0.7041,-0.7049,-0.7394,-0.7647,-0.7931,-0.838,-0.865,-0.8927,-0.9199,-0.9336,0.0,0.0,0.0,0.0,0.0,0.0,0.0,0.0,0.0,0.0,0.0,0.0,0.0,0.0,0.0,0.0,0.0,0.0,-0.4761,0.0,0.0,0.0,-0.5492,0.0,-0.5614,-0.5563,-0.5773,-0.5555,-0.5014,-0.5504,-0.5668,-0.5668,-0.5937,-0.6105,-0.6218,-0.6322,-0.6105,-0.5782,-0.5832,-0.5618,-0.5297,-0.5297,-0.5297,-0.5297,0.0,-2.3383,0.0,0.0,-2.3476,-2.3471,-2.3517,-2.3539,-2.1111,-1.4335,-1.5082,-1.4466,-0.9903,-1.1126,-1.1207,-0.8474,-0.8414,-0.8375,-0.8112,-0.8148,-0.8155,-0.809,-1.0877,-1.1825,-1.0626,-1.3152,-1.3412,0.0,0.0,0.0,0.0,0.0,0.0,0.0,0.0,0.0,0.0,0.0,-0.486,-0.5438,-0.5736,-0.6116,-0.6449,-0.6024,-0.6001,-0.6093,-0.5216,-0.534,-0.592,-0.5715,-0.5566,-0.5606,-0.6165,-0.6422,-0.664,-0.6976,-0.7143,-0.7161,-0.7263,-0.725,-0.7315,-0.7575,-0.7639,-0.7754,-0.8003,-0.8068,-0.8183,-0.8612,-0.8567,-0.856,-0.8848,-0.9292,0.0,0.0,0.0,0.0,0.0,0.0,0.0,0.0,0.0,0.0,-0.7621,0.0,0.0,0.0,0.0,0.0,-0.5427,0.0,0.0,0.0,0.0,-0.5497,-0.6181,0.0,-0.6322,-0.6218,-0.6696,-0.6426,-0.5563,-0.6317,-0.6588,-0.6426,-0.6804,-0.702,-0.7133,-0.7289,-0.6961,-0.6421,-0.6416,-0.6046,-0.5458,-0.5352,-0.5297,-0.5297,0.0,0.0,0.0,0.0,0.0,-2.3289,-2.3241,-2.3499,-2.2527,-1.9294,-1.9052,-1.8108,-1.5262,-1.5159,-1.4233,-1.1618,-1.1402,-1.1294,-1.1022,-1.1239,-1.125,-1.1011,-1.3999,-1.3249,-0.8063,-1.2439,-1.3598,0.0,0.0,-1.0179,0.0,0.0,0.0,0.0,0.0,0.0,0.0,-0.5371,-0.5719,-0.6218,-0.6218,-0.6358,-0.6492,-0.6449,-0.7476,-0.8702,-0.6809,-0.7273,-0.856,-0.6928,-0.6128,-0.5821,-0.6056,-0.6567,-0.711,-0.711,-0.7629,-0.8167,-0.7882,-0.7817,-0.7869,-0.7985,-0.8206,-0.8329,-0.8495,-0.8613,-0.8783,-0.8915,-0.9044,-0.9179,-0.9459,-0.954,-0.971,0.0,0.0,0.0,0.0,0.0,-0.9088,-0.8635,0.0,0.0,0.0,-0.8762,0.0,0.0,-0.7058,0.0,0.0,0.0,0.0,-0.6374,-0.6312,-0.6543,-0.7149,-0.7069,-0.7031,-0.6977,-0.6912,-0.6912,-0.6923,-0.6858,-0.6912,-0.7031,-0.7085,-0.7133,-0.7289,-0.7444,-0.7391,-0.7128,-0.6632,-0.6308,-0.6046,-0.5513,-0.5297,-0.5297,0.0,0.0,0.0,0.0,0.0,0.0,0.0,-2.3336,-2.3133,-2.202,-2.1962,-2.0422,-1.6278,-1.7186,-1.7066,-1.4489,-1.4265,-1.4201,-1.4038,-1.4162,-1.4233,-1.4218,-1.709,-1.7665,-1.5512,-1.6872,-1.7382,0.0,0.0,0.0,0.0,0.0,0.0,0.0,0.0,-0.857,-0.8556,-0.6867,-0.6478,-0.7173,-0.8921,-0.9807,-1.0113,-0.9889,-1.0202,-1.0364,-0.7429,-0.6993,-0.7764,-0.7062,-0.6635,-0.6538,-0.7044,-0.7458,-0.7815,-0.8037,-0.8383,-0.8611,-0.849,-0.8457,-0.8433,-0.8429,-0.8456,-0.8599,-0.902,-0.9106,-0.9316,-0.9762,-0.9925,-0.9974,-0.9776,-0.9957,-1.0154,-1.011,0.0,0.0,0.0,0.0,0.0,0.0,0.0,0.0,0.0,0.0,0.0,0.0,0.0,0.0,0.0,0.0,0.0,-0.6846,0.0,-0.7067,-0.7644,-0.7588,-0.7557,-0.7557,-0.7883,-0.7729,-0.7139,-0.7777,-0.8103,-0.8262,-0.8309,-0.8408,-0.8461,-0.856,-0.8355,-0.7937,-0.7717,-0.7337,-0.6961,-0.6539,-0.6431,-0.6431,-2.302,0.0,-2.3144,0.0,-2.3095,-2.307,-2.302,-2.3289,-2.3476,-2.3412,-2.3549,-2.2271,-1.8611,-1.9837,-1.9867,-1.7293,-1.7082,-1.7055,-1.7002,-1.7124,-1.7209,-1.7223,-2.0094,0.0,-1.9316,-2.0256,-2.0683,-2.0547,-1.5816,0.0,0.0,0.0,0.0,0.0,-1.1959,-1.1129,-1.1088,-0.9085,-0.9021,-1.0397,-1.243,-1.3507,-1.3835,-1.3552,-1.3683,-1.3633,-1.0429,-0.946,-0.9678,-0.9511,-0.9132,-0.8615,-0.8289,-0.8401,-0.8727,-0.9059,-0.9193,-0.9256,-0.9256,-0.9113,-0.9151,-0.9779,-0.9794,-0.9841,-1.0373,-1.0522,-1.0527,-1.0412,-1.0482,-1.0468,-1.0137,-1.0245,-1.036,-1.0257,0.0,0.0,0.0,-0.9851,0.0,0.0,-0.8934,-0.8928,-0.9134,-0.9839,0.0,0.0,0.0,0.0,0.0,0.0,0.0,0.0,0.0,0.0,-0.8229,-0.8208,-0.8143,-0.815,-0.8586,-0.8374,-0.767,-0.8533,-0.8962,-0.9061,-0.9211,-0.9263,-0.9211,-0.9361,-0.9099,-0.8586,-0.8362,-0.8037,-0.7605,-0.7241,-0.7025,-0.6912,-2.3289,-2.3289,-2.3217,-2.2944,-2.3119,-2.3241,-2.3045,-2.3389,-2.3634,-2.3448,-2.3642,-2.378,-2.3712,-2.3728,-2.2707,-2.0074,-1.9848,-1.9848,-1.9846,-2.0097,-2.0136,0.0,0.0,-2.1983,-1.6092,-2.1082,-2.2579,-2.0213,0.0,0.0,-2.0584,0.0,-1.4579,-1.2295,-1.1652,-1.1667,-1.2192,-1.2141,-1.3849,-1.659,-1.6627,-1.6718,-1.6841,-1.6841,-1.7977,-1.9294,-1.6934,-1.6086,-1.602,-1.5465,-1.4205,-1.2378,-0.9718,-0.9392,-1.0003,-1.0003,-1.0153,-1.0364,-1.0364,-0.9917,-0.9968,-1.2444,-1.2666,-1.2392,-1.2939,-1.3144,-1.2696,-1.0799,-1.0415,-1.0474,-1.0744,-1.0446,-1.0352,-1.082,0.0,0.0,0.0,0.0,0.0,-1.0126,-0.9976,-0.9825,-0.9598,-1.0733,0.0,0.0,0.0,0.0,0.0,0.0,0.0,-0.9516,-0.8779,0.0,-0.9001,-0.885,-0.8804,-0.8804,-0.8804,-0.8857,-0.9008,-0.9106,-0.9211,-0.9211,-0.9361,-0.9309,-0.9211,-0.9361,-0.9263,-0.8956,-0.8349,-0.8025,-0.7824,-0.7295,-0.6701,-0.6209,-2.3217,-2.3193,-2.3144,-2.3045,-2.3119,-2.3119,-2.297,-2.3247,-2.3476,-2.3412,-2.3707,-2.3937,-2.3996,-2.3996,-2.3695,0.0,-2.2825,-2.2811,0.0,-2.2884,-2.2911,-2.2838,-2.3886,-2.3582,-2.1733,-2.1473,-2.19,-2.3068,0.0,0.0,0.0,-2.1698,-2.1738,-2.0867,-1.8753,-1.7931,-1.7986,-1.5973,-1.5729,-1.686,-1.8685,-1.9369,-1.9295,-1.9386,-1.9739,-1.9805,-1.6999,-1.599,-1.5976,-1.5806,-1.5627,-1.5363,-1.4703,-1.3436,-1.219,-1.2289,-1.1395,-1.0705,-1.2015,-1.1238,-1.0853,-1.4169,-1.3918,-1.332,-1.5204,-1.6007,-1.5442,-1.224,-1.2569,-1.3042,-1.1683,-1.1318,-1.1167,-1.0922,-1.0806,0.0,-1.0359,0.0,-0.9859,-0.9835,-0.9687,-0.9663,-0.993,-1.0655,0.0,0.0,0.0,0.0,0.0,0.0,0.0,0.0,-0.9915,0.0,-0.9562,-0.9413,-0.9562,-1.0012,-0.9263,-0.9008,-0.9159,-0.9256,-0.9361,-0.9361,-0.9361,-0.9361,-0.9309,-0.9263,-0.9211,-0.9106,-0.8837,-0.8732,-0.8732,-0.8368,-0.7937,-0.7439,-2.3241,-2.3217,-2.3217,-2.3295,-2.3319,-2.3271,-2.3144,-2.336,-2.3499,-2.3435,-2.3728,-2.4016,-2.4114,-2.4191,0.0,-2.4247,-2.4247,-2.4228,-2.421,-2.419,-2.4228,-2.4266,-2.4284,-2.4303,-2.4321,-2.2677,0.0,-2.4284,-2.0818,-2.0151,-2.2187,-2.4119,-2.4422,-2.3262,-2.1561,-2.0811,-2.0749,-1.8898,-1.8734,-1.9862,-2.1538,-2.207,-2.1917,-2.1989,-2.1985,-2.1649,-1.9684,-1.8504,-1.7997,-1.8646,-1.8595,-1.8434,-1.9339,-1.7994,-1.5823,-1.4401,-1.3103,-1.2241,-1.2725,-1.233,-1.2535,-1.5795,-1.6096,-1.6028,-1.7823,-1.7454,-1.6039,-1.3619,-1.3535,-1.3449,-1.2243,-1.1877,-1.1719,-1.1519,-1.1309,-1.1054,-1.0738,0.0,-1.0076,0.0,0.0,0.0,0.0,-1.0733,-1.1138,0.0,0.0,0.0,0.0,0.0,0.0,-1.0685,-1.0651,-1.0438,-1.0012,-0.9969,-1.0167,-1.061,-0.9814,-0.951,-0.9562,-0.9465,-0.9413,-0.9413,-0.9361,-0.9309,-0.9263,-0.9159,-0.9106,-0.9061,-0.8956,-0.8956,-0.9008,-0.8857,-0.8474,-0.7972,-2.3289,-2.3271,-2.3335,-2.3638,-2.3667,-2.3624,-2.3522,-2.3634,-2.3678,-2.3544,-2.3768,-2.3978,-2.4173,-2.4302,-2.4373,-2.4321,0.0,0.0,-2.4389,-2.4284,-2.4284,-2.4375,-2.4339,-2.4266,-2.419,-2.4391,-2.4355,-2.4113,-2.4247,-2.4441,-2.4692,-2.4827,-2.3443,-2.0889,-2.1009,-2.106,-2.1048,-2.1067,-2.2459,-2.4692,-2.4692,-2.4578,-2.4389,-2.4372,-2.4372,-2.4337,-2.4173,-2.293,-2.1634,-2.3279,-2.2599,-2.1398,-2.3214,-2.2523,-2.0312,-1.6502,-1.5328,-1.4859,-1.3173,-1.3486,-1.4917,-1.7563,-1.9107,-2.0085,-2.0507,-1.7937,-1.5369,-1.4978,-1.3603,-1.2492,-1.2472,-1.2175,-1.2067,-1.2393,-1.2129,-1.1733,-1.1334,-1.0965,-1.0782,0.0,0.0,0.0,-1.0261,-1.0896,-1.1154,0.0,0.0,0.0,0.0,0.0,-1.1276,-1.1469,-1.0964,-1.0643,-1.0466,-1.0466,-1.0466,-1.0568,-1.0364,-1.0218,-1.0115,-0.9666,-0.9465,-0.9413,-0.9309,-0.9159,-0.9061,-0.9008,-0.891,-0.8804,-0.8804,-0.8804,-0.8804,-0.8804,-0.8421,-0.7925,0.0,0.0,-2.2797,-2.3642,-2.3324,-2.3125,-2.366,-2.3792,-2.3873,-2.3873,-2.3976,-2.4074,-2.4133,-2.4209,-2.4303,-2.4441,-2.4561,-2.4545,-2.4407,-2.4479,-2.4479,-2.4391,-2.4339,-2.4266,-2.419,-2.4247,-2.4229,-2.4191,-2.4372,-2.4508,-2.4631,-2.4716,-2.4363,-2.3652,-2.3675,-2.3652,-2.3562,-2.3713,-2.41,-2.4613,-2.4613,-2.4497,-2.4302,-2.4211,-2.4079,-2.3941,-2.3998,-2.3731,-2.3414,-2.3802,-2.3509,-2.3015,-2.3437,-2.3094,-2.2171,-2.0117,-1.846,-1.7486,-1.8483,-1.7918,-1.7895,-2.1416,-2.2489,-2.2322,-2.092,-2.1051,-2.0231,-1.5816,-1.5728,-1.5659,-1.2981,-1.2431,-1.222,-1.1854,-1.1808,-1.1656,-1.1274,-1.1232,-1.1226,0.0,-1.109,-1.078,-1.0359,-1.0905,-1.1262,0.0,0.0,0.0,-1.2431,-1.2175,-1.1877,-1.1519,-1.1669,-1.151,-1.1108,-1.1108,-1.0795,-1.0167,-1.0685,-1.0482,-0.9614,-0.988,-0.9932,-0.9865,-0.971,-0.9666,-0.9562,-0.9061,-0.8804,-0.8804,-0.8804,-0.8804,-0.8804,-0.8804,-0.8421,-0.7925,-2.2384,-2.2246,-2.2329,-2.2689,-2.2365,-2.2347,-2.3246,-2.3353,-2.3499,-2.3941,-2.4094,-2.417,-2.419,-2.4247,-2.4338,-2.4439,-2.4526,-2.4591,-2.4636,-2.461,-2.4596,-2.4591,-2.4338,-2.4284,-2.4429,-2.4284,-2.4247,-2.4374,-2.4476,-2.4526,-2.4512,-2.4604,-2.4651,-2.4657,-2.4719,-2.47,-2.4685,-2.4749,-2.4673,-2.4512,-2.4479,-2.4321,-2.4077,-2.3999,-2.3899,-2.3816,-2.3873,-2.3912,-2.3891,-2.3768,-2.3624,-2.3491,-2.3371,-2.323,-2.2939,-2.2129,-2.0512,-1.9016,-1.9259,-1.9249,-1.9878,-2.2972,-2.3696,-2.3363,-2.2271,-2.212,-2.1338,-1.82,-1.6971,-1.5899,-1.4043,-1.3055,-1.2338,-1.1921,-1.2158,-1.2215,-1.1621,-1.1808,-1.1771,-1.1351,-1.1469,-1.129,-1.0458,-1.1247,-1.1679,-1.1328,-1.2006,0.0,-1.2323,-1.2234,-1.2076,-1.1877,-1.2026,-1.1977,-1.1678,-1.1728,-1.151,-1.104,-1.1309,-1.1108,-1.0438,-1.0395,-1.0344,-1.0285,-1.0123,-0.9909,-0.9666,-0.9309,-0.9008,-0.8804,-0.8804,-0.8804,-0.8804,-0.8804,-0.8586,-0.8309,-2.1976,-2.1821,-2.1729,-2.1532,-2.1295,-2.1531,-2.2722,-2.2812,-2.3066,-2.3966,-2.4152,-2.4247,-2.4284,-2.4356,-2.4389,-2.4407,-2.4424,-2.454,-2.4832,-2.4734,-2.4707,-2.4779,-2.4389,-2.4338,-2.466,-2.4409,-2.4392,-2.4645,-2.4629,-2.4578,-2.4458,-2.4559,-2.4626,-2.4692,-2.4798,-2.4884,-2.4912,-2.487,-2.4689,-2.4389,-2.4339,-2.4135,-2.3878,-2.3858,-2.3855,-2.3816,-2.385,-2.3847,-2.3786,-2.3553,-2.3417,-2.3307,-2.314,-2.3035,-2.2985,-2.2985,-2.1771,-2.0146,-1.8839,-1.9726,-2.1445,-2.3287,-2.366,-2.3594,-2.3571,-2.2241,-2.0918,-2.0618,-1.7757,-1.5227,-1.5072,-1.3615,-1.2387,-1.2202,-1.2634,-1.2742,-1.2144,0.0,-1.2337,-1.161,-1.1859,-1.1751,-1.082,-1.1769,-1.2157,-1.1519,-1.2166,-1.2471,-1.2224,-1.2175,-1.2224,-1.2274,-1.2175,-1.2076,-1.2076,-1.2224,-1.2274,-1.2175,-1.1877,-1.1678,-1.1519,-1.1015,-1.0753,-1.0702,-1.0584,-1.0218,-0.9666,-0.9614,-0.9263,-0.8752,-0.8752,-0.8804,-0.8804,-0.8804,-0.8804,-0.8804,-2.0588,-2.0382,-2.0619,-2.1294,-2.088,-2.1007,-2.2648,-2.2923,-2.3309,-2.4282,-2.4339,-2.4303,-2.4284,-2.4303,-2.4374,-2.4472,-2.4545,-2.4596,-2.4645,-2.4818,-2.4861,-2.4723,-2.4642,-2.458,-2.4515,-2.4596,-2.4704,-2.4847,-2.479,-2.476,-2.4746,-2.4642,-2.4615,-2.4631,-2.4647,-2.4578,-2.4491,-2.4594,-2.4545,-2.4389,-2.4339,-2.4266,-2.421,-2.4152,-2.4074,-2.3996,-2.4112,-2.4034,-2.3876,-2.3834,-2.3522,-2.3135,-2.3035,-2.2721,-2.2432,-2.2432,-2.2194,-2.2054,-2.2483,-2.2941,-2.3324,-2.3432,-2.3335,-2.3177,-2.3035,-2.2641,-2.1868,-2.027,-1.8425,-1.6606,-1.4994,-1.3409,-1.2289,-1.2062,-1.2192,-1.2341,-1.2345,0.0,-1.2676,-1.2414,-1.2589,-1.2433,-1.181,-1.2215,-1.2461,-1.2374,-1.2725,-1.2832,-1.2706,-1.2627,-1.2529,-1.2332,-1.2175,-1.2076,-1.2076,-1.2224,-1.2076,-1.1628,-1.1769,-1.1469,-1.0804,-1.1318,-1.1418,-1.1167,-1.1167,-1.0744,-1.0064,-0.9614,-0.9099,-0.8626,-0.8626,-0.8692,-0.8804,-0.8804,-0.8804,-0.8804,-2.0328,-2.0206,-2.0281,-2.0192,-1.983,-2.001,-2.1385,-2.1587,-2.2116,-2.3561,-2.3708,-2.3892,-2.4408,-2.4497,-2.4545,-2.4607,-2.47,-2.4749,-2.4707,-2.4794,-2.4794,-2.4707,-2.4594,-2.4512,-2.4444,-2.461,-2.4764,-2.4902,-2.4874,-2.4874,-2.4902,-2.476,-2.4692,-2.4645,-2.4545,-2.4459,-2.4407,-2.4547,-2.4512,-2.4389,-2.4444,-2.4393,-2.4284,-2.4191,-2.4095,-2.3996,-2.3974,-2.3912,-2.3768,-2.3638,-2.3376,-2.314,-2.3003,-2.2712,-2.246,-2.246,-2.2487,-2.2579,-2.2935,-2.3153,-2.3277,-2.3129,-2.2989,-2.2873,-2.2824,-2.266,-2.231,-2.1438,-1.9849,-1.8082,-1.6325,-1.4715,-1.3277,-1.209,-1.2281,-1.2537,-1.2411,-1.2739,-1.2837,-1.2589,-1.289,-1.2832,-1.2017,-1.2706,-1.2987,-1.254,-1.2919,-1.3132,-1.2871,-1.2852,-1.2706,-1.2431,-1.2274,-1.2224,-1.2224,-1.2283,-1.2175,-1.1927,-1.1977,-1.1819,-1.1418,-1.1769,-1.1711,-1.1425,-1.1639,-1.1239,-1.0458,-1.046,-1.0079,-0.9547,-0.9547,-0.9458,-0.9263,-0.9413,-0.9159,-0.8804,-2.0425,-2.0173,-1.9975,-1.9212,-1.9,-1.9288,-2.0323,-2.0493,-2.1094,-2.279,-2.3108,-2.3462,-2.4179,-2.4373,-2.4441,-2.4407,-2.4724,-2.4861,-2.4808,-2.4749,-2.4719,-2.4723,-2.4561,-2.4459,-2.4476,-2.4626,-2.4764,-2.4902,-2.4888,-2.4902,-2.4955,-2.4832,-2.4749,-2.4676,-2.4528,-2.4442,-2.4407,-2.4478,-2.4461,-2.4391,-2.4479,-2.441,-2.4266,-2.4154,-2.4077,-2.3996,-2.3912,-2.3828,-2.3682,-2.3481,-2.3342,-2.3217,-2.3045,-2.2825,-2.2659,-2.2659,-2.2659,-2.2659,-2.2598,-2.2755,-2.2873,-2.2746,-2.2643,-2.2565,-2.2512,-2.2422,-2.2313,-2.2286,-2.0825,-1.913,-1.7851,-1.6022,-1.4196,-1.2702,0.0,-1.2706,-1.2496,-1.2799,-1.2978,-1.2715,-1.3084,-1.3132,-1.2363,-1.319,-1.3478,-1.2842,-1.3228,-1.343,-1.3113,-1.318,-1.2987,-1.2578,-1.2382,-1.2274,-1.2274,-1.2274,-1.2274,-1.2274,-1.2175,-1.2126,-1.2076,-1.2126,-1.1905,-1.1508,-1.181,-1.1456,-1.0654,-1.0961,-1.0714,-1.0202,-1.034,-1.0069,-0.9658,-0.9938,-0.9614,-0.9113,-2.0481,-1.9753,-1.9226,-1.9036,-1.9053,-1.9376,-2.0277,-2.0623,-2.1241,-2.2552,-2.2958,-2.3136,-2.3192,-2.3498,-2.3649,-2.3587,-2.4389,-2.4865,-2.4804,-2.479,-2.479,-2.4794,-2.466,-2.4613,-2.4692,-2.4692,-2.4764,-2.4902,-2.4847,-2.4818,-2.4818,-2.4734,-2.4676,-2.4615,-2.458,-2.4512,-2.4389,-2.4338,-2.4303,-2.4303,-2.4266,-2.4228,-2.421,-2.4192,-2.4153,-2.4094,-2.4151,-2.3996,-2.3795,-2.3774,-2.358,-2.3371,-2.3295,-2.3095,-2.2893,-2.2893,-2.2764,-2.2605,-2.2598,-2.2755,-2.2822,-2.2512,-2.2313,-2.2192,-2.1998,-2.1869,-2.1738,-2.1694,-2.0435,-1.9229,-1.8916,-1.6427,-1.4412,-1.4403,0.0,0.0,-1.2638,-1.2803,-1.2968,-1.3122,-1.3314,-1.342,-1.3478,-1.3563,-1.3668,-1.3868,-1.3926,-1.3868,-1.3726,-1.3716,-1.344,-1.2725,-1.2323,-1.2126,-1.2126,-1.2126,-1.2126,-1.2126,-1.2224,-1.2224,-1.2076,-1.2224,-1.2011,-1.1489,-1.1517,-1.111,-1.0429,-1.0462,-1.0141,-0.9684,-1.0043,-1.0023,-0.979,-0.9957,-0.9969,-0.9865,-1.9758,-1.9372,-1.9253,-1.9186,-1.9204,-1.9494,-2.0276,-2.0495,-2.0947,-2.2068,-2.2739,-2.3148,-2.3259,-2.3921,-2.4337,-2.4322,-2.4755,-2.4999,-2.4985,-2.4985,-2.4931,-2.4802,-2.4707,-2.4676,-2.4707,-2.4707,-2.4749,-2.4847,-2.4861,-2.4888,-2.4929,-2.4804,-2.4719,-2.4645,-2.4479,-2.4357,-2.4284,-2.4338,-2.4355,-2.4355,-2.4426,-2.4444,-2.4445,-2.4358,-2.4284,-2.4228,-2.4152,-2.4054,-2.3917,-2.3876,-2.3768,-2.3656,-2.3611,-2.3407,-2.3102,-2.2995,-2.2919,-2.2799,-2.2668,-2.2544,-2.2409,-2.2153,-2.201,-2.1911,-2.1738,-2.1617,-2.1495,-2.1419,-2.0522,-1.9401,-1.8335,-1.6805,-1.54,-1.4522,0.0,-1.4104,-1.3263,-1.3742,-1.3879,-1.2972,-1.3104,-1.3248,-1.3314,-1.3515,-1.3621,-1.3716,-1.3821,-1.3821,-1.3668,-1.3621,-1.3478,-1.3238,-1.2939,-1.2598,-1.2224,-1.2224,-1.2224,-1.2224,-1.2175,-1.2126,-1.2076,-1.2175,-1.1914,-1.1498,-1.1601,-1.1314,-1.0863,-1.1097,-1.1094,-1.0905,-1.1249,-1.1115,-1.0764,-1.0948,-1.0685,-1.0269,-1.9685,-1.9585,-1.9732,-1.9714,-1.9918,-2.025,-2.0764,-2.0966,-2.1201,-2.1537,-2.2451,-2.2978,-2.2753,-2.3697,-2.4369,-2.4369,-2.478,-2.5044,-2.5025,-2.5044,-2.4977,-2.485,-2.4802,-2.4738,-2.4707,-2.4707,-2.4719,-2.4779,-2.4804,-2.4861,-2.4902,-2.4804,-2.4734,-2.466,-2.4479,-2.4358,-2.4266,-2.4355,-2.4389,-2.4407,-2.4491,-2.4561,-2.4547,-2.4481,-2.4393,-2.4357,-2.4284,-2.421,-2.4135,-2.4037,-2.3958,-2.3912,-2.3828,-2.3638,-2.343,-2.3295,-2.3199,-2.3077,-2.2782,-2.2552,-2.2293,-2.1986,-2.1869,-2.1797,-2.1664,-2.1526,-2.1433,-2.134,-2.0835,-2.0068,-1.8969,-1.7953,-1.6941,-1.5868,-1.5885,-1.5556,-1.4253,-1.4688,-1.4694,-1.3434,-1.344,-1.3536,-1.3505,-1.3705,-1.3752,-1.3668,-1.3773,-1.3773,-1.3716,-1.3621,-1.3563,-1.3515,-1.342,-1.3035,-1.2372,-1.251,-1.2471,-1.2224,-1.2274,-1.2175,-1.1977,-1.1977,-1.171,-1.1262,-1.1336,-1.1252,-1.0985,-1.1288,-1.1402,-1.1411,-1.1724,-1.1557,-1.1113,-1.1384,-1.1057,-1.0584,-2.0461,-2.0521,-2.0702,-2.0602,-2.1265,-2.1799,-2.1818,-2.2262,-2.2189,-2.107,-2.2145,-2.2548,-2.1347,-2.2525,-2.3412,-2.3412,-2.4327,-2.4912,-2.4902,-2.4893,-2.4898,-2.4898,-2.4898,-2.4842,-2.4707,-2.4707,-2.4707,-2.4707,-2.4707,-2.4707,-2.4707,-2.4707,-2.466,-2.4599,-2.4599,-2.4547,-2.4407,-2.4407,-2.4407,-2.4407,-2.4407,-2.4442,-2.4512,-2.4512,-2.4512,-2.4512,-2.4564,-2.4564,-2.4478,-2.4266,-2.421,-2.4154,-2.3878,-2.381,-2.3804,-2.3804,-2.3594,-2.3324,-2.3077,-2.2868,-2.2561,-2.2044,-2.1899,-2.1869,-2.1738,-2.1634,-2.1542,-2.1417,-2.1339,-2.1276,-2.1276,-2.0025,-1.899,-1.899,-1.7714,-1.6428,-1.5625,-1.5503,-1.5272,-1.4575,-1.4501,-1.4408,-1.4222,-1.4222,-1.4082,-1.381,-1.3821,-1.3868,-1.3973,-1.402,-1.3821,-1.342,-1.3515,-1.3238,-1.2529,-1.2939,-1.2832,-1.2076,-1.248,-1.2323,-1.1728,-1.1728,-1.1317,-1.068,-1.068,-1.068,-1.068,-1.068,-1.068,-1.0762,-1.113,-1.1053,-1.0723,-1.0839,-1.0922,-1.0871,-1.9845,-2.0655,-2.1364,-2.077,-2.1345,-2.2052,-2.2624,-2.2864,-2.2828,-2.2494,-2.3303,-2.356,-2.2634,-2.3563,-2.4241,-2.4241,-2.4554,-2.476,-2.4764,-2.4746,-2.4731,-2.4685,-2.4623,-2.4676,-2.4757,-2.4723,-2.4723,-2.4764,-2.4861,-2.4861,-2.4764,-2.4764,-2.4764,-2.4798,-2.4707,-2.4676,-2.4676,-2.4626,-2.461,-2.461,-2.4604,-2.4623,-2.4642,-2.4639,-2.4639,-2.4645,-2.461,-2.4594,-2.4543,-2.4393,-2.4321,-2.4229,-2.3939,-2.3876,-2.3873,-2.3813,-2.3725,-2.3549,-2.3324,-2.3077,-2.2738,-2.222,-2.2032,-2.194,-2.1797,-2.1708,-2.1634,-2.1448,-2.0897,-2.0427,-2.0391,-1.9477,-1.8723,-1.8723,-1.8899,-1.8322,-1.6353,-1.668,-1.6397,-1.4492,-1.4305,-1.4351,-1.4408,-1.4129,-1.3952,-1.4093,-1.38,-1.3668,-1.3716,-1.3821,-1.3821,-1.3668,-1.3821,-1.3621,-1.3142,-1.2696,-1.2255,-1.1828,-1.1769,-1.1619,-1.1427,-1.1427,-1.1316,-1.1113,-1.0914,-1.0864,-1.0864,-1.0864,-1.0864,-1.0873,-1.1183,-1.1208,-1.1122,-1.1082,-1.1124,-1.1175,-1.9971,-2.1216,-2.2235,-2.144,-2.2213,-2.3128,-2.3611,-2.3685,-2.3557,-2.3189,-2.3857,-2.4061,-2.3229,-2.3981,-2.4515,-2.4479,-2.4594,-2.467,-2.4734,-2.4704,-2.4623,-2.4559,-2.4444,-2.4479,-2.4729,-2.466,-2.4642,-2.4689,-2.4753,-2.4768,-2.4749,-2.4749,-2.4808,-2.4926,-2.4856,-2.4861,-2.4922,-2.4875,-2.4842,-2.4827,-2.4851,-2.4851,-2.4827,-2.4851,-2.4851,-2.4842,-2.4794,-2.4808,-2.476,-2.4578,-2.4428,-2.4247,-2.3958,-2.3917,-2.3976,-2.3896,-2.3834,-2.3725,-2.3486,-2.3206,-2.2876,-2.2515,-2.2248,-2.2032,-2.1886,-2.1678,-2.1526,-2.1526,-2.095,-2.0483,-2.0539,-2.0103,-1.9701,-1.9673,-2.0126,-1.9876,-1.8024,-1.7973,-1.7439,-1.5604,-1.5102,-1.4869,-1.4834,-1.4558,-1.4373,-1.4398,-1.4035,-1.38,-1.3752,-1.3716,-1.3716,-1.3621,-1.3821,-1.3716,-1.3314,-1.2725,-1.2255,-1.1877,-1.1619,-1.1368,-1.1124,-1.1124,-1.1074,-1.0922,-1.0718,-1.0616,-1.0565,-1.0565,-1.0565,-1.0565,-1.082,-1.0922,-1.0922,-1.0871,-1.0922,-1.0972,-2.0708,-2.2078,-2.3157,-2.2397,-2.355,-2.4582,-2.458,-2.458,-2.4286,-2.344,-2.4016,-2.4204,-2.3393,-2.3967,-2.4375,-2.4303,-2.4481,-2.4629,-2.4746,-2.4626,-2.4547,-2.4478,-2.4303,-2.4303,-2.4566,-2.4495,-2.4495,-2.4512,-2.4442,-2.451,-2.4692,-2.4692,-2.4798,-2.4966,-2.498,-2.5025,-2.5089,-2.5101,-2.507,-2.5006,-2.5088,-2.5076,-2.5025,-2.5088,-2.5107,-2.5101,-2.5089,-2.5082,-2.5044,-2.4775,-2.4493,-2.4192,-2.3878,-2.3896,-2.4034,-2.3976,-2.3896,-2.3792,-2.3553,-2.3277,-2.2985,-2.2721,-2.2432,-2.2111,-2.1974,-2.1617,-2.1371,-2.1634,-2.1325,-2.1119,-2.1324,-2.1404,-2.1405,-2.1325,-2.1309,-2.1002,-2.0117,-1.9261,-1.8374,-1.7451,-1.6564,-1.5903,-1.5488,-1.5363,-1.5108,-1.4709,-1.4398,-1.4212,-1.4061,-1.3879,-1.3699,-1.3457,-1.3757,-1.3662,-1.3218,-1.2919,-1.254,-1.2126,-1.1909,-1.151,-1.0972,-1.0922,-1.0718,-1.0368,-1.0265,-1.0162,-0.9999,-0.9999,-0.9999,-0.9999,-1.0213,-1.0265,-1.0265,-1.0419,-1.047,-1.047,-2.1671,-2.2432,-2.3145,-2.2808,-2.3584,-2.4321,-2.4425,-2.4442,-2.4403,-2.4304,-2.447,-2.4493,-2.4241,-2.4371,-2.4447,-2.4375,-2.443,-2.4429,-2.4409,-2.4375,-2.4357,-2.4339,-2.4247,-2.4228,-2.4284,-2.4302,-2.4428,-2.458,-2.4564,-2.458,-2.4613,-2.4613,-2.4626,-2.4685,-2.4837,-2.4945,-2.4959,-2.5051,-2.5095,-2.5082,-2.5144,-2.5132,-2.5101,-2.5156,-2.5156,-2.5076,-2.4921,-2.4907,-2.4888,-2.4561,-2.4173,-2.3837,-2.3735,-2.3646,-2.3576,-2.3649,-2.3491,-2.3295,-2.3394,-2.3035,-2.2605,-2.2569,-2.2163,-2.189,-2.2111,-2.1738,-2.1402,-2.1388,-2.1438,-2.1361,-2.107,-2.1438,-2.1663,-2.1343,-2.1309,-2.1002,-2.0117,-1.982,-1.934,-1.842,-1.8129,-1.7681,-1.6866,-1.5893,-1.5074,-1.4582,-1.4674,-1.4674,-1.4571,-1.4985,-1.4829,-1.3894,-1.4302,-1.4129,-1.3218,-1.2803,-1.2471,-1.2274,-1.1877,-1.1669,-1.1519,-1.1074,-1.0871,-1.0718,-1.0154,-0.9955,-0.9999,-0.9903,-0.9903,-0.9999,-1.0051,-1.0051,-1.0051,-1.0007,-0.9999,-1.0102,-2.2409,-2.3085,-2.358,-2.3068,-2.3695,-2.4266,-2.4302,-2.4408,-2.4495,-2.4512,-2.4564,-2.4582,-2.4549,-2.4517,-2.4465,-2.4412,-2.4394,-2.4394,-2.4339,-2.4375,-2.4375,-2.4339,-2.4321,-2.4266,-2.421,-2.4266,-2.4321,-2.4357,-2.4339,-2.4375,-2.4445,-2.4498,-2.4547,-2.4607,-2.4734,-2.4798,-2.4813,-2.4884,-2.4926,-2.4953,-2.4993,-2.4993,-2.4953,-2.4993,-2.4966,-2.4898,-2.4794,-2.476,-2.4746,-2.4372,-2.4154,-2.3979,-2.3735,-2.3667,-2.3685,-2.3584,-2.3427,-2.3283,-2.3277,-2.2935,-2.2579,-2.2552,-2.2502,-2.2365,-2.194,-2.1448,-2.1055,-2.1135,-2.1096,-2.0986,-2.0875,-2.1347,-2.1637,-2.1327,-2.1456,-2.1434,-2.0855,-2.0349,-1.985,-1.9331,-1.8866,-1.842,-1.7923,-1.7107,-1.6354,-1.5847,-1.5593,-1.5303,-1.4915,-1.5332,-1.5412,-1.498,-1.5893,-1.6159,-1.5576,-1.5693,-1.5595,-1.5254,-1.3667,-1.3394,-1.4193,-1.2772,-1.2709,-1.3595,-1.1167,-1.0771,-1.1701,-1.081,-1.0462,-1.0514,-1.0352,-1.0241,-1.0182,-1.03,-1.0308,-1.0249,-2.3069,-2.3713,-2.4045,-2.3344,-2.3768,-2.421,-2.4192,-2.4374,-2.4513,-2.4442,-2.4512,-2.458,-2.4564,-2.4498,-2.443,-2.4358,-2.4394,-2.4412,-2.4412,-2.443,-2.4429,-2.4412,-2.4376,-2.4321,-2.4247,-2.4284,-2.4247,-2.4132,-2.4056,-2.4114,-2.4284,-2.434,-2.4446,-2.4543,-2.4626,-2.4657,-2.4692,-2.4723,-2.4764,-2.4804,-2.4804,-2.4804,-2.4804,-2.4804,-2.4779,-2.4704,-2.4692,-2.4645,-2.4561,-2.4229,-2.4192,-2.421,-2.3756,-2.3753,-2.3855,-2.3584,-2.3585,-2.3565,-2.3199,-2.2989,-2.2858,-2.2733,-2.2948,-2.2959,-2.2061,-2.1344,-2.0936,-2.1118,-2.0897,-2.0717,-2.1007,-2.1487,-2.171,-2.131,-2.1644,-2.1821,-2.1485,-2.0789,-2.0249,-2.0134,-1.9328,-1.8857,-1.9016,-1.8596,-1.8171,-1.7812,-1.7144,-1.6507,-1.5918,-1.612,-1.6282,-1.6385,-1.7689,-1.8301,-1.8148,-1.879,-1.906,-1.8928,-1.6538,-1.606,-1.7158,-1.5105,-1.5185,-1.6702,-1.3095,-1.2519,-1.4062,-1.2266,-1.1581,-1.1513,-1.0939,-1.0643,-1.0525,-1.0702,-1.0659,-1.0446,-2.3715,-2.3926,-2.4041,-2.3753,-2.3806,-2.3919,-2.4097,-2.4192,-2.4321,-2.4547,-2.4547,-2.4495,-2.4442,-2.4321,-2.4229,-2.4229,-2.4339,-2.443,-2.4482,-2.4266,-2.4248,-2.4482,-2.4266,-2.4209,-2.4376,-2.4321,-2.4266,-2.419,-2.4172,-2.4191,-2.4209,-2.4209,-2.4247,-2.4248,-2.4441,-2.4559,-2.4613,-2.4798,-2.4837,-2.4804,-2.4804,-2.4804,-2.4804,-2.4804,-2.479,-2.476,-2.4594,-2.441,-2.4247,-2.421,-2.4058,-2.3858,-2.3714,-2.3602,-2.3486,-2.3571,-2.3922,-2.412,-2.3309,-2.3337,-2.3515,-2.327,-2.2931,-2.2816,-2.3276,-2.262,-2.1885,-2.1869,-2.1729,-2.169,-2.1963,-2.2509,-2.257,-2.1619,-2.1569,-2.1465,-2.0905,-2.0936,-2.0931,-2.0645,-1.9991,-1.9871,-2.0679,-2.0037,-1.9746,-2.018,-1.9706,-1.9328,-1.9176,-1.9199,-1.8822,-1.7926,-1.8711,-1.8753,-1.7952,-1.8199,-1.9158,-2.0732,-2.0234,-1.9357,-1.8093,-1.7307,-1.7093,-1.7252,-1.6114,-1.5826,-1.6044,-1.4128,-1.3423,-1.3361,-1.1742,-1.1057,-1.0905,-1.0336,-1.0123,-1.0072,-2.3816,-2.3878,-2.3899,-2.381,-2.3834,-2.3858,-2.3901,-2.4078,-2.4248,-2.4356,-2.4374,-2.4393,-2.4356,-2.421,-2.4135,-2.4135,-2.4154,-2.421,-2.4321,-2.4154,-2.4096,-2.4266,-2.4191,-2.4191,-2.4229,-2.4358,-2.4358,-2.4247,-2.4247,-2.4247,-2.4247,-2.4303,-2.4284,-2.4266,-2.4392,-2.4445,-2.4428,-2.453,-2.4594,-2.4623,-2.4594,-2.4594,-2.4623,-2.4594,-2.4545,-2.4528,-2.4512,-2.4461,-2.4409,-2.4339,-2.4229,-2.4114,-2.3958,-2.3813,-2.3685,-2.3602,-2.4045,-2.4413,-2.3922,-2.4103,-2.4447,-2.4223,-2.4245,-2.4229,-2.4081,-2.3852,-2.3464,-2.2627,-2.2337,-2.2255,-2.221,-2.2801,-2.3057,-2.2306,-2.2299,-2.2223,-2.1743,-2.1408,-2.1311,-2.1531,-2.1437,-2.1521,-2.1941,-2.1361,-2.1048,-2.1247,-2.0879,-2.0415,-1.9945,-2.0288,-2.0462,-2.0338,-2.1504,-2.193,-2.1482,-2.2037,-2.2348,-2.2383,-2.2335,-2.1957,-2.126,-1.9682,-1.9629,-2.0662,-1.8013,-1.7602,-1.8683,-1.6866,-1.5541,-1.4571,-1.349,-1.2365,-1.1368,-1.06,-1.0541,-1.0795]},{"header":{"parameterUnit":"m.s-1","parameterCategory":1,"la1":30.6,"la2":28.766,"lo1":-90.7593,"lo2":-88.6598,"dy":0.0162,"dx":0.0183,"nx":116,"ny":114,"refTime":"2023-05-02T18:00:00:Z","depth":0,"parameterNumber":3,"parameterNumberName":"V-component_of_WINDS"},"data":[0.0,0.0,0.0,0.0,0.0,0.0,0.0,0.0,0.0,0.0,0.0,0.0,0.0,0.0,0.0,0.0,0.0,0.0,0.0,0.0,0.0,0.0,0.0,0.0,0.0,0.0,0.0,0.0,0.0,0.0,0.0,0.0,0.0,0.0,0.0,0.0,0.0,0.0,0.0,0.0,0.0,0.0,0.0,0.0,0.0,0.0,0.0,0.0,0.0,0.0,0.0,0.0,0.0,0.0,0.0,0.0,0.0,0.0,0.0,0.0,0.0,0.0,0.0,0.0,0.0,0.0,0.0,0.0,0.0,0.0,0.0,0.0,0.0,0.0,0.0,0.0,0.0,0.0,0.0,0.0,0.0,0.0,0.0,0.0,0.0,0.0,0.0,0.0,0.0,0.0,0.0,0.0,0.0,0.0,0.0,0.0,0.0,0.0,0.0,0.0,0.0,0.0,0.0,0.0,0.0,0.0,0.0,0.0,0.0,0.0,0.0,0.0,0.0,0.0,0.0,0.0,0.0,0.0,0.0,0.0,0.0,0.0,0.0,0.0,0.0,0.0,0.0,0.0,0.0,0.0,0.0,0.0,0.0,0.0,0.0,0.0,0.0,0.0,0.0,0.0,0.0,0.0,0.0,0.0,0.0,0.0,0.0,0.0,0.0,0.0,0.0,0.0,0.0,0.0,0.0,0.0,0.0,0.0,0.0,0.0,0.0,0.0,0.0,0.0,0.0,0.0,0.0,0.0,0.0,0.0,0.0,0.0,0.0,0.0,0.0,0.0,0.0,0.0,0.0,0.0,0.0,0.0,0.0,0.0,0.0,0.0,0.0,0.0,0.0,0.0,0.0,0.0,0.0,0.0,0.0,0.0,0.0,0.0,0.0,0.0,0.0,0.0,0.0,0.0,0.0,0.0,0.0,0.0,0.0,0.0,0.0,0.0,0.0,0.0,0.0,0.0,0.0,0.0,0.0,0.0,0.0,0.0,0.0,0.0,0.0,0.0,0.0,0.0,0.0,0.0,0.0,0.0,0.0,0.0,0.0,0.0,0.0,0.0,0.0,0.0,0.0,0.0,0.0,0.0,0.0,0.0,0.0,0.0,0.0,0.0,0.0,0.0,0.0,0.0,0.0,0.0,0.0,0.0,0.0,0.0,0.0,0.0,0.0,0.0,0.0,0.0,0.0,0.0,0.0,0.0,0.0,0.0,0.0,0.0,0.0,0.0,0.0,0.0,0.0,0.0,0.0,0.0,0.0,0.0,0.0,0.0,0.0,0.0,0.0,0.0,0.0,0.0,0.0,0.0,0.0,0.0,0.0,0.0,0.0,0.0,0.0,0.0,0.0,0.0,0.0,0.0,0.0,0.0,0.0,0.0,0.0,0.0,0.0,0.0,0.0,0.0,0.0,0.0,0.0,0.0,0.0,0.0,0.0,0.0,0.0,0.0,0.0,0.0,0.0,0.0,0.0,0.0,0.0,0.0,0.0,0.0,0.0,0.0,0.0,0.0,0.0,0.0,0.0,0.0,0.0,0.0,0.0,0.0,0.0,0.0,0.0,0.0,0.0,0.0,0.0,0.0,0.0,0.0,0.0,0.0,0.0,0.0,0.0,0.0,0.0,0.0,0.0,0.0,0.0,0.0,0.0,0.0,0.0,0.0,0.0,0.0,0.0,0.0,0.0,0.0,0.0,0.0,0.0,0.0,0.0,0.0,0.0,0.0,0.0,0.0,0.0,0.0,0.0,0.0,0.0,0.0,0.0,0.0,0.0,0.0,0.0,0.0,0.0,0.0,0.0,0.0,0.0,0.0,0.0,0.0,0.0,0.0,0.0,0.0,0.0,0.0,0.0,0.0,0.0,0.0,0.0,0.0,0.0,0.0,0.0,0.0,0.0,0.0,0.0,0.0,0.0,0.0,0.0,0.0,0.0,0.0,0.0,0.0,0.0,0.0,0.0,0.0,0.0,0.0,0.0,0.0,0.0,0.0,0.0,0.0,0.0,0.0,0.0,0.0,0.0,0.0,0.0,0.0,0.0,0.0,0.0,0.0,0.0,0.0,0.0,0.0,0.0,0.0,0.0,0.0,0.0,0.0,0.0,0.0,0.0,0.0,0.0,0.0,0.0,0.0,0.0,0.0,0.0,0.0,0.0,0.0,0.0,0.0,0.0,0.0,0.0,0.0,0.0,0.0,0.0,0.0,0.0,0.0,0.0,0.0,0.0,0.0,0.0,0.0,0.0,0.0,0.0,0.0,0.0,0.0,0.0,0.0,0.0,0.0,0.0,0.0,0.0,0.0,0.0,0.0,0.0,0.0,0.0,0.0,0.0,0.0,0.0,0.0,0.0,0.0,0.0,0.0,0.0,0.0,0.0,0.0,0.0,0.0,0.0,0.0,0.0,0.0,0.0,0.0,0.0,0.0,0.0,0.0,0.0,0.0,0.0,0.0,0.0,0.0,0.0,0.0,0.0,0.0,0.0,0.0,0.0,0.0,0.0,0.0,0.0,0.0,0.0,0.0,0.0,0.0,0.0,0.0,0.0,0.0,0.0,0.0,0.0,0.0,0.0,0.0,0.0,0.0,0.0,0.0,0.0,0.0,0.0,0.0,0.0,0.0,0.0,0.0,0.0,0.0,0.0,0.0,0.0,0.0,0.0,0.0,0.0,0.0,0.0,0.0,0.0,0.0,0.0,0.0,0.0,0.0,0.0,0.0,0.0,0.0,0.0,0.0,0.0,0.0,0.0,0.0,0.0,0.0,0.0,0.0,0.0,0.0,0.0,0.0,0.0,0.0,0.0,0.0,0.0,0.0,0.0,0.0,0.0,0.0,0.0,0.0,0.0,0.0,0.0,0.0,0.0,0.0,0.0,0.0,0.0,0.0,0.0,0.0,0.0,0.0,0.0,0.0,0.0,0.0,0.0,0.0,0.0,0.0,0.0,0.0,0.0,0.0,0.0,0.0,0.0,0.0,0.0,0.0,0.0,0.0,0.0,0.0,0.0,0.0,0.0,0.0,0.0,0.0,0.0,0.0,0.0,0.0,0.0,0.0,0.0,0.0,0.0,0.0,0.0,0.0,0.0,0.0,0.0,0.0,0.0,0.0,0.0,0.0,0.0,0.0,0.0,0.0,0.0,0.0,0.0,0.0,0.0,0.0,0.0,0.0,0.0,0.0,0.0,0.0,0.0,0.0,0.0,0.0,0.0,0.0,0.0,0.0,0.0,0.0,0.0,0.0,0.0,0.0,0.0,0.0,0.0,0.0,0.0,0.0,0.0,0.0,0.0,0.0,0.0,0.0,0.0,0.0,0.0,0.0,0.0,0.0,0.0,0.0,0.0,0.0,0.0,0.0,0.0,0.0,0.0,0.0,0.0,0.0,0.0,0.0,0.0,0.0,0.0,0.0,0.0,0.0,0.0,0.0,0.0,0.0,0.0,0.0,0.0,0.0,0.0,0.0,0.0,0.0,0.0,0.0,0.0,0.0,0.0,0.0,0.0,0.0,0.0,0.0,0.0,0.0,0.0,0.0,0.0,0.0,0.0,0.0,0.0,0.0,0.0,0.0,0.0,0.0,0.0,0.0,0.0,0.0,0.0,0.0,0.0,0.0,0.0,0.0,0.0,0.0,0.0,0.0,0.0,0.0,0.0,0.0,0.0,0.0,0.0,0.0,0.0,0.0,0.0,0.0,0.0,0.0,0.0,0.0,0.0,0.0,0.0,0.0,0.0,0.0,0.0,0.0,0.0,0.0,0.0,0.0,0.0,0.0,0.0,0.0,0.0,0.0,0.0,0.0,0.0,0.0,0.0,0.0,0.0,0.0,0.0,0.0,0.0,0.0,0.0,0.0,0.0,0.0,0.0,0.0,0.0,0.0,0.0,0.0,0.0,0.0,0.0,0.0,0.0,0.0,0.0,0.0,0.0,0.0,0.0,0.0,0.0,0.0,0.0,0.0,0.0,0.0,0.0,0.0,0.0,0.0,0.0,0.0,0.0,0.0,0.0,0.0,0.0,0.0,0.0,0.0,0.0,0.0,0.0,0.0,0.0,0.0,0.0,0.0,0.0,0.0,0.0,0.0,0.0,0.0,0.0,0.0,0.0,0.0,0.0,0.0,0.0,0.0,0.0,0.0,0.0,0.0,0.0,0.0,0.0,0.0,0.0,0.0,0.0,0.0,0.0,0.0,0.0,0.0,0.0,0.0,0.0,0.0,0.0,0.0,0.0,0.0,0.0,0.0,0.0,0.0,0.0,0.0,0.0,0.0,0.0,0.0,0.0,0.0,0.0,0.0,0.0,0.0,0.0,0.0,0.0,0.0,0.0,0.0,0.0,0.0,0.0,0.0,0.0,0.0,0.0,0.0,0.0,0.0,0.0,0.0,0.0,0.0,0.0,0.0,0.0,0.0,0.0,0.0,0.0,0.0,0.0,0.0,0.0,0.0,0.0,0.0,0.0,0.0,0.0,0.0,0.0,0.0,0.0,0.0,0.0,0.0,0.0,0.0,0.0,0.0,0.0,0.0,0.0,0.0,0.0,0.0,0.0,0.0,0.0,0.0,0.0,0.0,0.0,0.0,0.0,0.0,0.0,0.0,0.0,0.0,0.0,0.0,0.0,0.0,0.0,0.0,0.0,0.0,0.0,0.0,0.0,0.0,0.0,0.0,0.0,0.0,0.0,0.0,0.0,0.0,0.0,0.0,0.0,0.0,0.0,0.0,0.0,0.0,0.0,0.0,0.0,0.0,0.0,0.0,0.0,0.0,0.0,0.0,0.0,0.0,0.0,0.0,0.0,0.0,0.0,0.0,0.0,0.0,0.0,0.0,0.0,0.0,0.0,0.0,0.0,0.0,0.0,0.0,0.0,0.0,0.0,0.0,0.0,0.0,0.0,0.0,0.0,0.0,0.0,0.0,0.0,0.0,0.0,0.0,0.0,0.0,0.0,0.0,0.0,0.0,0.0,0.0,0.0,0.0,0.0,0.0,0.0,0.0,0.0,0.0,0.0,0.0,0.0,0.0,0.0,0.0,0.0,0.0,0.0,0.0,0.0,0.0,0.0,0.0,0.0,0.0,0.0,0.0,0.0,0.0,0.0,0.0,0.0,0.0,0.0,0.0,0.0,0.0,0.0,0.0,0.0,0.0,0.0,0.0,0.0,0.0,0.0,0.0,0.0,0.0,0.0,0.0,0.0,0.0,0.0,0.0,0.0,0.0,0.0,0.0,0.0,0.0,0.0,0.0,0.0,0.0,0.0,0.0,0.0,0.0,0.0,0.0,0.0,0.0,0.0,0.0,0.0,0.0,0.0,0.0,0.0,0.0,0.0,0.0,0.0,0.0,0.0,0.0,0.0,0.0,0.0,0.0,0.0,0.0,0.0,0.0,0.0,0.0,0.0,0.0,0.0,0.0,0.0,0.0,0.0,0.0,0.0,0.0,0.0,0.0,0.0,0.0,0.0,0.0,0.0,0.0,0.0,0.0,0.0,0.0,0.0,0.0,0.0,0.0,0.0,0.0,0.0,0.0,0.0,0.0,0.0,0.0,0.0,0.0,0.0,0.0,0.0,0.0,0.0,0.0,0.0,0.0,0.0,0.0,0.0,0.0,0.0,0.0,0.0,0.0,0.0,0.0,0.0,0.0,0.0,0.0,0.0,0.0,0.0,0.0,0.0,0.0,0.0,0.0,0.0,0.0,0.0,0.0,0.0,0.0,0.0,0.0,0.0,0.0,0.0,0.0,0.0,0.0,0.0,0.0,0.0,0.0,0.0,0.0,0.0,0.0,0.0,0.0,0.0,0.0,0.0,0.0,0.0,0.0,0.0,0.0,0.0,0.0,0.0,0.0,0.0,0.0,0.0,0.0,0.0,0.0,0.0,0.0,0.0,0.0,0.0,0.0,0.0,0.0,0.0,0.0,0.0,0.0,0.0,0.0,0.0,0.0,0.0,0.0,0.0,0.0,0.0,0.0,0.0,0.0,0.0,0.0,0.0,0.0,0.0,0.0,0.0,0.0,0.0,0.0,0.0,0.0,0.0,0.0,0.0,0.0,0.0,0.0,0.0,0.0,0.0,0.0,0.0,0.0,0.0,0.0,0.0,0.0,0.0,0.0,0.0,0.0,0.6834,0.0,0.0,0.0,0.0,0.0,0.0,0.0,0.0,0.0,0.0,0.0,0.0,0.0,0.0,0.0,0.0,0.0,0.0,0.0,0.0,0.0,0.0,0.0,0.0,0.0,0.0,0.0,0.0,0.0,0.0,0.0,0.0,0.0,0.0,0.0,0.0,0.0,0.0,0.0,0.0,0.0,0.0,0.0,0.0,0.0,0.0,0.0,0.0,0.0,0.0,0.0,0.0,0.0,0.0,0.0,0.0,0.0,0.0,0.0,0.0,0.0,0.0,0.0,0.0,0.0,0.0,0.0,0.0,0.0,0.0,0.0,0.0,0.0,0.0,0.0,0.0,0.0,0.0,0.0,0.0,0.0,0.0,0.0,0.0,0.0,0.0,0.0,0.0,0.0,0.0,0.0,0.0,0.0,0.0,0.0,0.0,0.0,0.0,0.0,0.0,0.0,0.0,0.0,0.0,0.0,0.0,0.0,0.0,0.0,0.0,0.0,0.0,0.0,0.0,0.0,0.0,0.7453,0.0,0.0,0.0,0.0,0.0,0.0,0.0,0.0,0.0,0.0,0.0,0.0,0.0,0.0,0.0,0.0,0.0,0.0,0.0,0.0,0.0,0.0,0.0,0.0,0.0,0.0,0.0,0.0,0.0,0.0,0.0,0.0,0.0,0.0,0.0,0.0,0.0,0.0,0.0,0.0,0.0,0.0,0.0,0.0,0.0,0.0,0.0,0.0,0.0,0.0,0.0,0.0,0.0,0.0,0.0,0.0,0.0,0.0,0.0,0.0,0.0,0.0,0.0,0.0,0.0,0.0,0.0,0.0,0.0,0.0,0.0,0.0,0.0,0.0,0.0,0.0,0.0,0.0,0.0,0.0,0.0,0.0,0.0,0.0,0.0,0.0,0.0,0.0,0.0,0.0,0.0,0.0,0.0,0.0,0.0,0.0,0.0,0.0,0.0,0.0,0.0,0.0,0.0,0.0,0.0,0.0,0.0,0.0,1.0966,1.0902,1.0108,1.0449,1.0369,0.9868,0.872,0.8236,0.8306,0.7734,0.0,0.0,0.0,0.0,0.0,0.0,0.0,0.0,0.0,0.0,0.0,0.0,0.0,0.0,0.0,0.0,0.0,0.0,0.0,0.0,0.0,0.0,0.0,0.0,0.0,0.0,0.0,0.0,0.0,0.0,0.0,0.0,0.0,0.0,0.0,0.0,0.0,0.0,0.0,0.0,0.0,0.0,0.0,0.0,0.0,0.0,0.0,0.0,0.0,0.0,0.0,0.0,0.0,0.0,0.0,0.0,0.0,0.0,0.0,0.0,0.0,0.0,0.0,0.0,0.0,0.0,0.0,0.0,0.0,0.0,0.0,0.0,0.0,0.0,0.0,0.0,0.0,0.0,0.0,0.0,0.0,0.0,0.0,0.0,0.0,0.0,0.9395,0.9616,0.0,0.0,0.0,0.0,0.0,0.0,0.0,0.0,0.0,0.0,0.0,0.0,0.0,0.9285,0.9603,1.0719,1.1148,1.0918,1.1658,1.1565,1.0585,1.0647,1.0307,0.9652,1.0028,0.0,0.8889,0.8797,0.0,0.0,0.0,0.0,0.0,0.0,0.0,0.0,0.0,0.0,0.0,0.0,0.0,0.0,0.0,0.0,0.0,0.0,0.0,0.0,0.0,0.0,0.0,0.0,0.0,0.0,0.0,0.0,0.0,0.0,0.0,0.0,0.0,0.0,0.0,0.0,0.0,0.0,0.0,0.0,0.0,0.0,0.0,0.0,0.0,0.0,0.0,0.0,0.0,0.0,0.0,0.0,0.0,0.0,0.0,0.0,0.0,0.0,0.0,0.0,0.0,0.0,0.0,0.0,0.0,0.0,0.0,0.0,0.0,0.0,0.0,0.0,0.0,0.0,0.0,0.0,0.0,0.0,0.0,0.0,0.0,0.0,0.0,0.0,0.0,0.962,0.9738,1.0104,1.0188,0.9833,0.0,0.0,0.0,0.0,0.0,0.0,0.0,0.0,0.0,1.0296,1.0692,1.1055,1.1385,1.2097,1.2405,1.2255,1.2983,1.2992,1.2379,1.2813,1.2578,1.19,1.2384,1.1945,1.0799,0.9602,0.8714,0.7957,0.0,0.0,0.0,0.0,0.5877,0.6127,0.0,0.0,0.0,0.0,0.0,0.0,0.0,0.0,0.0,0.0,0.0,0.0,0.0,0.0,0.0,1.6584,0.0,0.0,0.0,0.0,0.0,0.0,0.0,0.0,0.0,0.0,0.0,0.0,0.0,0.0,0.0,0.0,0.0,0.0,0.0,0.0,0.0,0.0,0.0,0.0,0.0,0.0,0.0,0.0,0.0,0.0,0.0,0.0,0.0,0.0,0.0,0.0,0.0,0.0,0.0,0.0,0.0,0.0,0.0,0.0,0.0,0.0,0.0,0.0,0.0,0.0,0.0,0.0,0.0,0.0,0.0,0.0,0.0,0.0,0.0,0.0,0.0,0.9895,0.9994,1.0441,1.0621,1.025,0.0,0.0,0.0,0.0,0.0,0.0,0.9787,1.0553,1.1401,1.2424,1.2667,1.2924,1.3118,1.3623,1.3819,1.3729,1.4305,1.443,1.4071,1.4413,1.409,1.3252,1.3642,1.3058,1.1808,1.0255,0.9393,0.8841,0.7361,0.6602,0.631,0.5933,0.6168,0.6566,0.0,0.0,0.0,0.0,0.0,0.0,0.0,0.0,0.0,0.0,0.0,0.0,0.0,0.0,1.6598,1.7107,1.6689,1.656,0.0,0.0,0.0,0.0,0.0,0.0,0.0,0.0,0.0,0.0,0.0,0.0,0.0,0.0,0.0,0.0,0.0,0.0,0.0,0.0,0.0,0.0,0.0,0.0,0.0,0.0,0.0,0.0,0.0,0.0,0.0,0.0,0.0,0.0,0.0,0.0,0.0,0.0,0.0,0.0,0.0,0.0,0.0,0.0,0.0,0.0,0.0,0.0,0.0,0.0,0.0,0.0,0.0,0.0,0.0,0.0,0.0,0.0,0.0,0.0,0.0,1.0046,1.0718,0.0,0.0,0.0,0.0,0.9182,0.9659,1.0334,1.1221,1.202,1.2856,1.36,1.4312,1.4653,1.4594,1.5314,1.5462,1.5095,1.5487,1.5479,1.5121,1.4429,1.3434,1.2208,1.2732,1.2078,1.0622,1.0801,1.0355,0.9452,0.836,0.7691,0.7294,0.7149,0.6955,0.6804,0.0,0.0,0.0,0.0,0.0,0.0,0.0,0.0,0.0,0.0,0.0,0.0,0.0,1.697,1.6861,1.7048,1.7513,1.7308,1.6313,0.0,0.0,0.0,0.0,0.0,0.0,0.0,0.0,0.0,0.0,0.0,0.0,0.0,0.0,0.0,0.0,0.0,0.0,0.0,0.0,0.0,0.0,0.0,0.0,0.0,0.0,0.0,0.0,0.0,0.0,0.0,0.0,0.0,0.0,0.0,0.0,0.0,0.0,0.0,0.0,0.0,0.0,0.0,0.0,0.0,0.0,0.0,0.0,0.0,0.0,0.0,0.0,0.0,0.0,0.0,0.0,0.0,0.0,0.0,0.0,1.1994,1.2948,0.0,1.1779,1.1532,1.1332,1.108,1.1563,1.2395,1.3485,1.4275,1.5152,1.6105,1.6136,1.6275,1.6512,1.6237,1.6071,1.5942,1.5848,1.5429,1.4779,1.4568,1.4033,1.3375,1.2884,1.2465,1.2104,1.09,0.9996,0.9302,0.8324,0.7644,0.7266,0.7389,0.744,0.7372,0.0,0.0,0.0,0.0,0.0,0.0,0.0,0.0,0.0,0.0,0.0,1.6996,1.7435,1.7299,1.7377,1.783,1.8089,1.7842,1.6984,0.0,0.0,0.0,0.0,0.0,0.0,0.0,0.0,0.0,0.0,0.0,0.0,0.0,0.0,0.0,0.0,0.0,0.0,0.0,0.0,0.0,0.0,0.0,1.7447,0.0,0.0,0.0,0.0,0.0,0.0,0.0,0.0,0.0,0.0,0.0,0.0,0.0,0.0,0.0,0.0,0.0,0.0,0.0,0.0,0.0,0.0,0.0,0.0,0.0,0.0,0.0,0.0,0.0,0.0,0.0,0.0,0.0,0.0,0.0,1.2131,1.3598,1.4574,1.4692,1.3611,1.3446,1.3244,1.2931,1.3344,1.4263,1.5591,1.6005,1.6708,1.7817,1.7492,1.7355,1.7466,1.6841,1.6465,1.6336,1.5977,1.5438,1.4787,1.4576,1.4321,1.397,1.2937,1.254,1.2493,1.1002,1.002,0.9328,0.849,0.8003,0.7695,0.7786,0.7871,0.7871,0.0,0.0,0.0,0.0,0.0,0.0,0.0,0.0,0.0,0.0,1.6105,1.6613,1.7877,1.7814,1.8182,1.9504,1.8403,1.8084,0.0,1.8592,0.0,0.0,0.0,0.0,0.0,0.0,0.0,0.0,0.0,0.0,0.0,0.0,0.0,0.0,0.0,0.0,0.0,0.0,0.0,0.0,0.0,0.0,1.9185,0.0,0.0,0.0,0.0,0.0,0.0,0.0,0.0,0.0,0.0,0.0,0.0,0.0,0.0,0.0,0.0,0.0,0.0,0.0,0.0,0.0,0.0,0.0,0.0,0.0,0.0,0.0,0.0,0.0,0.0,0.0,0.0,0.0,1.087,1.1654,1.2913,1.4641,1.545,1.5474,1.4501,1.4821,1.5064,1.4913,1.4941,1.5726,1.7415,1.7113,1.7458,1.8554,1.8228,1.7869,1.7509,1.7124,1.6739,1.6345,1.5994,1.5608,1.5163,1.4607,1.413,1.3834,1.2845,1.2108,1.1551,1.1185,1.0456,0.9627,0.8979,0.8745,0.8703,0.8393,0.8297,0.8137,0.0,0.0,0.0,0.0,0.0,0.0,0.0,0.0,0.0,0.0,1.7273,1.7723,1.7787,1.8438,1.9067,1.9418,1.8933,1.8723,1.8972,0.0,0.0,0.0,0.0,0.0,0.0,0.0,0.0,0.0,0.0,0.0,0.0,0.0,0.0,0.0,0.0,0.0,0.0,0.0,0.0,0.0,0.0,0.0,1.9838,0.0,0.0,0.0,0.0,0.0,0.0,0.0,0.0,0.0,0.0,0.0,0.0,0.0,0.0,0.0,0.0,0.0,0.0,0.0,0.0,0.0,0.0,0.0,0.0,0.0,0.0,0.0,0.0,0.0,0.0,0.0,0.0,1.0719,1.1542,1.3479,1.5213,1.6283,1.6971,1.7288,1.6977,1.7056,1.7221,1.7506,1.7251,1.7441,1.8252,1.7908,1.7989,1.8562,1.8228,1.8117,1.828,1.7638,1.7132,1.6756,1.637,1.569,1.4749,1.4757,1.4418,1.3744,1.2848,1.2237,1.1801,1.0982,1.038,0.9913,0.9572,0.9213,0.8903,0.8939,0.8498,0.7672,0.0,0.0,0.0,0.0,0.0,0.0,0.0,0.0,0.0,0.0,1.7547,1.8301,1.8072,1.8735,1.9375,1.9681,1.9265,1.897,1.8936,0.0,0.0,0.0,0.0,2.182,2.3928,0.0,0.0,0.0,0.0,0.0,0.0,0.0,0.0,0.0,0.0,0.0,0.0,0.0,0.0,0.0,0.0,0.0,2.1953,2.0015,1.9107,1.8608,1.7044,1.633,1.5935,1.4974,0.0,0.0,0.0,0.0,0.0,0.0,0.0,0.0,0.0,0.0,0.0,0.0,0.0,0.0,0.0,0.0,0.0,0.0,0.0,0.0,0.0,0.0,0.0,0.0,1.1743,1.3078,1.4037,1.5124,1.6309,1.754,1.8198,1.8511,1.8511,1.8591,1.8744,1.8845,1.8423,1.8473,1.9059,1.8562,1.8519,1.905,1.8545,1.8451,1.8828,1.7929,1.7441,1.7381,1.6679,1.5922,1.5125,1.5171,1.4817,1.4089,1.3331,1.2745,1.2315,1.1156,1.0568,0.0,0.0,0.0,0.0,0.0,0.7705,0.6814,0.0,0.0,0.0,0.0,0.0,0.0,0.0,0.0,0.0,0.0,0.0,1.8505,1.8391,1.8703,1.9159,1.984,1.9284,1.8958,0.0,0.0,0.0,2.2076,2.2474,2.3799,2.622,2.6813,0.0,0.0,0.0,0.0,0.0,0.0,0.0,0.0,0.0,0.0,0.0,0.0,0.0,0.0,0.0,0.0,2.4525,2.2515,2.1881,2.178,2.0241,1.8684,1.7265,1.6632,0.0,0.0,0.0,0.0,0.0,0.0,0.0,0.0,0.0,0.0,0.0,0.0,0.0,0.0,0.0,0.0,0.0,0.0,0.0,0.0,0.0,0.0,0.0,0.0,1.426,1.6476,1.7443,1.6823,1.6877,1.8633,1.9076,1.9273,1.9358,1.9632,1.9684,1.9384,1.9042,1.9127,1.9769,0.0,0.0,0.0,0.0,1.8819,1.917,1.8117,1.7723,1.7963,1.6953,1.6358,1.5979,1.5782,1.5309,1.4596,1.3914,1.3302,1.2796,1.1573,1.1002,1.0811,1.0168,0.9412,0.8592,0.7417,0.6482,0.5832,0.0,0.0,0.0,0.0,0.0,0.0,0.0,0.0,0.0,1.6079,1.7593,1.8398,1.7547,1.7975,1.8421,1.8559,1.8452,1.8803,0.0,0.0,2.1152,2.2951,2.4158,2.5722,2.7743,2.8711,2.9834,0.0,0.0,0.0,0.0,0.0,0.0,0.0,0.0,0.0,0.0,0.0,0.0,0.0,0.0,0.0,2.468,2.3748,2.3092,2.2466,2.1176,2.0946,2.1101,1.9703,1.9298,1.909,1.7323,0.0,0.0,0.0,0.0,0.0,0.0,0.0,0.0,0.0,0.0,0.0,0.0,0.0,0.0,0.0,0.0,0.0,0.0,0.0,0.0,1.5103,1.6611,1.7953,1.9087,1.9318,1.9652,2.0369,1.9958,1.9872,2.0489,2.0335,2.0283,2.0531,2.048,2.036,2.0198,1.9761,1.9727,2.0172,1.9453,1.9093,1.917,1.8639,1.81,1.7578,0.0,0.0,1.6893,1.613,1.5445,1.4765,1.3917,1.2949,1.2063,1.1814,1.1209,1.0262,0.9652,0.9166,0.8628,0.7233,0.6393,0.5914,0.0,0.0,0.0,0.0,0.0,0.0,0.0,0.0,0.0,0.0,1.7977,1.8829,1.8315,1.8546,1.8607,1.8238,1.8176,0.0,0.0,2.1107,2.2724,2.5047,2.6144,2.76,2.9567,3.015,3.0679,3.1272,0.0,0.0,0.0,0.0,0.0,0.0,0.0,0.0,0.0,0.0,0.0,0.0,0.0,0.0,2.5764,2.6039,2.5512,2.4532,2.3942,2.3168,2.2243,2.0924,2.0123,1.9411,1.7935,1.6841,1.5849,0.0,0.0,0.0,0.0,0.0,0.0,0.0,0.0,0.0,0.0,0.0,0.0,0.0,0.0,0.9984,0.0,0.0,1.4614,1.6597,1.7957,1.9112,2.0141,2.0626,2.078,2.0609,2.042,2.0531,2.1088,2.0805,2.0668,2.0865,2.0883,2.0788,2.0591,2.0583,2.066,2.0848,2.0129,1.9735,1.9735,1.8973,1.84,1.8031,1.7843,1.763,1.7329,1.6598,1.5799,1.4942,1.4067,1.3174,1.2358,1.1991,1.1198,1.0158,0.9491,0.8814,0.7995,0.6784,0.6147,0.5917,0.0,0.0,0.0,0.0,0.0,0.0,0.0,0.0,0.0,0.0,0.0,1.8855,1.8716,1.8701,1.85,0.0,0.0,0.0,0.0,2.2049,2.4204,2.6763,2.7509,2.8834,3.0821,3.073,3.0797,3.1051,3.157,0.0,0.0,0.0,0.0,0.0,0.0,0.0,0.0,0.0,0.0,0.0,0.0,0.0,2.6948,2.7981,2.7665,2.6583,2.6298,2.4734,2.2602,2.1782,2.0449,1.8983,1.8215,1.7407,1.6413,1.4691,1.3929,0.0,0.0,0.0,0.0,0.0,0.0,0.0,0.0,0.0,1.0541,1.0758,1.0634,1.1081,1.2939,1.4331,1.5723,1.7374,1.9021,2.0283,2.09,2.1103,2.0982,2.0306,2.0755,2.1079,2.1092,2.1121,2.1037,2.0891,2.1011,2.1097,2.1097,2.1234,2.1371,2.1516,2.0728,2.0292,2.0292,1.9239,1.8656,1.8579,1.8211,1.7877,1.7656,1.6942,1.6086,1.5127,1.4084,1.3306,1.2701,1.2284,1.1287,1.0114,0.9498,0.8557,0.7327,0.643,0.5998,0.5937,0.0,0.0,0.0,0.0,0.0,0.0,0.0,0.0,0.0,0.0,0.0,0.0,0.0,0.0,0.0,0.0,0.0,0.0,2.0993,2.2463,2.4199,2.6304,2.7072,2.8409,3.0437,2.9781,3.0295,3.2028,3.1853,3.1438,0.0,0.0,0.0,0.0,0.0,0.0,0.0,0.0,0.0,0.0,0.0,0.0,2.7497,2.8137,2.7981,2.7222,2.6,2.4738,2.359,2.3238,2.197,2.0496,2.0158,1.9114,1.7652,1.5951,0.0,1.3609,1.3093,1.2035,1.1204,1.1694,1.1399,1.1329,0.0,0.0,1.3222,1.3382,1.3753,1.4294,1.4892,1.6551,1.7943,1.8541,2.006,2.1251,2.1336,2.0785,2.0269,1.9958,2.1134,2.1357,2.0071,2.1095,2.1593,2.0925,2.1499,2.1876,2.1876,2.1276,2.1242,2.191,2.0865,2.0292,2.0292,1.9504,1.893,1.8579,1.8211,1.8095,1.8275,1.6485,1.5606,1.5358,1.3634,1.2743,1.2365,1.2565,1.1633,0.9947,0.9666,0.8617,0.7163,0.6737,0.64,0.6178,0.0,0.0,0.0,0.0,0.0,0.0,0.0,0.0,0.0,0.0,0.0,0.0,0.0,0.0,0.0,0.0,0.0,0.0,2.0566,2.1963,2.3979,2.6826,2.7242,2.835,3.0381,2.97,3.0042,3.161,3.09,3.0348,2.9968,0.0,0.0,0.0,0.0,0.0,0.0,0.0,0.0,0.0,0.0,0.0,2.8026,2.7551,2.6831,2.5968,2.5423,2.4183,0.0,0.0,2.0996,1.965,1.9576,1.8452,1.6871,1.5365,1.4734,0.0,1.3523,1.2782,0.0,0.0,1.3353,1.402,1.4003,1.4139,1.4223,1.3794,1.3745,1.4144,1.5397,1.6281,1.7108,0.0,1.909,1.963,1.9233,1.9305,1.8994,1.7786,1.8934,1.9615,1.8789,1.9283,1.9742,2.0021,2.038,2.0845,2.1645,2.1362,2.1336,2.1645,2.0994,2.0523,2.0292,1.9547,1.8982,1.8588,1.7929,1.7945,1.8439,1.6561,1.5206,1.4308,1.3454,1.2516,1.1645,1.2289,1.1502,0.9884,0.9787,0.9085,0.8005,0.7191,0.6818,0.6683,0.0,0.0,0.0,0.0,0.0,0.0,0.0,0.0,0.0,0.0,0.0,0.0,0.0,0.0,0.0,0.0,0.0,0.0,0.0,2.087,2.2917,2.5595,2.6072,0.0,2.9258,2.8827,2.9177,3.0424,2.9682,2.9175,2.8904,2.8296,0.0,0.0,0.0,0.0,0.0,0.0,0.0,0.0,0.0,0.0,2.7595,2.6433,2.5158,2.4034,2.4249,2.2972,0.0,0.0,1.9334,1.8142,1.8299,1.7335,1.5877,1.4898,1.4603,1.448,1.3616,0.0,0.0,1.3907,1.5189,1.6077,1.5241,1.537,1.5387,1.4685,1.4063,1.416,1.5571,1.5665,1.5987,1.7117,1.7898,1.813,1.7727,1.7855,1.7577,1.6069,1.6628,1.7056,1.6753,1.7435,1.8228,1.8887,1.9264,1.986,2.09,2.112,2.1311,2.1405,2.096,2.0634,2.0454,1.971,1.9136,1.8751,1.8045,1.7946,1.8442,1.6745,1.5064,1.3552,1.342,1.2622,1.149,1.2168,1.1465,0.9895,0.9895,0.9296,0.8286,0.7413,0.707,0.7021,0.0,0.0,0.0,0.0,0.0,0.0,0.0,0.0,0.0,0.0,0.0,0.0,0.0,0.0,0.0,0.0,0.0,0.0,0.0,1.9208,2.0705,2.146,2.2717,2.4379,2.6366,2.6472,2.7149,2.8488,2.8535,2.8248,2.7649,2.7428,2.6677,0.0,0.0,0.0,0.0,0.0,0.0,0.0,0.0,0.0,2.5746,2.4622,2.3119,2.1681,2.2243,0.0,0.0,0.0,1.7331,1.6287,1.682,1.6208,0.0,1.5034,1.4408,0.0,0.0,0.0,1.4533,1.5947,1.6383,1.6505,1.694,1.736,1.7453,1.6718,1.5972,1.5431,1.5738,1.5337,1.5335,1.6119,1.6873,1.7443,1.7831,1.694,1.6155,1.5629,1.4663,1.3926,0.0,1.6296,1.7838,1.7426,1.8644,1.9653,1.991,2.059,2.1054,2.1396,2.0694,2.0489,2.0857,2.0103,1.9538,1.9153,1.8768,1.8482,1.8371,1.6992,1.5323,1.3559,1.3552,1.3041,1.2325,1.2612,1.1639,0.9895,0.9895,0.8917,0.7561,0.7472,0.7362,0.7192,0.0,0.0,0.0,0.0,0.0,0.0,0.0,0.0,0.0,0.0,0.0,0.0,0.0,0.0,0.0,0.0,0.0,0.0,0.0,1.8084,1.8961,2.0582,2.0643,2.1615,2.3594,2.3493,2.4594,2.7026,2.6129,2.6016,2.6639,2.6167,2.5735,2.5439,0.0,0.0,0.0,0.0,0.0,0.0,0.0,0.0,2.5627,2.305,2.1223,1.9938,0.0,0.0,0.0,0.0,1.5835,1.4381,1.512,0.0,0.0,1.397,1.3904,1.3832,1.4836,0.0,1.6269,1.7184,1.7538,1.7443,1.6941,1.6657,1.6118,1.5021,1.4492,1.4214,1.4216,1.417,1.4047,1.4328,1.5038,1.5395,1.4826,1.4848,1.4597,1.3572,1.3582,0.0,0.0,0.0,0.0,1.6365,1.6834,1.7501,1.8512,1.8494,1.8551,1.8659,1.8443,1.8381,1.8505,1.7964,1.7563,1.7296,1.6947,1.6307,1.5362,1.5532,1.4951,1.3664,1.3645,1.2842,1.1606,1.247,1.1645,0.9895,0.9895,0.914,0.8008,0.7484,0.7222,0.7239,0.0,0.0,0.0,0.0,0.0,0.0,0.0,0.0,0.0,0.0,0.0,0.0,0.0,0.0,0.0,0.0,0.0,0.0,0.0,0.0,1.6976,1.8053,1.8408,1.9221,2.0702,2.1022,2.21,2.3899,2.2914,2.2849,2.3596,2.3194,2.3155,2.3454,2.3802,0.0,0.0,0.0,0.0,0.0,0.0,0.0,2.2897,2.0459,1.8798,0.0,0.0,0.0,0.0,0.0,0.0,0.0,0.0,1.3362,1.2791,1.3296,1.3705,1.4347,1.5815,1.6772,1.7456,1.7913,1.8224,1.806,1.6577,1.5975,1.5225,1.3744,1.3266,1.3055,1.2964,1.2711,1.2674,1.3151,1.358,1.3719,1.332,1.3779,1.3803,1.2856,1.32,1.3483,0.0,0.0,0.0,1.5168,1.5558,1.6101,1.6964,1.737,1.7369,1.7128,1.7128,1.7069,1.7051,1.6755,1.6484,1.6148,1.6029,1.534,1.4154,1.512,1.4861,1.373,1.382,1.3007,1.167,1.1972,1.1165,0.9719,0.9412,0.8763,0.7977,0.7442,0.7209,0.7269,0.0,0.0,0.0,0.0,0.0,0.0,0.0,0.0,0.0,0.0,0.0,0.0,0.0,0.0,0.0,0.0,0.0,0.0,0.0,0.0,0.0,1.4175,1.601,1.7257,1.7695,1.8997,1.9602,1.9498,1.9059,1.8878,1.895,1.8877,1.9193,1.9795,2.0143,2.1118,0.0,0.0,0.0,0.0,0.0,0.0,1.7935,1.6987,0.0,0.0,0.0,0.0,0.0,0.0,0.0,0.0,0.0,1.2852,1.2946,1.2995,1.3825,1.4976,1.6427,1.742,1.8037,1.8177,1.8407,1.8095,1.5913,1.5351,1.4805,1.3016,1.2451,1.2168,0.0,0.0,1.1079,1.2415,1.2392,1.2535,1.3297,1.3638,1.371,0.0,0.0,0.0,0.0,0.0,0.0,1.3695,0.0,1.5364,1.52,1.6672,1.7283,1.6653,1.6632,1.648,1.6168,1.6147,1.5987,1.5676,1.5826,1.5397,1.4649,1.536,1.4925,1.358,1.3851,1.3349,1.2273,1.1241,1.0288,0.934,0.8629,0.7862,0.7281,0.7281,0.7281,0.7319,0.0,0.0,0.0,0.0,0.0,0.0,0.0,0.0,0.0,0.0,0.0,0.0,0.0,0.0,0.0,0.0,0.0,0.0,0.0,0.0,0.0,0.0,0.0,0.0,0.0,0.0,0.0,0.0,0.0,1.7269,1.8078,1.7503,1.7705,0.0,1.8349,1.898,2.0148,1.9629,0.0,0.0,0.0,0.0,1.7206,0.0,0.0,0.0,0.0,0.0,0.0,0.0,0.0,0.0,0.0,1.2304,1.2228,1.2988,1.3685,1.4486,1.5393,1.6835,1.801,1.7908,1.7587,1.7002,1.59,1.4643,1.341,1.262,1.1884,1.1274,0.0,0.0,0.0,1.1384,1.1798,0.0,1.202,1.2406,0.0,1.1086,0.0,1.1231,1.1281,1.1241,0.0,0.0,1.2559,1.2919,1.2331,1.264,1.2753,1.2543,1.2538,1.2423,1.2188,1.2013,1.2159,1.2803,1.2608,1.2525,1.2537,1.2689,1.2302,1.1413,1.1456,1.1245,1.0778,1.0532,0.9774,0.8738,0.85,0.7881,0.7109,0.7109,0.7195,0.7357,0.0,0.0,0.0,0.0,0.0,0.0,0.0,0.0,0.0,0.0,0.0,0.0,0.0,0.0,0.0,0.0,0.0,0.0,0.0,0.0,0.0,0.0,0.0,0.0,0.0,0.0,0.0,0.0,0.0,0.0,0.0,1.3055,1.3182,1.3982,1.3963,1.457,1.5568,0.0,0.0,0.0,0.0,0.0,0.0,0.0,0.0,0.0,0.0,0.0,0.0,0.0,0.0,1.1302,1.1713,1.2027,1.2355,1.3334,0.0,1.4792,1.5792,1.7028,1.7826,1.7154,1.6454,1.5441,1.4145,1.2715,1.1472,1.0842,1.0153,0.0,0.0,0.0,0.0,0.0,0.0,0.0,1.0707,1.1145,1.1221,0.0,1.0138,0.0,1.0044,0.9489,0.9131,0.0,1.061,1.1292,1.0338,1.0422,1.0338,1.005,1.0041,1.019,1.0367,1.0348,1.0469,1.0896,1.0972,1.1045,1.1046,1.1227,1.1045,1.0602,0.0,1.0403,1.0036,0.9531,0.8963,0.8288,0.7959,0.7502,0.7059,0.7059,0.6892,0.6721,0.0,0.0,0.0,0.0,0.0,0.0,0.0,0.0,0.0,0.0,0.0,0.0,0.0,0.0,0.0,0.0,0.0,0.0,0.0,0.0,0.0,0.0,0.0,0.0,0.0,0.0,0.0,0.0,0.0,0.0,0.0,0.0,0.0,0.0,0.0,0.0,0.0,0.0,0.0,0.0,0.0,0.0,0.0,0.0,0.0,0.0,0.0,0.0,0.0,0.0,0.9619,1.0838,1.129,1.197,1.2725,1.3642,1.4423,1.5148,1.5991,1.6763,1.7057,1.5817,1.4889,1.3665,1.1645,1.0382,0.9329,0.8708,0.0,0.7691,0.7698,0.7126,0.6812,0.7449,0.0,0.8161,0.8857,0.9371,0.9839,1.0031,0.92,0.8687,0.8754,0.7754,0.6757,0.5887,0.8254,0.9344,0.8664,0.8874,0.8787,0.8544,0.8513,0.882,0.9492,0.9757,0.9851,0.9753,1.0206,1.0299,1.0074,1.0395,1.0472,1.015,1.0201,0.9989,0.9573,0.856,0.8056,0.7979,0.7235,0.6964,0.6877,0.6894,0.6343,0.5606,0.0,0.0,0.0,0.0,0.0,0.0,0.0,0.0,0.0,0.0,0.0,0.0,0.0,0.0,0.0,0.0,0.0,0.0,0.0,0.0,0.0,0.0,0.0,0.0,0.0,0.0,0.0,0.0,0.0,0.0,0.0,0.0,0.0,0.0,0.0,0.0,0.0,0.0,0.0,0.0,0.0,0.0,0.0,0.0,0.0,0.0,0.0,0.0,0.0,0.0,0.8575,1.0792,1.2048,1.249,1.2529,1.263,1.3188,1.3537,1.224,1.309,1.3892,1.2495,1.1935,1.1429,1.0509,0.9538,0.0,0.0,0.0,0.7091,0.6841,0.6125,0.5687,0.6007,0.0,0.0,0.0,0.0,0.651,0.0,0.0,0.0,0.0,0.0,0.0,0.0,0.0,0.4382,0.549,0.5623,0.587,0.6379,0.6274,0.6646,0.7577,0.7878,0.8228,0.8715,0.9042,0.9233,0.9354,0.9042,0.8792,0.8454,0.7942,0.0,0.8158,0.7537,0.7457,0.7562,0.7427,0.6783,0.6,0.6096,0.5557,0.4701,0.0,0.0,0.0,0.0,0.0,0.0,0.0,0.0,0.0,0.0,0.898,0.9776,0.0,0.0,0.0,0.0,0.0,0.0,0.0,0.0,0.0,0.0,0.0,0.0,0.0,0.0,0.0,0.0,0.0,0.0,0.0,0.0,0.0,0.0,0.0,0.0,0.0,0.0,0.0,0.0,0.0,0.0,0.0,0.0,0.0,0.0,0.0,0.0,0.0,0.0,0.6588,0.8745,1.0533,1.1099,1.1033,1.1054,1.1545,1.1733,1.0633,1.133,1.2129,1.1423,1.0584,0.9593,0.8537,0.0,0.0,0.0,0.5163,0.4801,0.5009,0.0,0.0,0.0,0.0,0.0,0.0,0.0,0.0,0.0,0.0,0.0,0.0,0.0,0.0,0.0,0.0,0.0899,0.3172,0.3665,0.3971,0.4404,0.527,0.5985,0.6602,0.7054,0.7584,0.8201,0.8112,0.8196,0.845,0.8099,0.7608,0.7003,0.7058,0.0,0.6073,0.6308,0.6152,0.5896,0.5828,0.5443,0.4904,0.4619,0.3638,0.2503,0.0,0.0,0.0,0.0,0.0,0.0,0.0,0.4587,0.509,0.577,0.5984,0.6721,0.8504,0.9072,0.0,0.0,0.0,0.0,0.0,0.0,0.0,0.0,0.0,0.0,0.0,0.0,0.0,0.0,0.0,0.0,0.0,0.0,0.0,0.0,0.0,0.0,0.0,0.0,0.0,0.0,0.0,0.0,0.0,0.0,0.0,0.0,0.0,0.0,0.0,0.0,0.4033,0.5716,0.7633,0.8856,0.9547,0.9297,0.9856,1.0315,0.9356,0.9753,1.0343,0.9912,0.8818,0.7421,0.6228,0.5108,0.0,0.0,0.301,0.279,0.3113,0.0,0.0,0.0,0.0,0.0,0.0,0.0,0.0,0.0,0.0,0.0,0.0,0.0,0.0,0.0,0.0,-0.1682,0.146,0.2072,0.2509,0.3008,0.4369,0.5361,0.598,0.6602,0.7228,0.7764,0.7534,0.7427,0.7363,0.7184,0.6596,0.5831,0.6289,0.0,0.0,0.491,0.4663,0.402,0.3924,0.3633,0.3191,0.269,0.1225,-0.0427,0.0,0.0,0.0,0.0,0.0,0.0,0.0,0.2077,0.2105,0.2173,0.2471,0.2539,0.2283,0.4362,0.0,0.0,0.0,0.0,0.0,0.0,0.0,0.0,0.0,0.0,0.0,0.0,0.0,0.0,0.0,0.0,0.0,0.0,0.0,0.0,0.0,0.0,0.0,0.0,0.0,0.0,0.0,0.0,0.0,0.0,0.0,0.0,0.0,0.0,0.0,0.0,0.0,0.1894,0.3214,0.6146,0.8817,0.7585,0.0,0.0,0.7057,0.713,0.756,0.5588,0.487,0.4419,0.384,0.0,0.0,0.2849,0.2736,0.2512,0.1893,0.1286,0.0,0.0,0.0,0.0,0.0,0.0,0.0,0.0,0.0,0.0,0.0,0.0,0.0,0.0,0.0,-0.3397,0.0287,0.0562,0.1285,0.2886,0.3053,0.4026,0.5719,0.6242,0.6688,0.7139,0.7602,0.7324,0.6444,0.6082,0.5626,0.4984,0.4693,0.0,0.0,0.3464,0.3089,0.2693,0.2507,0.138,-0.0178,0.0,-0.1642,-0.4062,0.0,0.0,0.0,0.0,0.0,0.0,0.0,-0.0257,-0.0511,-0.1111,-0.0594,-0.0984,-0.3172,-0.1716,-0.0252,0.0,0.0,0.0,0.0,0.0,0.0,0.0,0.0,0.0,0.0,0.0,0.0,0.0,0.0,0.0,0.0,0.0,0.0,0.0,0.0,0.0,0.0,0.0,0.0,0.0,0.0,0.0,0.0,0.0,0.0,0.0,0.0,0.0,0.0,0.0,0.0,0.0,-0.0689,0.1305,0.0,0.0,0.5291,0.5245,0.3916,0.4053,0.4418,0.3513,0.3102,0.2676,0.1597,0.0,0.0834,0.0113,-0.0056,-0.0223,-0.0501,-0.1001,-0.17,0.0,0.0,0.0,0.0,0.0,0.0,0.0,0.0,0.0,0.0,0.0,0.0,0.0,0.0,-0.6646,-0.3969,-0.2232,-0.046,0.137,0.1983,0.2862,0.42,0.4821,0.5387,0.582,0.6019,0.5594,0.4686,0.4637,0.3542,0.1557,0.199,0.0,0.0,-0.081,-0.1263,-0.1924,-0.2627,-0.3215,-0.3784,-0.4175,-0.533,-0.6705,0.0,0.0,0.0,0.0,0.0,0.0,-0.2411,-0.2615,-0.3038,-0.3864,-0.3618,-0.43,-0.6781,-0.6203,-0.4968,-0.3353,0.0,0.0,0.0,0.0,0.0,0.0,0.0,0.0,0.0,0.0,0.0,0.0,0.0,0.0,0.0,0.0,0.0,0.0,0.0,0.0,0.0,0.0,0.0,0.0,0.0,0.0,0.0,0.0,0.0,0.0,0.0,0.0,0.0,0.0,0.0,0.0,0.0,0.0,0.0,0.0,0.2149,0.1774,0.109,0.0961,0.099,0.045,0.0165,-0.0373,0.0,0.0,-0.2167,-0.2874,-0.2973,-0.3035,-0.3254,-0.3424,-0.3747,0.0,0.0,-0.5759,0.0,0.0,0.0,0.0,0.0,0.0,0.0,0.0,0.0,0.0,-1.1461,-1.0112,-0.8255,-0.6034,-0.3406,-0.0458,0.0541,0.1611,0.2772,0.3126,0.3687,0.4468,0.4314,0.3593,0.2362,0.225,0.0629,-0.1901,-0.1784,0.0,0.0,-0.523,-0.5764,-0.6523,-0.7194,-0.7425,-0.7528,-0.7983,-0.8921,-0.9733,0.0,0.0,0.0,0.0,0.0,0.0,0.0,-0.5042,-0.5581,-0.5921,-0.6703,-0.7453,-0.8021,-0.8186,-0.8549,-0.924,0.0,0.0,0.0,0.0,0.0,0.0,0.0,0.0,0.0,0.0,0.0,0.0,0.0,0.0,0.0,0.0,0.0,0.0,0.0,0.0,0.0,0.0,0.0,0.0,0.0,0.0,0.0,0.0,0.0,0.0,0.0,0.0,0.0,0.0,0.0,0.0,0.0,0.0,0.0,0.0,-0.0264,0.0146,-0.1103,-0.1921,-0.2743,-0.4067,-0.4927,-0.5444,0.0,0.0,-0.569,-0.5924,-0.554,-0.5407,-0.612,-0.5833,-0.5873,-0.7063,0.0,0.0,0.0,0.0,0.0,0.0,0.0,0.0,0.0,0.0,0.0,0.0,-1.4754,0.0,-1.2122,-1.1029,-0.7924,-0.2235,-0.1164,0.009,0.179,0.134,0.1874,0.3212,0.276,0.1422,-0.0711,-0.1533,-0.2966,-0.4951,0.0,0.0,0.0,-0.919,-0.9848,-1.0444,-1.0105,-1.0471,-1.1263,-1.1093,-1.2177,-1.363,0.0,0.0,0.0,0.0,0.0,0.0,0.0,-0.5705,-0.6098,-0.6785,-0.726,-0.7901,-0.8878,-0.9197,-0.9579,-1.0227,0.0,0.0,0.0,0.0,0.0,0.0,0.0,0.0,0.0,0.0,0.0,0.0,0.0,0.0,0.0,0.0,0.0,0.0,0.0,0.0,0.0,0.0,0.0,0.0,0.0,0.0,0.0,0.0,0.0,0.0,0.0,0.0,0.0,0.0,0.0,0.0,0.0,0.0,0.0,0.0,0.0,0.0,-0.4229,-0.5021,-0.5895,-0.6725,-0.7468,-0.8148,-0.8632,0.0,-0.932,-0.9494,-0.9486,-0.9509,-0.9738,-0.9477,-0.9541,-1.0616,-1.0667,0.0,0.0,0.0,0.0,0.0,0.0,0.0,0.0,0.0,0.0,0.0,-1.755,-1.643,-1.511,-1.3434,-1.0135,-0.4972,-0.444,-0.3554,-0.187,-0.2167,-0.2,-0.1362,-0.1988,-0.3328,-0.5201,-0.6246,-0.817,0.0,0.0,0.0,0.0,-1.3577,-1.386,-1.4115,-1.4672,-1.4889,-1.4938,-1.4537,-1.4786,-1.5217,0.0,0.0,0.0,0.0,0.0,0.0,0.0,-0.6644,-0.6993,-0.7521,-0.8112,-0.8792,-0.9638,-1.0071,-1.047,-1.0968,0.0,0.0,0.0,0.0,0.0,0.0,0.0,0.0,0.0,0.0,0.0,0.0,0.0,0.0,0.0,0.0,0.0,0.0,0.0,0.0,0.0,0.0,0.0,0.0,0.0,0.0,-1.086,0.0,0.0,0.0,0.0,0.0,0.0,0.0,0.0,0.0,0.0,0.0,0.0,0.0,-0.9411,0.0,0.0,-0.8593,-0.9444,-1.0288,-1.1046,0.0,0.0,0.0,-1.3031,-1.3209,-1.3128,-1.3037,-1.3037,-1.2725,-1.2655,-1.335,-1.3365,0.0,0.0,0.0,0.0,0.0,0.0,0.0,0.0,0.0,0.0,-2.1364,-2.0179,-1.9192,-1.828,-1.6485,-1.3873,-1.0354,-0.8414,-0.6618,-0.5051,-0.5389,-0.5507,-0.5484,-0.6213,-0.7635,-0.9748,-1.0794,-1.2702,0.0,0.0,0.0,0.0,-1.7542,-1.7768,-1.7759,-1.8237,-1.816,-1.7745,-1.7434,-1.7243,-1.7022,0.0,0.0,0.0,0.0,0.0,0.0,0.0,0.0,0.0,0.0,-0.9174,-0.9995,-1.031,-1.0787,-1.1192,0.0,0.0,0.0,0.0,0.0,0.0,0.0,0.0,0.0,0.0,0.0,0.0,0.0,-1.1404,-1.1422,-1.1429,0.0,0.0,0.0,0.0,0.0,0.0,0.0,0.0,0.0,0.0,0.0,0.0,0.0,0.0,0.0,0.0,0.0,0.0,0.0,0.0,0.0,0.0,0.0,0.0,0.0,0.0,0.0,0.0,0.0,0.0,0.0,0.0,0.0,0.0,0.0,0.0,0.0,-1.6392,-1.6036,-1.6103,-1.5673,-1.5385,-1.5626,0.0,0.0,0.0,0.0,0.0,0.0,0.0,0.0,0.0,0.0,-2.3902,-2.4039,-2.2798,-2.1842,-2.1511,-2.0162,-1.8815,-1.7641,-1.3112,-0.9857,-0.7989,-0.8723,-0.9134,-0.9289,-1.0113,-1.1843,-1.4216,-1.5273,-1.656,0.0,0.0,0.0,0.0,-2.1007,-2.1173,-2.1128,-2.0722,-2.0239,-1.9694,-1.9677,-1.9379,-1.8904,0.0,0.0,0.0,0.0,0.0,0.0,0.0,0.0,0.0,0.0,0.0,-0.9905,-1.0534,-1.0753,0.0,0.0,0.0,0.0,0.0,0.0,0.0,0.0,0.0,0.0,0.0,0.0,0.0,-1.1632,-1.2176,-1.2212,-1.1808,-1.2783,0.0,0.0,0.0,0.0,0.0,0.0,0.0,0.0,0.0,0.0,0.0,0.0,0.0,0.0,-1.3151,-1.2908,0.0,0.0,0.0,0.0,0.0,0.0,0.0,0.0,-1.4683,-1.5163,-1.5759,0.0,-1.4851,-1.5556,-1.6672,0.0,0.0,0.0,0.0,0.0,0.0,0.0,0.0,0.0,0.0,0.0,0.0,0.0,0.0,0.0,0.0,0.0,0.0,0.0,0.0,0.0,-2.7428,-2.6873,-2.62,-2.5442,-2.4548,-2.3744,-2.268,-2.137,-2.0107,-1.7639,-1.3857,-1.4176,-1.4552,-1.4955,-1.5583,-1.6829,-1.849,-1.9421,-2.0449,0.0,0.0,0.0,-2.219,-2.1957,-2.1883,-2.1835,-2.1278,-2.1018,-2.0783,-1.9977,-1.9606,-1.944,0.0,0.0,0.0,0.0,0.0,0.0,0.0,0.0,0.0,0.0,0.0,0.0,0.0,0.0,0.0,0.0,0.0,0.0,0.0,0.0,0.0,0.0,0.0,0.0,0.0,0.0,0.0,0.0,0.0,-1.2639,0.0,0.0,0.0,0.0,0.0,0.0,0.0,0.0,0.0,0.0,-1.3004,0.0,0.0,0.0,0.0,0.0,-1.3708,-1.3493,0.0,-1.4024,-1.425,-1.4356,0.0,0.0,0.0,0.0,-1.6161,-1.66,-1.7144,-1.6818,-1.6523,-1.7194,-1.814,-1.8939,0.0,0.0,0.0,0.0,0.0,0.0,0.0,0.0,0.0,0.0,0.0,0.0,0.0,0.0,0.0,0.0,0.0,0.0,0.0,0.0,-2.8562,-2.8322,-2.7248,-2.6395,-2.6,-2.5356,-2.4825,-2.4566,-2.4425,-2.2418,-1.8284,-1.825,-1.8628,-1.9315,-1.9958,-2.0907,-2.2058,-2.2983,-2.3628,0.0,0.0,0.0,-2.4175,-2.3923,-2.3807,-2.3742,-2.2924,-2.2439,-2.2094,-2.1227,-2.0703,-2.0488,0.0,0.0,0.0,0.0,0.0,0.0,0.0,0.0,0.0,0.0,0.0,0.0,0.0,0.0,0.0,0.0,0.0,0.0,0.0,0.0,0.0,0.0,0.0,0.0,0.0,0.0,0.0,0.0,0.0,0.0,0.0,0.0,0.0,0.0,0.0,0.0,-1.1925,0.0,0.0,0.0,-1.3199,0.0,0.0,0.0,0.0,0.0,0.0,0.0,0.0,-1.4993,-1.5317,-1.5351,-1.6331,0.0,0.0,0.0,0.0,0.0,-1.7557,-1.7747,-1.8064,-1.8765,-1.9332,-1.9797,0.0,0.0,0.0,0.0,0.0,0.0,0.0,0.0,0.0,0.0,0.0,0.0,0.0,0.0,0.0,0.0,0.0,0.0,0.0,-3.0375,-2.9173,-2.9611,-2.7889,-2.693,-2.7258,-2.6603,-2.6629,-2.7314,-2.7314,-2.5791,-2.251,-2.2082,-2.2271,-2.3139,-2.3733,-2.4411,-2.515,-2.5687,-2.5909,-2.5837,0.0,0.0,-2.5837,-2.5837,-2.5837,-2.5672,-2.4517,-2.3767,-2.3221,-2.2501,-2.1942,-2.1541,0.0,0.0,0.0,0.0,0.0,0.0,0.0,0.0,0.0,0.0,0.0,0.0,0.0,0.0,0.0,0.0,0.0,0.0,0.0,0.0,0.0,0.0,0.0,0.0,0.0,0.0,0.0,0.0,0.0,0.0,-1.4125,-1.5812,-1.5892,0.0,0.0,0.0,-1.2043,-1.3081,-1.3108,-1.2538,-1.3982,0.0,0.0,0.0,0.0,0.0,0.0,0.0,0.0,-1.4411,-1.4849,-1.5221,-1.5407,0.0,0.0,0.0,0.0,0.0,-1.8344,-1.8831,-1.9332,-1.9124,-1.9384,-1.9833,0.0,0.0,0.0,0.0,0.0,0.0,0.0,0.0,0.0,0.0,0.0,0.0,0.0,0.0,0.0,0.0,0.0,0.0,-3.2935,-3.2705,-3.2514,-3.2365,-3.1288,-3.0581,-3.0658,-3.0063,-2.9785,-2.9922,-2.9771,-2.9378,-2.883,-2.7367,-2.7039,-2.7849,-2.7363,-2.7257,-2.7565,-2.6946,-2.6455,-2.6133,0.0,-2.5972,-2.5972,-2.5972,-2.5877,-2.5671,-2.4483,-2.3942,-2.3755,-2.256,-2.2072,-2.1988,0.0,0.0,0.0,0.0,0.0,0.0,0.0,0.0,0.0,0.0,0.0,0.0,0.0,0.0,0.0,0.0,0.0,0.0,0.0,0.0,0.0,0.0,0.0,0.0,0.0,0.0,0.0,0.0,0.0,-1.4809,-1.4806,-1.6258,-1.6409,-1.5394,0.0,-1.376,-1.2782,-1.3768,-1.3685,-1.3051,0.0,0.0,0.0,0.0,0.0,0.0,0.0,0.0,0.0,0.0,-1.5371,-1.5813,-1.653,0.0,0.0,0.0,0.0,0.0,-1.8822,-1.9109,-1.9368,-1.9028,-1.9491,-2.0131,0.0,0.0,0.0,0.0,0.0,0.0,0.0,0.0,0.0,0.0,0.0,0.0,0.0,0.0,0.0,0.0,0.0,-3.2338,-3.4074,-3.2844,-3.2104,-3.2514,-3.1406,-3.0701,-3.0884,-3.0534,-3.0555,-3.0999,-3.1217,-3.1474,-3.1814,-3.1038,-3.0263,-2.9496,-2.9519,-2.9202,-2.8565,-2.8525,-2.8012,-2.7174,0.0,-2.6865,-2.6571,-2.6924,-2.6608,-2.5833,-2.4959,-2.4428,-2.3995,-2.3057,-2.286,-2.3098,0.0,0.0,0.0,0.0,0.0,0.0,0.0,0.0,0.0,0.0,0.0,0.0,0.0,0.0,0.0,0.0,0.0,0.0,0.0,0.0,0.0,0.0,0.0,0.0,0.0,0.0,-1.4056,-1.4384,-1.4806,-1.5273,-1.5769,-1.6244,-1.6365,0.0,0.0,-1.4725,-1.3834,-1.4475,-1.429,-1.3724,0.0,0.0,0.0,0.0,0.0,0.0,0.0,0.0,0.0,0.0,0.0,0.0,0.0,0.0,0.0,-1.855,-1.8965,-1.9273,-1.9258,-1.9406,-1.9453,-1.9303,0.0,0.0,0.0,0.0,0.0,0.0,0.0,0.0,0.0,0.0,0.0,0.0,0.0,0.0,0.0,0.0,-3.118,-3.327,-3.2467,-3.2657,-3.4865,-3.2898,-3.1777,-3.2437,-3.1279,-3.0674,-3.0925,-3.0925,-3.1217,-3.1849,-3.2261,-3.2651,-3.3153,-3.2839,-3.2037,-3.0749,-3.0924,-3.0443,-2.9327,-2.9652,-2.9179,-2.8103,-2.8054,-2.7722,-2.7223,-2.7646,-2.7174,-2.6062,-2.5529,-2.4927,-2.4356,-2.3859,-2.3879,-2.4078,0.0,0.0,0.0,0.0,0.0,0.0,0.0,0.0,0.0,0.0,0.0,0.0,0.0,0.0,0.0,0.0,0.0,0.0,0.0,0.0,0.0,0.0,0.0,0.0,0.0,-1.3949,-1.4535,-1.5859,-1.5751,-1.6312,-1.7393,-1.6289,-1.6249,-1.706,0.0,-1.5383,-1.5267,-1.5561,-1.5233,-1.4572,-1.5553,0.0,0.0,0.0,0.0,0.0,0.0,0.0,0.0,0.0,0.0,0.0,0.0,0.0,-1.8006,-1.7578,-1.8515,-1.9752,-1.9829,-2.0104,-2.0444,-2.0548,0.0,0.0,0.0,0.0,0.0,0.0,0.0,0.0,0.0,0.0,0.0,0.0,0.0,0.0,0.0,0.0,-3.2983,-3.3777,-3.3768,-3.3976,-3.4678,-3.3975,-3.3413,-3.3341,-3.2655,-3.2216,-3.2272,-3.2718,-3.3024,-3.3093,-3.2908,-3.2869,-3.2934,-3.1801,-3.1832,-3.2955,-3.1736,-3.0876,-3.0293,-2.9459,-2.8839,-2.8348,-2.825,-2.8028,-2.7732,-2.7411,-2.6995,-2.6479,-2.5843,-2.5378,-2.5114,-2.5067,-2.4831,-2.4542,0.0,0.0,0.0,0.0,0.0,0.0,0.0,0.0,0.0,0.0,0.0,0.0,0.0,0.0,0.0,0.0,0.0,0.0,0.0,0.0,0.0,0.0,0.0,-1.5296,-1.503,-1.536,-1.5837,-1.6501,-1.6528,-1.6813,-1.7287,-1.6971,0.0,0.0,0.0,-1.6306,-1.5807,-1.6378,-1.619,-1.558,-1.6245,-1.6378,0.0,0.0,0.0,0.0,0.0,0.0,0.0,0.0,-1.6923,-1.6909,0.0,-1.8125,-1.8407,-1.9101,-1.9722,-2.0224,-2.0258,-2.0444,-2.0534,-2.0128,0.0,0.0,0.0,0.0,0.0,0.0,0.0,0.0,0.0,0.0,0.0,0.0,0.0,0.0,-3.1025,-3.1789,-3.2647,-3.3802,-3.3552,-3.3497,-3.4125,-3.3621,-3.3123,-3.2835,-3.262,-3.2376,-3.2151,-3.2367,-3.2416,-3.2318,-3.2592,-3.2725,-3.2725,-3.1981,-3.1871,-3.24,-3.1239,-3.0391,-2.9797,-2.9434,-2.8943,-2.8396,-2.8637,-2.8185,-2.7391,-2.8376,-2.7683,-2.5903,-2.5632,-2.575,-2.6041,-2.5551,-2.5313,-2.516,0.0,0.0,0.0,0.0,0.0,0.0,0.0,0.0,0.0,0.0,0.0,0.0,0.0,0.0,0.0,0.0,0.0,0.0,0.0,0.0,0.0,0.0,0.0,-1.5749,-1.607,-1.631,-1.655,-1.6789,-1.6968,-1.7052,-1.7109,0.0,0.0,0.0,0.0,0.0,0.0,-1.6986,-1.6904,-1.6535,-1.6873,-1.6952,0.0,0.0,0.0,0.0,0.0,0.0,0.0,0.0,-1.7745,0.0,0.0,0.0,-1.9014,-1.9814,-2.0208,-2.0382,-2.0414,-2.0479,-2.0416,0.0,0.0,0.0,0.0,0.0,0.0,0.0,0.0,0.0,0.0,0.0,0.0,0.0,0.0,-2.9624,-3.0847,-3.1494,-3.2199,-3.3177,-3.2735,-3.2535,-3.2951,-3.2719,-3.2424,-3.2171,-3.2271,-3.2257,-3.2055,-3.2177,-3.2223,-3.2131,-3.2415,-3.2577,-3.2577,-3.1874,-3.1536,-3.1536,-3.072,-3.0011,-2.9412,-2.951,-2.92,-2.8668,-2.9136,-2.8738,-2.7827,-2.8753,-2.7916,-2.6048,-2.633,-2.6667,-2.6939,-2.6714,-2.6208,-2.5721,0.0,0.0,0.0,0.0,0.0,0.0,0.0,0.0,0.0,0.0,0.0,0.0,0.0,0.0,0.0,0.0,0.0,0.0,0.0,0.0,0.0,0.0,0.0,-1.6095,-1.7069,-1.6588,-1.6479,-1.6815,-1.7002,-1.7126,-1.7093,-1.677,0.0,0.0,0.0,0.0,0.0,0.0,-1.7344,-1.7408,-1.7408,-1.7344,-1.7296,0.0,0.0,0.0,0.0,0.0,0.0,0.0,-1.8222,-1.813,0.0,0.0,0.0,-1.928,-1.957,-2.0118,-2.0192,-2.0221,-2.0192,0.0,0.0,0.0,0.0,0.0,0.0,0.0,0.0,0.0,0.0,0.0,0.0,-2.8174,-2.9476,-3.0625,-3.1378,-3.172,-3.1868,-3.1868,-3.1469,-3.1142,-3.1008,-3.1405,-3.1614,-3.139,-3.1834,-3.2112,-3.2112,-3.2608,-3.2887,-3.2887,-3.2693,-3.2576,-3.2576,-3.1358,-3.0771,-3.0788,-3.0327,-2.9849,-2.9431,-2.9683,-2.9572,-2.912,-2.9617,-2.9646,-2.9294,-2.8184,-2.7506,-2.7296,-2.8118,-2.8156,-2.7926,-2.8704,-2.778,-2.6203,0.0,0.0,0.0,0.0,0.0,0.0,0.0,0.0,0.0,0.0,0.0,0.0,0.0,0.0,0.0,0.0,0.0,0.0,0.0,0.0,0.0,0.0,0.0,0.0,0.0,0.0,-1.7736,-1.7636,-1.7479,-1.7486,0.0,0.0,0.0,-1.7772,0.0,0.0,0.0,0.0,-1.7816,-1.7878,-1.7726,-1.7658,-1.7595,0.0,0.0,0.0,0.0,0.0,0.0,0.0,0.0,0.0,0.0,0.0,0.0,-2.0033,-2.0291,-2.0455,-2.0484,-2.0484,0.0,0.0,0.0,0.0,0.0,0.0,0.0,0.0,0.0,0.0,0.0,0.0,0.0,-2.7408,-2.7888,-2.8543,-2.9725,-3.0029,-3.0274,-3.0713,-3.0718,-3.0658,-3.0514,-3.0675,-3.0876,-3.1099,-3.1225,-3.1448,-3.1708,-3.1409,-3.1193,-3.1133,-3.0537,-3.0219,-3.0219,-2.9517,-2.9477,-3.0034,-2.9326,-2.9305,-2.9891,-2.9973,-2.9658,-2.9059,-2.9535,-2.9081,-2.7998,-2.7961,-2.8564,-2.9417,-2.913,-2.927,-2.9583,-2.931,-2.849,-2.7538,0.0,0.0,0.0,0.0,0.0,0.0,0.0,0.0,0.0,0.0,0.0,0.0,0.0,0.0,0.0,0.0,0.0,0.0,0.0,0.0,0.0,0.0,0.0,0.0,0.0,-1.8153,-1.841,0.0,0.0,0.0,0.0,0.0,0.0,-1.7856,0.0,-1.79,0.0,0.0,-1.807,-1.813,-1.8005,-1.7922,-1.79,0.0,0.0,0.0,0.0,0.0,0.0,0.0,0.0,0.0,0.0,0.0,0.0,-2.0317,-2.0177,-1.9927,-1.9927,0.0,0.0,0.0,0.0,0.0,0.0,0.0,0.0,0.0,0.0,0.0,0.0,0.0,0.0,-2.7486,-2.7587,-2.7878,-2.8646,-2.8892,-2.908,-2.9441,-2.9605,-2.9629,-2.9566,-2.9726,-2.9978,-3.0209,-3.0415,-3.0617,-3.0869,-3.0455,-3.0248,-3.03,-2.985,-2.9657,-2.9772,-2.9487,-2.9575,-3.004,-2.9558,-2.9677,-3.0279,-2.9928,-2.9413,-2.8841,-2.9302,-2.8629,-2.7315,-2.8323,-2.8853,-2.9074,-2.9369,-2.9506,-2.9467,-2.9349,-2.8801,-2.8118,0.0,0.0,0.0,0.0,0.0,0.0,0.0,0.0,0.0,0.0,0.0,0.0,0.0,0.0,0.0,0.0,0.0,0.0,0.0,0.0,0.0,0.0,0.0,0.0,0.0,0.0,0.0,0.0,0.0,0.0,0.0,0.0,-1.7856,-1.7905,0.0,-1.7966,0.0,-1.8113,-1.8151,-1.8232,-1.8232,-1.8232,-1.8215,-1.8155,0.0,0.0,0.0,0.0,0.0,0.0,0.0,0.0,-2.0611,-2.0822,-2.0847,-2.0374,-1.9653,-1.9043,0.0,0.0,0.0,0.0,0.0,0.0,0.0,0.0,0.0,0.0,0.0,0.0,0.0,-2.8238,-2.7674,-2.7861,-2.7951,-2.796,-2.7906,-2.8012,-2.8097,-2.808,-2.8151,-2.8166,-2.8146,-2.854,-2.8887,-2.899,-2.9417,-2.9702,-2.9892,-2.9789,-2.9899,-3.0128,-3.0057,-3.0125,-3.037,-3.0399,-3.0406,-3.0478,-3.0406,-3.0435,-3.0449,-2.9704,-2.9055,-2.8592,-2.8954,-2.8356,-2.724,-2.8947,-2.8707,-2.741,-2.9166,-2.924,-2.8424,-2.9128,-2.887,-2.8168,0.0,0.0,0.0,0.0,0.0,0.0,0.0,0.0,0.0,0.0,0.0,0.0,0.0,0.0,0.0,0.0,0.0,0.0,0.0,0.0,0.0,0.0,0.0,0.0,0.0,0.0,0.0,0.0,0.0,0.0,0.0,0.0,0.0,-1.7905,0.0,-1.7966,-1.8113,-1.8113,-1.8239,-1.8443,-1.8443,-1.8443,-1.8443,-1.8406,-1.8243,0.0,0.0,0.0,0.0,0.0,0.0,0.0,-2.1936,-2.1795,-2.1353,-2.1301,-2.07,-2.0082,0.0,-1.9774,0.0,0.0,0.0,0.0,0.0,0.0,0.0,0.0,0.0,0.0,-2.6627,-2.644,-2.6333,-2.6383,-2.6408,-2.639,-2.6365,-2.6433,-2.6488,-2.6419,-2.6517,-2.6472,-2.6144,-2.6453,-2.7065,-2.8087,-2.8404,-2.9109,-3.0356,-2.9822,-2.9522,-2.9579,-2.9016,-2.8739,-2.8775,-2.8775,-2.908,-2.9645,-2.9062,-2.9098,-2.9663,-3.0107,-2.9887,-2.9172,-2.8703,-2.8276,-2.8007,-2.9045,-2.9247,-2.9,-3.0024,-3.0261,-3.0004,-2.9976,-2.9429,-2.8638,0.0,0.0,0.0,0.0,0.0,0.0,0.0,0.0,0.0,0.0,0.0,0.0,0.0,0.0,0.0,0.0,0.0,0.0,0.0,0.0,0.0,0.0,0.0,0.0,0.0,0.0,0.0,0.0,0.0,0.0,0.0,0.0,0.0,-1.7944,0.0,-1.7988,-1.8151,-1.8218,-1.8345,-1.8505,-1.8601,-1.8641,-1.8639,-1.8544,-1.8633,-1.8818,-1.8702,0.0,0.0,0.0,0.0,0.0,0.0,0.0,-2.1507,-2.1583,-2.1142,-2.0563,0.0,0.0,0.0,0.0,0.0,0.0,0.0,0.0,0.0,0.0,0.0,0.0,-2.6348,-2.6241,-2.6068,-2.5838,-2.5804,-2.5658,-2.5275,-2.5463,-2.5633,-2.5611,-2.5891,-2.6009,-2.5815,-2.5955,-2.6321,-2.6994,-2.7176,-2.7619,-2.8466,-2.8095,-2.7936,-2.8058,-2.8064,-2.8111,-2.8251,-2.8636,-2.9038,-2.9417,-2.9044,-2.886,-2.8887,-2.9313,-2.9278,-2.8847,-2.8478,-2.8083,-2.7787,-2.8699,-2.8773,-2.8452,-2.9403,-2.9656,-2.9446,-2.9362,-2.924,-2.9006,0.0,0.0,0.0,0.0,0.0,0.0,0.0,0.0,0.0,0.0,0.0,0.0,0.0,0.0,0.0,0.0,0.0,0.0,0.0,0.0,0.0,0.0,0.0,0.0,0.0,0.0,0.0,0.0,0.0,0.0,0.0,0.0,0.0,-1.8117,0.0,0.0,-1.8319,-1.8365,-1.8485,-1.862,-1.8932,-1.9058,-1.9057,-1.9032,-1.9376,-1.9773,-1.8934,-1.9464,-2.0596,-2.0788,0.0,0.0,0.0,0.0,-2.1798,-2.1906,-2.1552,-2.1036,0.0,0.0,0.0,0.0,0.0,0.0,0.0,0.0,0.0,0.0,0.0,-2.6158,-2.6451,-2.6279,-2.5961,-2.5579,-2.5503,-2.5243,-2.4591,-2.4875,-2.5165,-2.5165,-2.5549,-2.5819,-2.5774,-2.5819,-2.5873,-2.5955,-2.6063,-2.6202,-2.633,-2.6334,-2.6444,-2.6668,-2.7311,-2.7763,-2.7978,-2.8649,-2.8984,-2.8984,-2.9043,-2.8726,-2.8072,-2.8082,-2.8087,-2.8087,-2.8087,-2.7725,-2.7224,-2.8054,-2.8012,-2.7465,-2.8434,-2.8651,-2.8478,-2.8504,-2.8825,-2.9161,0.0,0.0,0.0,0.0,0.0,0.0,0.0,0.0,0.0,0.0,0.0,0.0,0.0,0.0,0.0,0.0,0.0,0.0,0.0,0.0,0.0,0.0,0.0,0.0,0.0,0.0,0.0,0.0,0.0,0.0,0.0,0.0,0.0,-1.8603,0.0,0.0,0.0,-1.8544,-1.8659,-1.9001,-1.9794,-2.0101,-2.0173,-2.0843,-2.1054,-2.0968,-2.0822,-2.0485,-2.0271,-2.1428,-2.1427,0.0,0.0,0.0,-2.2919,-2.3176,-2.2758,-2.2195,0.0,0.0,0.0,0.0,0.0,0.0,0.0,0.0,0.0,0.0,-2.4785,-2.4866,-2.4899,-2.4883,-2.4828,-2.4769,-2.4698,-2.4625,-2.4513,-2.4555,-2.4596,-2.4596,-2.4671,-2.4617,-2.4389,-2.458,-2.4931,-2.5439,-2.5727,-2.6154,-2.686,-2.6879,-2.6898,-2.6953,-2.7065,-2.7121,-2.7158,-2.727,-2.7326,-2.7326,-2.7326,-2.727,-2.7177,-2.7177,-2.7176,-2.7176,-2.7176,-2.7119,-2.7025,-2.7158,-2.7567,-2.8103,-2.8293,-2.8699,-2.9148,-2.8975,-2.8868,-2.8755,0.0,0.0,0.0,0.0,0.0,0.0,0.0,0.0,0.0,0.0,0.0,0.0,0.0,0.0,0.0,0.0,0.0,0.0,0.0,0.0,0.0,-1.8485,-1.8753,-1.893,0.0,0.0,0.0,0.0,0.0,0.0,0.0,-1.9101,-1.8931,0.0,0.0,0.0,0.0,0.0,-1.886,-1.9033,-1.953,-1.947,-1.9198,-2.0389,-2.0752,-2.0694,-2.1069,-2.1614,-2.2217,-2.2391,-2.2512,-2.2728,-2.3426,0.0,0.0,0.0,-2.3105,0.0,0.0,0.0,0.0,0.0,0.0,0.0,0.0,0.0,0.0,0.0,-2.4001,-2.4117,-2.4586,-2.4647,-2.4666,-2.4666,-2.4599,-2.4564,-2.4564,-2.4566,-2.4549,-2.4549,-2.4549,-2.4515,-2.4392,-2.4497,-2.4679,-2.4929,-2.5107,-2.5342,-2.5697,-2.5714,-2.5712,-2.5712,-2.6146,-2.6389,-2.6389,-2.682,-2.7063,-2.7098,-2.7098,-2.6873,-2.6441,-2.6474,-2.6684,-2.699,-2.699,-2.7009,-2.6991,-2.7009,-2.7214,-2.7531,-2.7569,-2.8054,-2.8742,-2.8643,-2.8841,-2.9126,0.0,0.0,0.0,0.0,0.0,0.0,0.0,0.0,0.0,0.0,0.0,0.0,0.0,0.0,0.0,0.0,0.0,0.0,0.0,0.0,0.0,-1.8622,-1.8912,-1.9079,-1.9127,0.0,0.0,0.0,0.0,0.0,-1.935,-1.9402,-1.9214,0.0,-1.8843,0.0,0.0,0.0,0.0,-1.9388,-1.9363,-1.9096,-1.8834,-1.993,-2.0316,-2.0408,-2.1332,-2.2406,-2.3359,-2.3197,-2.3378,-2.3706,-2.3706,-2.3571,0.0,0.0,0.0,0.0,0.0,0.0,0.0,0.0,0.0,0.0,0.0,0.0,0.0,0.0,-2.3211,-2.3465,-2.4294,-2.4591,-2.4714,-2.4729,-2.4663,-2.4631,-2.4647,-2.4631,-2.4599,-2.4599,-2.4629,-2.466,-2.466,-2.4689,-2.47,-2.47,-2.4764,-2.4798,-2.4798,-2.4823,-2.4837,-2.4837,-2.5382,-2.5675,-2.5675,-2.6244,-2.6564,-2.6632,-2.6632,-2.6309,-2.5737,-2.5796,-2.6088,-2.654,-2.6507,-2.6476,-2.6444,-2.6459,-2.6705,-2.7044,-2.6838,-2.7399,-2.8316,-2.8091,-2.8521,-2.9194,0.0,0.0,0.0,0.0,0.0,0.0,0.0,0.0,0.0,0.0,0.0,0.0,0.0,0.0,0.0,-1.8211,-1.8211,-1.8277,-1.8465,-1.8659,-1.8843,-1.8981,-1.9162,0.0,-1.9472,0.0,0.0,0.0,0.0,0.0,-1.9485,-1.963,-1.9604,-1.9442,-1.9256,-1.9209,-1.9289,0.0,0.0,0.0,-1.9748,-1.9849,-2.0374,0.0,0.0,0.0,0.0,-2.2515,-2.2201,-2.3565,-2.3507,-2.2867,-2.2867,-2.2905,-2.299,0.0,0.0,0.0,0.0,0.0,0.0,0.0,0.0,0.0,0.0,0.0,0.0,0.0,-2.2407,-2.2716,-2.3588,-2.4275,-2.4723,-2.4779,-2.4742,-2.4732,-2.4776,-2.4679,-2.4599,-2.4599,-2.4719,-2.479,-2.479,-2.4904,-2.4986,-2.4986,-2.5034,-2.5088,-2.5088,-2.513,-2.5171,-2.5171,-2.5099,-2.5038,-2.5038,-2.5023,-2.5021,-2.5021,-2.5021,-2.5037,-2.505,-2.5069,-2.5137,-2.5294,-2.5163,-2.5023,-2.4926,-2.4983,-2.5857,-2.7111,-2.6341,-2.7052,-2.8367,-2.749,-2.7697,-2.8445,0.0,0.0,0.0,0.0,0.0,0.0,0.0,0.0,0.0,0.0,0.0,0.0,0.0,0.0,-1.8236,-1.8383,-1.8505,-1.862,-1.8696,-1.8843,-1.898,-1.9107,-1.9328,-1.9504,-1.9638,-1.9638,0.0,0.0,0.0,-1.9676,-1.963,-1.9676,-1.9676,-1.963,-1.9559,-1.9504,-1.9434,-1.9453,0.0,0.0,-1.8908,-1.8433,-1.8302,0.0,0.0,0.0,0.0,0.0,-2.2769,-2.3325,-2.3745,-2.3919,-2.3361,-2.3285,-2.3432,-2.3561,0.0,0.0,0.0,0.0,0.0,0.0,0.0,0.0,0.0,0.0,0.0,-2.1481,-2.1643,-2.1958,-2.2827,-2.3183,-2.3719,-2.4884,-2.4581,-2.4385,-2.4955,-2.5019,-2.4994,-2.4994,-2.5031,-2.5068,-2.5068,-2.5096,-2.513,-2.513,-2.5152,-2.5163,-2.5163,-2.5182,-2.5192,-2.5192,-2.516,-2.5118,-2.5118,-2.5096,-2.5091,-2.5091,-2.5091,-2.5115,-2.5118,-2.5182,-2.5214,-2.5264,-2.5293,-2.5224,-2.5056,-2.5072,-2.5411,-2.5895,-2.559,-2.614,-2.7096,-2.729,-2.7821,-2.8532,0.0,0.0,0.0,0.0,0.0,0.0,0.0,0.0,0.0,0.0,0.0,0.0,0.0,0.0,-1.8383,-1.8582,-1.8715,-1.8825,-1.886,-1.898,-1.9141,-1.9291,-1.9489,-1.9663,-1.9802,-1.9802,0.0,0.0,0.0,0.0,0.0,-1.9809,-1.9809,-1.9774,-1.9809,-1.9719,0.0,0.0,0.0,-1.969,0.0,-1.7946,-1.8217,0.0,0.0,0.0,0.0,0.0,0.0,0.0,-2.3386,-2.3827,-2.3253,0.0,0.0,0.0,0.0,0.0,0.0,0.0,0.0,0.0,0.0,0.0,0.0,0.0,-2.0143,-2.0716,-2.091,-2.1231,-2.2104,-2.2053,-2.2438,-2.4081,-2.4109,-2.4098,-2.4715,-2.503,-2.5192,-2.5192,-2.5224,-2.5225,-2.5225,-2.5265,-2.5303,-2.5303,-2.5331,0.0,-2.5331,-2.5321,-2.5312,-2.5303,-2.5303,-2.5293,-2.5274,-2.5274,-2.5274,-2.5274,-2.5274,-2.5284,-2.5303,-2.536,-2.5387,-2.5412,-2.5498,-2.5418,-2.5243,-2.5274,-2.5407,-2.5576,-2.5308,-2.5677,-2.6395,-2.6638,-2.7203,-2.7941,0.0,0.0,0.0,0.0,0.0,0.0,0.0,0.0,0.0,0.0,0.0,0.0,0.0,0.0,0.0,-1.8807,-1.8825,-1.8878,-1.8996,-1.9139,-1.9306,-1.9499,-1.9693,-1.9863,-1.9993,-2.0022,0.0,0.0,0.0,0.0,0.0,0.0,-2.004,-1.9899,-2.0031,-1.996,-1.9726,0.0,-2.0306,-2.0588,0.0,-1.8644,-2.048,0.0,0.0,0.0,-2.1689,-2.2046,0.0,-2.2299,0.0,0.0,0.0,0.0,0.0,0.0,0.0,0.0,0.0,0.0,0.0,0.0,0.0,0.0,0.0,0.0,-2.0115,-2.0105,-2.0212,-2.0566,-2.1417,-2.097,-2.0975,-2.2397,-2.3314,-2.388,-2.3957,-2.4639,-2.5146,-2.5146,-2.5178,-2.5241,-2.5241,-2.5352,-2.5441,-2.5441,-2.5512,-2.5538,-2.5518,-2.5556,-2.5538,-2.5464,-2.5483,-2.5472,-2.5415,-2.5423,-2.5415,-2.5415,-2.5415,-2.5448,-2.5503,-2.5503,-2.5531,-2.5607,-2.5595,-2.5486,-2.5303,-2.5376,-2.5794,-2.6304,-2.5529,-2.5723,-2.6369,-2.554,-2.5781,-2.6647,0.0,0.0,0.0,0.0,0.0,0.0,0.0,0.0,0.0,0.0,0.0,0.0,0.0,0.0,0.0,-1.921,-1.9382,-1.9472,-1.9513,-1.9553,-1.9632,-1.9786,-1.9882,-2.0012,-2.0134,-2.02,0.0,0.0,0.0,0.0,0.0,0.0,0.0,0.0,-2.0162,-2.0125,-2.0069,-1.996,0.0,0.0,-1.9532,-1.9369,0.0,0.0,0.0,0.0,0.0,-2.077,-2.1381,0.0,-2.1971,-2.2623,0.0,0.0,0.0,0.0,0.0,0.0,-2.406,0.0,0.0,0.0,0.0,0.0,0.0,0.0,0.0,-2.0234,-2.0344,-2.0511,-2.0752,-2.063,-2.0628,-2.1032,-2.1779,-2.2533,-2.3187,-2.3463,-2.3605,-2.3605,-2.3625,-2.3637,-2.3637,-2.3675,-2.3686,0.0,-2.4288,-2.4391,-2.375,-2.4313,-2.4649,-2.4622,-2.5249,-2.5554,-2.5543,-2.554,-2.5549,-2.5538,-2.555,-2.5549,-2.5579,-2.557,-2.5574,-2.56,-2.5591,-2.5576,-2.5515,-2.5529,-2.5654,-2.5793,-2.5587,-2.5604,-2.5815,-2.6155,-2.6776,-2.7552,0.0,0.0,0.0,0.0,0.0,0.0,0.0,0.0,0.0,0.0,0.0,0.0,0.0,0.0,0.0,-1.9557,-1.9651,-1.9701,-1.9744,-1.9778,-1.9858,-1.9933,-2.0086,-2.0192,-2.0276,-2.032,0.0,0.0,0.0,0.0,0.0,0.0,0.0,0.0,0.0,0.0,0.0,0.0,0.0,0.0,-1.9783,0.0,0.0,-2.0026,-1.99,0.0,0.0,0.0,-2.1643,-2.0985,-2.1684,0.0,0.0,0.0,0.0,0.0,0.0,0.0,0.0,0.0,0.0,0.0,0.0,0.0,-2.088,-2.0618,-2.0383,0.0,-2.0452,-2.0494,-2.0506,-2.0492,-2.0498,-2.0503,-2.0889,-2.1507,-2.238,-2.2812,-2.3034,-2.3034,-2.3034,-2.3026,-2.2989,-2.3008,-2.3004,-2.3003,-2.347,-2.3558,-2.3067,-2.3864,-2.4341,-2.4339,-2.5157,-2.5604,-2.5604,-2.5593,-2.5609,-2.56,-2.5595,-2.5604,-2.5604,-2.5605,-2.5595,-2.5601,-2.564,-2.564,-2.5601,-2.564,-2.5639,-2.5604,-2.5604,-2.5576,-2.5589,-2.6074,-2.6502,-2.7013,0.0,0.0,0.0,0.0,0.0,0.0,0.0,0.0,0.0,0.0,0.0,0.0,0.0,0.0,0.0,0.0,-1.9805,-1.9828,-1.9994,-2.0116,-2.0221,-2.0326,-2.0462,-2.0535,-2.0536,-2.0454,-2.0409,0.0,0.0,0.0,0.0,0.0,0.0,0.0,0.0,0.0,0.0,0.0,0.0,-2.1052,-1.9601,-2.0364,0.0,0.0,-2.0929,-2.2071,-2.1422,-2.1693,-2.2144,-2.0771,-2.1454,0.0,0.0,0.0,0.0,0.0,-2.3816,0.0,0.0,0.0,0.0,0.0,0.0,0.0,-2.161,-2.108,-2.0616,0.0,-2.05,-2.0501,-2.0507,-2.0505,-2.0504,-2.0508,-2.0506,-2.0773,-2.1549,-2.2326,-2.2812,-2.2812,-2.2812,-2.2784,-2.2721,-2.2714,-2.2723,-2.2727,-2.2721,-2.2792,-2.2944,-2.3786,-2.4257,-2.4261,-2.5138,-2.5605,-2.5605,-2.5527,-2.5508,-2.5601,-2.5504,-2.5527,-2.5605,-2.5601,-2.5601,-2.5609,-2.5665,-2.5662,-2.5629,-2.5684,-2.5652,-2.5591,-2.5591,-2.5595,-2.5607,-2.5607,-2.5659,-2.5854,0.0,0.0,0.0,0.0,0.0,0.0,0.0,0.0,0.0,0.0,0.0,0.0,0.0,0.0,0.0,0.0,0.0,-2.0494,-2.1193,-2.1262,-2.1591,-2.2306,-2.1764,-2.1453,-2.1459,-2.0809,-2.0515,0.0,0.0,0.0,0.0,0.0,0.0,0.0,0.0,0.0,0.0,0.0,0.0,-2.0521,-2.0821,0.0,-2.2317,-2.145,-2.0919,-2.061,-2.0474,-2.0595,-2.0801,-2.0536,-2.1133,-2.2061,0.0,0.0,0.0,0.0,0.0,0.0,0.0,0.0,0.0,0.0,0.0,0.0,-2.1045,-2.1162,-2.1347,0.0,-2.05,-2.0507,-2.0508,-2.0546,-2.0581,-2.0579,-2.058,-2.0623,-2.0742,-2.0892,-2.1001,-2.1001,-2.1001,-2.1001,-2.0998,-2.0999,-2.0996,-2.0996,-2.0989,-2.1311,-2.2013,-2.2874,-2.3348,-2.3341,-2.4865,-2.5684,-2.5684,-2.4971,-2.4966,-2.5582,-2.4934,-2.4999,-2.5684,-2.5629,-2.5639,-2.5681,-2.5693,-2.5693,-2.5681,-2.5683,-2.5668,-2.5593,-2.5593,-2.56,-2.56,-2.56,-2.6032,-2.6681,0.0,0.0,0.0,0.0,0.0,0.0,0.0,0.0,0.0,0.0,0.0,0.0,0.0,0.0,0.0,0.0,0.0,0.0,0.0,0.0,-2.2481,-2.2929,-2.2591,-2.2394,-2.2396,-2.2001,-2.1597,0.0,0.0,0.0,0.0,0.0,0.0,0.0,0.0,0.0,0.0,0.0,-2.0585,-2.0943,-2.0901,0.0,-2.133,-2.102,-2.0641,-2.0255,-2.0296,-2.0371,-2.0511,-2.0986,-2.1721,0.0,0.0,-2.3352,-2.4425,0.0,-2.4987,-2.4934,0.0,0.0,0.0,-2.3875,0.0,0.0,0.0,-2.1776,-2.1637,-2.1234,-2.1099,-2.1065,-2.1094,-2.074,-2.0467,-2.049,-2.0525,-2.054,-2.0494,-2.0525,-2.0547,-2.0547,-2.0547,-2.0547,-2.0505,-2.05,-2.0498,-2.0505,-2.05,-2.0708,-2.1173,-2.2023,-2.2686,-2.3083,-2.4371,-2.5054,-2.5054,-2.4629,-2.4592,-2.5,-2.4596,-2.4852,-2.5693,-2.5673,-2.5675,-2.5697,-2.5698,-2.57,-2.5702,-2.5702,-2.568,-2.5654,-2.5659,-2.5626,-2.5609,-2.5598,-2.5878,-2.6259,0.0,0.0,0.0,0.0,0.0,0.0,0.0,0.0,0.0,0.0,0.0,0.0,0.0,0.0,0.0,0.0,0.0,0.0,0.0,0.0,0.0,-2.2507,-2.3042,-2.3045,-2.2363,-2.2831,-2.2753,0.0,0.0,0.0,0.0,0.0,0.0,0.0,0.0,0.0,0.0,0.0,0.0,-2.1087,0.0,-2.0534,-2.0815,-2.0695,-2.0628,-2.0582,-2.0467,-2.0467,-2.0642,-2.1533,-2.2291,-2.2818,-2.2488,-2.3679,0.0,0.0,0.0,0.0,0.0,0.0,0.0,0.0,0.0,-2.3457,0.0,0.0,0.0,-2.159,-2.1446,0.0,0.0,0.0,0.0,0.0,0.0,0.0,0.0,-2.0438,0.0,-2.0591,-2.0593,-2.0578,-2.0526,-2.0507,-2.0371,-2.0038,-2.0311,-2.0468,-2.0351,-2.1323,-2.2177,-2.2824,-2.3698,-2.4145,-2.4147,-2.4009,-2.4074,-2.4394,-2.4237,-2.4687,-2.5703,-2.5702,-2.5702,-2.5703,-2.5702,-2.57,-2.57,-2.57,-2.57,-2.5701,-2.5702,-2.5675,-2.5627,-2.5615,-2.5607,-2.56,-1.7999,-1.8508,0.0,0.0,0.0,0.0,0.0,0.0,0.0,0.0,0.0,0.0,0.0,0.0,0.0,0.0,0.0,0.0,-2.2829,0.0,0.0,-2.0757,-2.3006,-2.2809,-1.9704,-2.1905,-2.3044,0.0,0.0,0.0,0.0,0.0,0.0,0.0,-1.9112,0.0,0.0,0.0,-1.797,0.0,-2.0204,-2.137,0.0,-2.1847,-2.1584,-2.1531,-2.0831,-2.059,-2.0726,0.0,-2.1957,-2.2273,0.0,-2.3776,-2.3679,-2.5137,0.0,0.0,0.0,0.0,0.0,0.0,-2.4861,0.0,0.0,0.0,-2.2426,-2.0881,0.0,0.0,0.0,0.0,0.0,0.0,0.0,0.0,-1.9364,-1.997,-2.0522,-2.0584,-2.0605,-2.0607,-2.059,-2.0527,-1.9873,-1.8397,-1.9665,-2.0186,-1.949,-2.0957,-2.1855,-2.1933,-2.2789,-2.3252,-2.3259,-2.2549,-2.2922,-2.4394,-2.3613,-2.4101,-2.5701,-2.57,-2.57,-2.5701,-2.57,-2.57,-2.57,-2.57,-2.57,-2.57,-2.5702,-2.5703,-2.5683,-2.5682,-2.5641,-2.5602,0.0,0.0,0.0,0.0,0.0,0.0,0.0,0.0,0.0,0.0,0.0,0.0,0.0,0.0,0.0,0.0,0.0,-2.129,0.0,0.0,0.0,0.0,-2.4485,-2.4433,-2.2995,-2.4042,-2.4342,-2.3809,-2.3933,0.0,0.0,0.0,0.0,0.0,-1.9251,0.0,-1.8315,0.0,-1.9575,0.0,0.0,0.0,0.0,-2.1574,-2.1084,-2.106,-2.0717,-2.0565,-2.0683,0.0,-2.2187,0.0,0.0,0.0,0.0,0.0,0.0,0.0,0.0,0.0,0.0,0.0,0.0,0.0,-2.3485,0.0,-2.3437,0.0,0.0,0.0,0.0,0.0,0.0,0.0,-2.0057,0.0,0.0,0.0,-2.0418,0.0,0.0,0.0,-1.9899,-1.9814,-1.9292,-1.8097,-1.9127,-1.9653,-1.9327,-1.9979,-2.08,-2.1775,-2.2148,-2.2597,-2.3105,-2.2266,-2.2441,-2.3645,-2.3274,-2.374,-2.4969,-2.5466,-2.5701,-2.5709,-2.5701,-2.5693,-2.5693,-2.5693,-2.5693,-2.5693,-2.5693,-2.5705,-2.5696,-2.5661,-2.5658,-2.565,0.0,0.0,0.0,0.0,0.0,0.0,0.0,0.0,0.0,0.0,0.0,0.0,-2.3068,-2.3419,0.0,0.0,-2.1766,-2.1839,0.0,0.0,-2.2305,0.0,0.0,0.0,0.0,-2.5083,-2.5359,-2.466,0.0,0.0,0.0,0.0,0.0,0.0,0.0,-1.9638,-1.8201,0.0,0.0,-2.152,-2.2132,-2.2383,-2.2316,-2.1562,-2.0995,-2.0605,-2.084,-2.0742,-2.068,-2.1774,-2.2573,0.0,-2.3664,0.0,0.0,0.0,0.0,0.0,-2.5653,0.0,0.0,0.0,0.0,0.0,0.0,0.0,0.0,0.0,0.0,0.0,0.0,0.0,0.0,0.0,0.0,-2.0096,0.0,-2.0147,0.0,0.0,0.0,0.0,0.0,-1.9492,-1.9085,-1.774,-1.8666,-1.9177,-1.896,-1.9169,-1.9955,-2.1398,-2.1441,-2.1754,-2.2376,-2.1754,-2.2004,-2.3098,-2.3098,-2.3684,-2.4773,-2.5418,-2.5691,-2.5707,-2.5656,-2.5639,-2.5639,-2.5639,-2.5639,-2.5643,-2.5695,-2.5694,-2.569,-2.5644,-2.5671,-2.5707,-2.0101,-2.1336,0.0,0.0,0.0,0.0,0.0,0.0,0.0,0.0,0.0,0.0,0.0,0.0,0.0,0.0,0.0,-1.8114,-2.1462,0.0,-1.8801,0.0,0.0,-2.3586,0.0,0.0,-2.5658,-2.5562,0.0,0.0,0.0,0.0,0.0,0.0,0.0,-2.1021,-2.1574,-1.9119,-1.9072,-2.0629,-2.0605,-2.0577,-2.0769,0.0,-2.1965,-2.0602,-2.1462,0.0,0.0,-2.2477,-2.3077,0.0,0.0,0.0,0.0,0.0,0.0,0.0,0.0,0.0,0.0,-2.5596,0.0,0.0,0.0,0.0,-2.3696,0.0,0.0,0.0,0.0,0.0,0.0,0.0,0.0,0.0,0.0,0.0,0.0,0.0,0.0,0.0,0.0,-1.9961,-1.9434,-1.6921,-1.8262,-1.8863,-1.8081,-1.8843,-1.9684,-2.0522,-2.0534,-2.0559,-2.0586,-2.0559,-2.1396,-2.3098,-2.3098,-2.4004,-2.566,-2.5699,-2.5699,-2.5699,-2.5551,-2.5504,-2.5504,-2.5504,-2.5504,-2.551,-2.5643,-2.5699,-2.5703,-2.5691,-2.5707,-2.5703,0.0,0.0,0.0,0.0,0.0,0.0,0.0,-2.4947,0.0,0.0,0.0,0.0,0.0,-2.2572,-2.2158,0.0,0.0,-1.9528,-2.1353,-2.0833,0.0,0.0,0.0,-2.4481,0.0,0.0,0.0,0.0,0.0,0.0,0.0,0.0,0.0,0.0,0.0,-2.206,0.0,0.0,0.0,0.0,0.0,-2.1332,-2.1305,0.0,-2.1003,-2.0533,-2.0839,-2.0755,0.0,-2.2516,-2.3101,-2.3394,-2.5152,-2.5639,-2.5595,-2.5596,-2.557,0.0,0.0,0.0,-2.5459,-2.5408,0.0,0.0,0.0,0.0,0.0,0.0,0.0,0.0,0.0,0.0,0.0,0.0,0.0,0.0,0.0,0.0,0.0,0.0,0.0,0.0,0.0,0.0,0.0,-1.7559,-1.8069,-1.8529,-1.8782,-1.9063,-1.9612,-2.0461,-2.1057,-2.1647,-2.2213,-2.1652,-2.221,-2.3879,-2.3311,-2.3621,-2.4727,-2.529,-2.5576,-2.5564,-2.5518,-2.5459,-2.5432,-2.5432,-2.5432,-2.5432,-2.5479,-2.5506,-2.5512,-2.554,-2.5576,-2.5571,-0.6143,0.0,0.0,0.0,0.0,0.0,0.0,0.0,0.0,0.0,-2.3952,0.0,-2.2716,0.0,-2.197,0.0,-2.038,-2.0285,-2.1252,-2.1246,0.0,-2.2265,-2.3667,0.0,0.0,0.0,0.0,0.0,0.0,-2.5181,0.0,0.0,0.0,0.0,0.0,0.0,-2.2259,0.0,-2.1878,0.0,0.0,-2.1308,0.0,0.0,-2.0659,-2.0968,0.0,-2.1208,-2.1227,-2.2944,-2.354,-2.3809,-2.5251,-2.5654,-2.5593,-2.5577,-2.5318,-2.5089,-2.5359,-2.4964,0.0,-2.5168,-2.5042,0.0,-2.5143,0.0,-2.5013,0.0,0.0,0.0,0.0,0.0,0.0,0.0,0.0,0.0,0.0,-2.0,0.0,0.0,0.0,0.0,0.0,0.0,-1.8518,-1.7935,-1.8181,-1.859,0.0,-1.9153,-1.9561,-2.0441,-2.1313,-2.201,-2.2555,-2.2317,-2.2892,-2.4252,-2.3703,-2.3861,-2.4678,-2.524,-2.5505,-2.5495,-2.5453,-2.5401,-2.5365,-2.5365,-2.5365,-2.5365,-2.5398,-2.5387,-2.5414,-2.5446,-2.548,-2.5504,0.0,0.0,0.0,0.0,-2.2129,0.0,0.0,0.0,-2.4148,0.0,-2.3269,-2.2626,-2.2397,-2.1632,-2.1103,-2.1041,-2.0269,-2.0165,-2.11,-2.1164,0.0,0.0,-2.2256,-2.2419,-2.1594,0.0,0.0,0.0,0.0,0.0,0.0,0.0,0.0,0.0,-2.5667,0.0,-2.3095,-2.311,-2.2129,-2.0575,-2.0511,-2.0519,-2.0534,-2.0429,-2.0947,-2.1784,-2.259,-2.2411,-2.2045,-2.3694,-2.4276,-2.4491,-2.5403,-2.5643,-2.5576,-2.5512,-2.4909,-2.442,-2.5101,-2.4149,-2.3302,-2.4899,-2.4688,0.0,0.0,0.0,-2.4839,0.0,0.0,0.0,0.0,0.0,0.0,0.0,0.0,0.0,0.0,0.0,0.0,0.0,0.0,0.0,0.0,-1.9767,-1.9599,-1.814,-1.8637,-1.9043,0.0,-1.9158,-1.9532,-2.0376,-2.1279,-2.1723,-2.1662,-2.252,-2.3404,-2.4264,-2.4225,-2.4652,-2.5485,-2.5485,-2.549,-2.548,-2.5348,-2.5293,-2.5303,-2.5303,-2.5303,-2.5313,-2.5365,-2.5398,-2.5398,-2.5379,-2.5432,-2.5492,0.0192,-0.5341,-1.2047,0.0,-2.4207,-2.5235,0.0,0.0,0.0,0.0,-2.2192,-2.1349,-2.0507,-2.0219,-2.0075,-2.0051,-1.9761,0.0,0.0,0.0,0.0,-2.0461,-2.1752,-2.2147,-2.1387,-2.3045,0.0,-2.4084,0.0,0.0,-2.5525,0.0,0.0,0.0,0.0,0.0,-2.3106,-2.3052,-2.2027,-2.0448,-2.0493,-2.0822,-2.1256,0.0,-2.0888,-2.1509,-2.1171,-2.1351,-2.1896,-2.3028,-2.3424,-2.3688,-2.509,-2.5535,-2.5505,-2.5449,-2.5279,-2.512,-2.5255,-2.4985,-2.4726,-2.5061,-2.45,-2.3923,0.0,0.0,0.0,0.0,0.0,0.0,0.0,0.0,0.0,0.0,0.0,0.0,0.0,0.0,0.0,-2.0763,0.0,0.0,-1.9826,-1.9481,-1.9372,-1.9586,-1.9227,-1.9296,-1.9953,0.0,-2.0094,-2.0313,-2.1804,-2.2579,-2.2579,-2.3431,-2.4268,-2.5078,-2.4447,-2.4559,-2.535,-2.535,-2.5322,-2.5284,-2.5234,-2.5241,-2.5236,-2.5236,-2.5236,-2.5236,-2.525,-2.5261,-2.5271,-2.5303,-2.534,-2.5348,0.5706,0.0,0.0,-1.5364,0.0,0.0,-2.4174,-2.4312,0.0,-2.3012,-2.19,0.0,-2.0209,-2.0159,-2.0028,-1.966,-1.989,0.0,-2.0464,0.0,0.0,-2.0519,-2.1032,-2.11,-2.0705,-2.1958,0.0,-2.3426,0.0,0.0,-2.5471,0.0,0.0,0.0,0.0,-2.4844,0.0,-2.2774,-2.1865,-2.0936,-2.0554,-2.0662,0.0,-2.0501,-2.0804,-2.1408,-2.0597,-2.0895,-2.1855,-2.3114,-2.357,-2.3747,-2.4645,-2.4937,-2.4987,-2.5269,-2.4846,-2.4414,-2.5079,-2.4694,-2.4175,-2.4422,-2.3821,-2.317,-2.312,-2.2966,-2.2911,0.0,-2.3434,-2.3566,0.0,0.0,0.0,0.0,0.0,0.0,0.0,0.0,0.0,0.0,-2.0123,0.0,-1.9918,-1.9612,-1.9479,-1.9627,-1.9546,-1.9711,-2.0229,0.0,-2.0429,-2.0815,-2.2126,-2.2967,-2.3317,-2.4193,-2.4887,-2.536,-2.4859,-2.486,-2.5293,-2.5303,-2.5253,-2.5201,-2.5212,-2.5198,-2.5191,-2.5191,-2.5191,-2.5191,-2.5191,-2.5191,-2.5203,-2.5239,-2.5273,-2.5303,0.0,0.0,0.0,0.0,0.0,0.0,0.0,-2.1835,0.0,-2.2237,0.0,-2.0211,-2.0815,-2.0923,-2.066,-1.9888,0.0,-2.096,-2.1001,-2.0263,-2.0226,-2.1042,-2.0394,-2.0028,-2.0028,-2.0826,-2.1719,0.0,0.0,0.0,0.0,0.0,0.0,0.0,0.0,0.0,0.0,-2.2382,-2.1623,-2.1442,-2.0624,-2.0296,-2.0283,-2.0219,-2.0661,-2.1229,-2.0576,-2.0885,-2.1806,-2.3273,-2.3806,-2.3901,-2.4118,-2.4169,-2.4281,-2.4909,-2.4044,-2.316,-2.4473,-2.3713,-2.2737,-2.3487,-2.3026,-2.2369,-2.2356,-2.2293,-2.2427,-2.3058,-2.314,-2.3309,0.0,0.0,0.0,0.0,0.0,0.0,0.0,0.0,0.0,0.0,0.0,0.0,-1.9819,-1.9974,-1.9783,-1.9073,-1.9678,-2.0135,-2.0186,0.0,-2.0691,-2.1468,-2.2382,-2.3189,-2.3894,-2.4766,-2.5239,-2.5301,-2.5311,-2.5311,-2.5282,-2.5293,-2.5262,-2.5198,-2.5201,-2.5198,-2.5191,-2.5191,-2.5191,-2.5191,-2.5191,-2.5191,-2.5191,-2.5191,-2.5228,-2.5283,0.0,0.0,0.0,0.0,0.0,-0.2176,-0.9077,-0.9543,-1.0762,-1.5463,-1.523,-1.6469,-2.1258,-2.1773,-2.1736,-2.1588,-2.1699,0.0,0.0,0.0,0.0,-2.1009,-2.0783,-2.0639,-2.0639,-2.1545,-2.2154,0.0,0.0,0.0,0.0,0.0,0.0,0.0,0.0,0.0,-2.317,-2.2124,0.0,-2.0527,-2.0373,-2.0262,-2.0215,-2.0188,-2.0265,-2.0413,-2.091,-2.1272,-2.1567,-2.1912,-2.2043,-2.2288,-2.3623,-2.3957,-2.3889,-2.3961,-2.3688,-2.3291,-2.2912,-2.2596,-2.2546,-2.3328,-2.2886,-2.2393,-2.3049,-2.3095,-2.3021,-2.3031,-2.3417,-2.3753,-2.3852,0.0,0.0,0.0,0.0,0.0,0.0,0.0,0.0,0.0,0.0,-1.9722,0.0,-2.0169,-1.9852,-1.9669,-1.9924,-2.0108,0.0,0.0,-2.1197,0.0,-2.2899,0.0,0.0,0.0,-2.5217,-2.5228,-2.5271,-2.5282,-2.5222,-2.5262,-2.5271,-2.5187,-2.5198,-2.5206,-2.5191,-2.5191,-2.5191,-2.5191,-2.5191,-2.5191,-2.5191,-2.5191,-2.5203,-2.5214,0.0,0.0,0.0,0.0,0.0,0.0,0.0,0.23,-0.171,-1.3573,-1.1803,-1.2776,-2.1657,-1.9918,-1.9175,-2.1768,-2.2386,-2.2306,-2.1563,-2.1466,-2.1451,-2.1525,-1.8896,-1.744,-1.744,-1.5392,-1.5835,-1.8909,0.0,0.0,0.0,0.0,0.0,0.0,0.0,-2.4718,0.0,0.0,0.0,-2.1435,-2.1407,-2.1309,-2.1202,-2.1297,-2.1039,-2.0693,-2.1185,-2.1062,-2.0738,-2.1196,-2.1349,-2.1541,-2.2699,-2.3011,-2.3133,-2.3963,-2.3851,-2.347,-2.3531,-2.3531,-2.3516,-2.3375,-2.303,-2.27,-2.259,-2.2527,-2.2552,-2.2868,-2.283,-2.2807,-2.3204,-2.3254,0.0,0.0,0.0,0.0,0.0,0.0,0.0,0.0,0.0,0.0,0.0,0.0,0.0,0.0,0.0,0.0,0.0,0.0,-2.083,0.0,0.0,0.0,-2.3788,0.0,-2.5063,-2.5094,-2.5006,-2.5056,-2.5209,-2.5087,-2.505,-2.505,-2.4968,-2.4947,-2.494,-2.4893,-2.4947,-2.5044,-2.5013,-2.5082,-2.5191,-2.5191,-2.5191,-2.5191,0.0,1.0718,0.0,0.0,1.0514,1.0573,1.047,1.0419,0.502,-1.0038,-0.7438,-0.8185,-1.8625,-1.5671,-1.5008,-2.0209,-2.1225,-2.1261,-2.0462,-2.0553,-2.0571,-2.0408,-1.5607,-1.3968,-1.6131,-1.0322,-1.0015,0.0,0.0,0.0,0.0,0.0,0.0,0.0,0.0,0.0,0.0,0.0,-2.3367,-2.2436,-2.2382,-2.2241,-2.2126,-2.2286,-2.1279,-1.9929,-2.0922,-2.0104,-1.8776,-2.0264,-2.0771,-2.0922,-2.1679,-2.2032,-2.2416,-2.3742,-2.3733,-2.3422,-2.3942,-2.4089,-2.3926,-2.3312,-2.3167,-2.3006,-2.2444,-2.2317,-2.2483,-2.3033,-2.2611,-2.23,-2.2901,-2.344,0.0,0.0,0.0,0.0,0.0,0.0,0.0,0.0,0.0,0.0,-1.9102,0.0,0.0,0.0,0.0,0.0,-2.008,0.0,0.0,0.0,0.0,-2.3346,-2.3901,0.0,-2.4893,-2.494,-2.4775,-2.4847,-2.5094,-2.4874,-2.4804,-2.4847,-2.4746,-2.4685,-2.4673,-2.4607,-2.4682,-2.4828,-2.4809,-2.4942,-2.5137,-2.518,-2.5191,-2.5191,0.0,0.0,0.0,0.0,0.0,1.0922,1.1023,1.0462,0.7647,0.0927,0.0624,-0.1425,-0.7819,-0.8018,-1.0013,-1.5773,-1.636,-1.6054,-1.5241,-1.583,-1.5918,-1.5225,-1.0888,-1.285,-2.2152,-1.2994,-1.0576,0.0,0.0,-1.6692,0.0,0.0,0.0,0.0,0.0,0.0,0.0,-2.3736,-2.3152,-2.2233,-2.2233,-2.2173,-2.2093,-2.2126,-1.9348,-1.5944,-1.9634,-1.8,-1.4678,-1.8407,-1.9735,-1.997,-2.0776,-2.1479,-2.2046,-2.221,-2.2636,-2.2904,-2.2259,-2.2075,-2.2222,-2.2865,-2.3014,-2.3198,-2.3824,-2.3989,-2.3969,-2.4003,-2.3871,-2.3757,-2.371,-2.3762,-2.3735,0.0,0.0,0.0,0.0,0.0,-2.0412,-1.8838,0.0,0.0,0.0,-2.015,0.0,0.0,-2.0498,0.0,0.0,0.0,0.0,-2.2046,-2.3766,-2.4634,-2.4526,-2.4651,-2.4723,-2.4738,-2.4716,-2.4716,-2.4753,-2.4731,-2.4716,-2.4723,-2.4707,-2.4673,-2.4607,-2.454,-2.4556,-2.4654,-2.4752,-2.4836,-2.4942,-2.5125,-2.5191,-2.5191,0.0,0.0,0.0,0.0,0.0,0.0,0.0,1.082,0.9582,0.7314,0.6924,0.328,-0.6208,-0.4047,-0.4294,-1.0192,-1.07,-1.0557,-1.0152,-1.0479,-1.0677,-1.0665,-0.6094,-0.5612,-1.0074,-0.635,-0.5273,0.0,0.0,0.0,0.0,0.0,0.0,0.0,0.0,-1.9829,-1.9217,-2.2817,-2.3762,-2.2579,-2.0037,-1.894,-1.8822,-1.8897,-1.7406,-1.5883,-2.0138,-2.0025,-1.8071,-1.9669,-2.027,-2.0424,-2.1204,-2.1972,-2.2696,-2.3177,-2.3511,-2.3657,-2.3327,-2.3235,-2.3327,-2.364,-2.3713,-2.3786,-2.3964,-2.4036,-2.3955,-2.3714,-2.3667,-2.3498,-2.3031,-2.3315,-2.3634,-2.3674,0.0,0.0,0.0,0.0,0.0,0.0,0.0,0.0,0.0,0.0,0.0,0.0,0.0,0.0,0.0,0.0,0.0,-2.2047,0.0,-2.3858,-2.37,-2.4251,-2.4526,-2.4526,-2.4444,-2.4513,-2.4692,-2.4478,-2.4393,-2.4339,-2.4302,-2.4248,-2.4229,-2.4174,-2.4266,-2.4426,-2.4476,-2.4572,-2.4682,-2.4837,-2.4865,-2.4865,1.1477,0.0,1.1226,0.0,1.1326,1.1377,1.1477,1.0922,1.0514,1.0608,1.03,0.6915,-0.1506,0.1344,0.1476,-0.4432,-0.4979,-0.4931,-0.4835,-0.5113,-0.5303,-0.5389,-0.0965,0.0,-0.3146,-0.084,-0.0045,-0.0897,-0.8812,0.0,0.0,0.0,0.0,0.0,-1.5516,-1.6735,-1.6362,-2.0648,-2.1123,-1.8756,-1.5768,-1.4484,-1.4389,-1.4469,-1.3272,-1.2062,-1.6213,-1.7333,-1.6762,-1.6227,-1.7265,-1.9126,-2.1043,-2.2173,-2.2884,-2.3447,-2.3794,-2.3958,-2.3958,-2.4054,-2.3684,-2.1964,-2.1615,-2.1594,-2.1387,-2.1336,-2.1703,-2.3115,-2.3405,-2.3239,-2.2767,-2.3146,-2.3544,-2.3589,0.0,0.0,0.0,-2.077,0.0,0.0,-1.9603,-1.982,-1.9812,-2.0862,0.0,0.0,0.0,0.0,0.0,0.0,0.0,0.0,0.0,0.0,-2.34,-2.4007,-2.4338,-2.4356,-2.4247,-2.4321,-2.4512,-2.4266,-2.4132,-2.4074,-2.3996,-2.3976,-2.3996,-2.3917,-2.4018,-2.4247,-2.4284,-2.4373,-2.4491,-2.4642,-2.4704,-2.4716,1.0922,1.0922,1.1074,1.1628,1.1276,1.1023,1.1427,1.0659,1.0154,1.0624,1.0035,0.9547,0.94,0.9467,0.7159,0.1316,0.078,0.078,0.0823,0.0132,0.0088,0.0,0.0,0.2165,-0.7123,0.1151,0.388,0.0265,0.0,0.0,-0.0944,0.0,-1.2342,-1.6923,-1.7113,-1.7055,-1.6781,-1.6865,-1.391,-0.9149,-0.9122,-0.9077,-0.9096,-0.9096,-0.6102,-0.2326,-0.5831,-0.7373,-0.747,-0.5706,-0.9181,-1.5083,-1.9815,-2.1729,-2.2206,-2.2206,-2.2803,-2.3414,-2.3414,-2.3649,-2.2521,-1.6741,-1.5503,-1.5649,-1.5353,-1.5255,-1.6772,-2.2265,-2.3392,-2.3387,-2.3307,-2.3463,-2.3526,-2.3336,0.0,0.0,0.0,0.0,0.0,-2.0877,-2.1639,-2.1558,-1.9787,-2.1645,0.0,0.0,0.0,0.0,0.0,0.0,0.0,-2.2419,-2.3637,0.0,-2.4075,-2.4152,-2.419,-2.419,-2.419,-2.417,-2.4094,-2.4036,-2.3996,-2.3996,-2.3917,-2.3937,-2.3996,-2.3917,-2.3976,-2.4113,-2.4247,-2.4336,-2.4442,-2.4626,-2.4794,-2.4902,1.1074,1.1124,1.1226,1.1427,1.1276,1.1276,1.1578,1.0964,1.0514,1.0608,0.988,0.9309,0.9211,0.9211,0.8391,0.0,0.6276,0.6326,0.0,0.6132,0.6032,0.6226,0.7246,0.6319,0.3103,0.2352,0.3175,0.5485,0.0,0.0,0.0,0.0237,0.0,-0.1459,-0.5025,-0.6526,-0.6546,-1.0078,-1.056,-0.8683,-0.527,-0.3634,-0.3272,-0.3201,-0.2031,-0.0865,-0.4915,-0.646,-0.6495,-0.591,-0.6917,-0.8781,-1.083,-1.4283,-1.7572,-1.7551,-2.0347,-2.257,-1.8769,-2.059,-2.1301,-1.1889,-1.2477,-1.4284,-1.0255,-0.9149,-1.1637,-2.0988,-1.9921,-1.8454,-2.2323,-2.3077,-2.3151,-2.3289,-2.2782,0.0,-2.2215,0.0,-2.1263,-2.0972,-2.1256,-2.1203,-2.0473,-2.1488,0.0,0.0,0.0,0.0,0.0,0.0,0.0,0.0,-2.3502,0.0,-2.3816,-2.3896,-2.3816,-2.3588,-2.3976,-2.4094,-2.4016,-2.3958,-2.3917,-2.3917,-2.3917,-2.3917,-2.3937,-2.3976,-2.3996,-2.4036,-2.4115,-2.4154,-2.4154,-2.4303,-2.4426,-2.4522,1.1023,1.1074,1.1074,1.0863,1.0812,1.0913,1.1226,1.0769,1.0462,1.0557,0.9829,0.9159,0.8896,0.8685,0.0,0.8646,0.8646,0.8639,0.8573,0.8745,0.8699,0.8474,0.8421,0.8368,0.8256,0.482,0.0,0.8302,0.1593,-0.044,0.2088,0.4688,0.4969,0.3166,-0.0235,-0.1684,-0.1724,-0.4931,-0.502,-0.2659,0.047,0.2077,0.2594,0.2651,0.2846,0.285,0.0387,-0.1823,-0.3214,-0.0977,-0.1463,-0.2714,-0.1183,-0.4528,-0.9839,-1.3907,-1.7468,-1.9781,-1.8343,-1.9077,-1.807,-0.8891,-0.7764,-0.7948,-0.4156,-0.6353,-1.1179,-1.8155,-1.846,-1.8596,-2.2088,-2.2816,-2.2876,-2.2977,-2.2558,-2.2293,-2.2512,0.0,-2.1485,0.0,0.0,0.0,0.0,-2.1885,-2.2098,0.0,0.0,0.0,0.0,0.0,0.0,-2.3312,-2.3371,-2.3445,-2.3588,-2.3628,-2.3522,-2.3282,-2.3692,-2.3837,-2.3816,-2.3876,-2.3896,-2.3896,-2.3917,-2.3937,-2.3976,-2.4016,-2.4036,-2.4074,-2.4113,-2.4113,-2.4094,-2.417,-2.4266,-2.4353,1.0736,1.0728,1.0635,1.0095,0.9925,1.0028,1.0411,1.0154,1.0051,1.036,0.9784,0.9204,0.8679,0.8249,0.8037,0.8315,0.0,0.0,0.7925,0.8421,0.854,0.8215,0.8321,0.8533,0.8804,0.7984,0.8031,0.8956,0.8349,0.7765,0.7139,0.6652,0.3923,-0.0638,-0.1055,-0.1196,-0.1057,-0.1058,0.2113,0.7139,0.7139,0.7456,0.7925,0.7978,0.7978,0.8084,0.862,0.5558,0.2131,0.7676,0.6214,0.296,0.805,0.6193,0.0133,-1.0412,-1.3741,-1.5055,-1.9715,-1.7815,-1.2967,-0.6566,-0.142,0.2111,0.2201,-0.5527,-1.3011,-1.4151,-1.8216,-2.1746,-2.2385,-2.2659,-2.2694,-2.2473,-2.2573,-2.2781,-2.2982,-2.2358,-2.223,0.0,0.0,0.0,-2.2131,-2.2717,-2.2744,0.0,0.0,0.0,0.0,0.0,-2.3119,-2.3003,-2.3247,-2.3353,-2.3369,-2.3369,-2.3369,-2.3323,-2.3414,-2.35,-2.3544,-2.3774,-2.3876,-2.3896,-2.3937,-2.4016,-2.4074,-2.4094,-2.4151,-2.419,-2.419,-2.419,-2.419,-2.419,-2.4284,-2.4389,0.0,0.0,0.9972,0.9732,0.9424,0.9343,0.974,0.9673,0.9524,0.9524,0.9263,0.9061,0.8903,0.8692,0.8368,0.7765,0.7509,0.7563,0.7871,0.7836,0.7836,0.7984,0.8262,0.8533,0.8804,0.8586,0.858,0.8685,0.7978,0.7551,0.7413,0.6912,0.6187,0.5298,0.5194,0.5298,0.5602,0.5203,0.5953,0.7408,0.7408,0.7783,0.8309,0.8514,0.8823,0.919,0.9152,0.8287,0.7383,0.884,0.8731,0.8263,0.9768,0.9625,0.7418,-0.0088,-0.5206,-0.7785,-0.4823,-0.6213,-0.6162,0.3728,0.7199,0.7145,0.3127,0.3428,0.0972,-1.1757,-1.2068,-1.2567,-2.0976,-2.2542,-2.239,-2.1833,-2.1747,-2.1807,-2.2007,-2.1809,-2.2031,0.0,-2.2992,-2.2729,-2.2215,-2.2735,-2.2713,0.0,0.0,0.0,-2.2542,-2.2659,-2.2816,-2.2977,-2.2902,-2.296,-2.3157,-2.3157,-2.3283,-2.3522,-2.3312,-2.3405,-2.3795,-2.3707,-2.3685,-2.3671,-2.3735,-2.3774,-2.3816,-2.4074,-2.419,-2.419,-2.419,-2.419,-2.419,-2.419,-2.4284,-2.4389,1.0083,0.9963,0.9825,0.9224,0.9036,0.9029,0.904,0.914,0.9197,0.919,0.9008,0.8857,0.8745,0.8527,0.8203,0.7706,0.7557,0.7343,0.7122,0.7348,0.7461,0.7343,0.8143,0.8421,0.8055,0.848,0.8527,0.8096,0.7717,0.7557,0.767,0.723,0.7069,0.7187,0.6972,0.6966,0.702,0.6864,0.7133,0.767,0.7836,0.8315,0.8942,0.9093,0.9354,0.9562,0.9524,0.948,0.9532,0.9784,1.0028,1.0336,1.0651,1.0956,1.0515,0.6977,0.2156,-0.1999,-0.1727,-0.2023,-0.0434,0.7854,1.0058,0.938,0.6439,0.6186,0.4051,-0.5047,-0.8508,-1.1711,-1.7654,-2.0792,-2.2258,-2.1507,-2.1598,-2.1701,-2.1515,-2.1747,-2.2255,-2.3017,-2.3003,-2.2895,-2.2815,-2.2807,-2.2677,-2.2352,-2.2461,0.0,-2.2579,-2.2649,-2.2712,-2.2816,-2.2738,-2.2764,-2.2919,-2.2893,-2.296,-2.3146,-2.306,-2.3157,-2.3445,-2.3486,-2.3508,-2.3513,-2.3562,-2.3631,-2.3774,-2.3937,-2.4094,-2.419,-2.419,-2.419,-2.419,-2.419,-2.4247,-2.4302,1.0131,1.0002,0.9731,0.8699,0.8712,0.8754,0.8439,0.8643,0.8854,0.896,0.885,0.8646,0.8421,0.815,0.7925,0.7871,0.7818,0.7444,0.648,0.6918,0.7085,0.6756,0.7925,0.8143,0.7246,0.799,0.8043,0.73,0.7354,0.7456,0.7711,0.745,0.7295,0.7139,0.6761,0.6436,0.6327,0.649,0.7079,0.7925,0.8262,0.8784,0.9406,0.9458,0.9517,0.9562,0.9636,0.9695,0.9792,1.0241,1.0549,1.0744,1.1099,1.136,1.146,1.146,0.8248,0.3507,-0.1814,0.0043,0.4509,0.8823,1.0043,1.0198,1.0249,0.6747,0.3266,0.244,-0.5898,-1.3295,-1.3993,-1.874,-2.2231,-2.1349,-2.1663,-2.1849,-2.1247,0.0,-2.2371,-2.291,-2.2782,-2.2816,-2.3336,-2.285,-2.2624,-2.2977,-2.2642,-2.2497,-2.2632,-2.2659,-2.2632,-2.2605,-2.2659,-2.2712,-2.2712,-2.2632,-2.2605,-2.2659,-2.2816,-2.2919,-2.2977,-2.3223,-2.3324,-2.3348,-2.3359,-2.35,-2.3774,-2.3795,-2.3976,-2.4209,-2.4209,-2.419,-2.419,-2.419,-2.419,-2.419,0.922,0.8915,0.8859,0.8766,0.8436,0.8222,0.8468,0.8457,0.8311,0.8125,0.8321,0.8427,0.8421,0.8368,0.8096,0.7599,0.7563,0.7461,0.73,0.6534,0.6372,0.7031,0.7241,0.7515,0.7788,0.7461,0.7025,0.6426,0.6642,0.675,0.6804,0.7241,0.7467,0.7413,0.7359,0.7456,0.7605,0.7402,0.7563,0.7925,0.8262,0.8474,0.8633,0.885,0.9061,0.9211,0.9015,0.9166,0.9465,0.9569,1.0167,1.0973,1.136,1.2017,1.2627,1.2627,1.205,1.0876,0.8518,0.818,0.8779,1.0128,1.0635,1.0931,1.136,1.0921,0.9114,0.4494,-0.2018,-0.8234,-1.2637,-1.8456,-2.2285,-2.1428,-2.1332,-2.1269,-2.1063,0.0,-2.1412,-2.2395,-2.2364,-2.2429,-2.2807,-2.2615,-2.248,-2.2439,-2.2265,-2.2226,-2.2343,-2.2432,-2.2487,-2.2596,-2.2659,-2.2712,-2.2712,-2.2632,-2.2712,-2.2944,-2.285,-2.3003,-2.3301,-2.3077,-2.3028,-2.3151,-2.3151,-2.3307,-2.3566,-2.3795,-2.4018,-2.4192,-2.4192,-2.4209,-2.419,-2.419,-2.419,-2.419,0.8892,0.8681,0.8556,0.8158,0.8062,0.8034,0.7942,0.8017,0.8049,0.7941,0.7933,0.7936,0.7931,0.7783,0.7563,0.7289,0.6966,0.6864,0.7085,0.6701,0.6701,0.7085,0.7402,0.767,0.7883,0.7348,0.681,0.6209,0.6317,0.6317,0.6209,0.675,0.7139,0.73,0.7563,0.7771,0.7871,0.7622,0.767,0.7925,0.7883,0.8103,0.8421,0.8685,0.8949,0.9211,0.9323,0.948,0.9784,1.0095,1.0592,1.1099,1.1469,1.2076,1.2578,1.2578,1.2529,1.2323,1.156,1.0981,1.0669,1.1032,1.1275,1.1466,1.1692,1.1922,1.1367,0.8825,0.3724,-0.21,-0.783,-1.3603,-1.8358,-2.094,-2.1596,-2.1606,-2.1069,-2.1306,-2.1793,-2.2364,-2.2215,-2.2226,-2.2721,-2.2343,-2.2158,-2.2392,-2.2153,-2.2073,-2.2293,-2.226,-2.2343,-2.2542,-2.2605,-2.2632,-2.2632,-2.2623,-2.2659,-2.279,-2.2764,-2.2825,-2.3028,-2.285,-2.2617,-2.2302,-2.272,-2.279,-2.2686,-2.3221,-2.3602,-2.378,-2.378,-2.3858,-2.3976,-2.3896,-2.4016,-2.419,0.8617,0.8459,0.8274,0.7714,0.7821,0.7891,0.7548,0.7764,0.7939,0.7903,0.7508,0.7229,0.722,0.7046,0.6951,0.6999,0.6509,0.6372,0.6647,0.6864,0.6972,0.7031,0.7509,0.7771,0.7717,0.7295,0.681,0.6209,0.6263,0.6209,0.5991,0.648,0.6864,0.7192,0.7616,0.7824,0.7871,0.7777,0.783,0.7984,0.7836,0.8049,0.8474,0.8672,0.8942,0.9211,0.948,0.9688,0.9991,1.0454,1.0761,1.1074,1.1427,1.1819,1.2175,1.2175,1.2175,1.2175,1.2206,1.1783,1.1466,1.1715,1.1913,1.2061,1.2159,1.2365,1.256,1.2609,0.8151,0.2816,-0.1876,-0.8474,-1.4637,-1.8831,0.0,-2.2118,-2.1427,-2.1838,-2.2254,-2.236,-2.2101,-2.2073,-2.2535,-2.2061,-2.1886,-2.2243,-2.2015,-2.1915,-2.2152,-2.2044,-2.2158,-2.246,-2.2569,-2.2605,-2.2605,-2.2605,-2.2605,-2.2605,-2.2659,-2.2685,-2.2712,-2.2685,-2.2272,-2.1643,-2.2212,-2.2243,-2.1966,-2.2599,-2.2976,-2.3187,-2.3361,-2.3436,-2.3461,-2.3556,-2.3795,-2.4054,0.8171,0.7781,0.7573,0.7836,0.7795,0.7779,0.7835,0.7916,0.7994,0.7931,0.7074,0.647,0.6486,0.6406,0.6447,0.6597,0.6478,0.6431,0.6588,0.6642,0.6642,0.6701,0.7246,0.7408,0.7139,0.7139,0.681,0.6209,0.6426,0.6534,0.6534,0.6918,0.7192,0.7467,0.7515,0.767,0.7925,0.8203,0.8368,0.8368,0.8593,0.8639,0.8573,0.8626,0.8791,0.9008,0.891,0.9211,0.9614,0.9666,1.0131,1.0651,1.0863,1.1326,1.1728,1.1728,1.1977,1.2274,1.2206,1.1783,1.1566,1.2159,1.256,1.2812,1.3218,1.3467,1.3716,1.3821,0.8939,0.4572,0.4367,-0.5377,-1.3498,-1.3848,0.0,0.0,-2.2337,-2.2287,-2.2237,-2.2056,-2.194,-2.1899,-2.1886,-2.1811,-2.1768,-2.1664,-2.165,-2.1664,-2.1754,-2.1738,-2.1932,-2.2377,-2.2579,-2.2685,-2.2685,-2.2685,-2.2685,-2.2685,-2.2632,-2.2632,-2.2712,-2.2632,-2.2237,-2.1608,-2.166,-2.1805,-2.1988,-2.2059,-2.2251,-2.2539,-2.3235,-2.3052,-2.2514,-2.3315,-2.3628,-2.3671,0.8033,0.7631,0.7342,0.7461,0.7468,0.7532,0.7783,0.7867,0.7832,0.7599,0.7443,0.7188,0.689,0.6634,0.6521,0.6574,0.623,0.6059,0.6114,0.6114,0.6332,0.682,0.7085,0.7192,0.7085,0.7085,0.6864,0.6426,0.6372,0.6263,0.61,0.6588,0.6972,0.73,0.7836,0.8209,0.8421,0.8203,0.809,0.809,0.7937,0.7883,0.7943,0.8268,0.848,0.8639,0.885,0.9113,0.9361,0.9465,0.9784,1.0102,1.0205,1.0667,1.1267,1.1528,1.1678,1.1868,1.2116,1.2304,1.255,1.2919,1.316,1.3362,1.3716,1.3905,1.4093,1.4244,0.9461,0.4168,0.04,-0.7047,-1.3866,-1.7695,0.0,-1.7731,-2.1537,-1.8914,-1.8006,-2.1804,-2.2135,-2.2049,-2.194,-2.184,-2.1797,-2.1738,-2.1694,-2.1694,-2.1768,-2.1797,-2.1886,-2.2032,-2.2186,-2.2381,-2.2632,-2.2632,-2.2632,-2.2632,-2.2659,-2.2685,-2.2712,-2.2659,-2.2289,-2.1625,-2.2167,-2.2206,-2.1908,-2.238,-2.2621,-2.2735,-2.2937,-2.2915,-2.2823,-2.3082,-2.3312,-2.3477,0.8003,0.7567,0.7231,0.7224,0.7348,0.7521,0.7763,0.7891,0.7821,0.7521,0.7566,0.7466,0.7011,0.6851,0.6701,0.6701,0.6293,0.5955,0.595,0.5955,0.6228,0.6717,0.682,0.6977,0.7085,0.7085,0.6972,0.6756,0.6588,0.6372,0.6209,0.6588,0.6918,0.7246,0.7836,0.8268,0.8474,0.809,0.7925,0.7871,0.7605,0.7509,0.7622,0.7895,0.8103,0.8209,0.8421,0.8633,0.8784,0.9047,0.9256,0.948,0.9688,1.0095,1.0616,1.0863,1.1065,1.1318,1.1859,1.2372,1.2871,1.3276,1.3467,1.3621,1.3868,1.4046,1.4186,1.4326,1.1195,0.7106,0.2835,-0.2763,-0.808,-1.2397,-1.133,-1.2099,-1.8161,-1.5545,-1.5216,-2.1292,-2.1932,-2.1873,-2.1823,-2.1721,-2.1691,-2.1768,-2.1724,-2.1724,-2.1738,-2.1797,-2.1811,-2.184,-2.1899,-2.213,-2.2552,-2.2453,-2.2497,-2.2632,-2.2605,-2.2659,-2.2764,-2.2764,-2.2375,-2.1749,-2.237,-2.2324,-2.1912,-2.2394,-2.2621,-2.2638,-2.2764,-2.2805,-2.2786,-2.2958,-2.3182,-2.3359,0.8008,0.752,0.7128,0.7295,0.753,0.7719,0.778,0.8048,0.8076,0.7669,0.7249,0.6947,0.6731,0.6887,0.6991,0.6991,0.6632,0.6327,0.6209,0.6322,0.6381,0.6381,0.6381,0.6598,0.7085,0.7085,0.7085,0.7085,0.7085,0.7085,0.7085,0.7085,0.7246,0.7521,0.7521,0.7622,0.7871,0.7871,0.7871,0.7871,0.7871,0.7824,0.767,0.767,0.767,0.767,0.7568,0.7568,0.7777,0.8415,0.8573,0.8732,0.9406,0.9681,0.9799,0.9799,1.0198,1.0753,1.1318,1.1778,1.2314,1.318,1.342,1.3467,1.3716,1.3915,1.4057,1.4176,1.4258,1.4351,1.4351,0.9232,0.5044,0.5044,-0.0116,-0.6142,-1.1881,-1.2666,-1.4748,-2.0528,-2.1198,-2.1261,-2.1386,-2.1386,-2.1479,-2.1678,-2.1694,-2.1664,-2.162,-2.1589,-2.1694,-2.1899,-2.184,-2.2032,-2.2487,-2.2186,-2.2226,-2.2712,-2.2515,-2.2579,-2.2893,-2.2893,-2.2576,-2.2019,-2.2019,-2.2019,-2.2019,-2.2019,-2.2019,-2.2066,-2.2821,-2.2663,-2.2107,-2.2982,-2.3289,-2.3313,0.7321,0.7263,0.7304,0.705,0.7298,0.7647,0.7845,0.7928,0.7972,0.78,0.791,0.7883,0.7573,0.743,0.7353,0.7353,0.6983,0.675,0.681,0.6804,0.6858,0.702,0.7235,0.7192,0.6982,0.7031,0.7031,0.681,0.6603,0.6603,0.681,0.681,0.681,0.6761,0.7085,0.7192,0.7192,0.7295,0.7348,0.7348,0.723,0.7235,0.7241,0.7182,0.7182,0.73,0.7348,0.7402,0.7503,0.8103,0.8374,0.858,0.9249,0.9465,0.9524,0.9621,0.9888,1.03,1.0753,1.1318,1.2026,1.2958,1.3238,1.3314,1.3621,1.3763,1.3915,1.4129,1.0995,0.8201,0.829,0.3478,-0.0531,-0.0531,0.1322,-0.08,-1.0927,-0.8776,-0.995,-2.0131,-2.1308,-2.1276,-2.1261,-2.1448,-2.1587,-2.1495,-2.1661,-2.1768,-2.1738,-2.1694,-2.1694,-2.1768,-2.1694,-2.1797,-2.2089,-2.2326,-2.2571,-2.2842,-2.285,-2.2927,-2.3045,-2.3045,-2.2947,-2.2786,-2.2882,-2.2906,-2.2906,-2.2906,-2.2906,-2.2923,-2.3056,-2.2979,-2.2803,-2.3105,-2.3193,-2.3168,0.7318,0.7254,0.7224,0.676,0.7164,0.7571,0.7729,0.7753,0.7768,0.7759,0.804,0.8109,0.7885,0.7792,0.7788,0.7836,0.7402,0.7074,0.6918,0.7025,0.7235,0.745,0.7883,0.7836,0.7149,0.7246,0.7241,0.7079,0.6923,0.6869,0.6864,0.6864,0.6647,0.6273,0.6544,0.6603,0.6445,0.6549,0.6598,0.6652,0.6485,0.6485,0.6652,0.6485,0.6485,0.6598,0.6701,0.6647,0.675,0.7456,0.7996,0.8527,0.9256,0.9361,0.9263,0.9413,0.9569,0.9888,1.0395,1.1006,1.1719,1.248,1.291,1.3238,1.3478,1.381,1.4046,1.4046,1.1434,0.912,0.9091,0.6194,0.3874,0.3913,0.6881,0.5793,-0.379,-0.4026,-0.6782,-1.6372,-1.9505,-2.0942,-2.099,-2.1183,-2.1309,-2.1245,-2.1509,-2.1661,-2.1691,-2.1738,-2.1738,-2.1797,-2.1694,-2.1738,-2.194,-2.2265,-2.2571,-2.2816,-2.2927,-2.3052,-2.3193,-2.3193,-2.3217,-2.3289,-2.3383,-2.343,-2.3453,-2.3453,-2.3453,-2.3453,-2.3336,-2.3289,-2.3289,-2.3313,-2.3289,-2.3265,0.7691,0.7387,0.7025,0.6634,0.7144,0.7574,0.7515,0.7515,0.7541,0.756,0.7745,0.7864,0.7827,0.8019,0.8215,0.8368,0.7895,0.7354,0.6804,0.7295,0.7622,0.7777,0.8427,0.8427,0.7628,0.7723,0.7723,0.767,0.7824,0.761,0.7139,0.7139,0.6761,0.6109,0.6055,0.595,0.585,0.5795,0.5845,0.5946,0.5677,0.5732,0.595,0.5677,0.5681,0.5795,0.585,0.5791,0.5782,0.6696,0.7664,0.8626,0.9406,0.9413,0.9166,0.9263,0.9413,0.9673,1.0241,1.0854,1.146,1.2017,1.2627,1.322,1.3334,1.3905,1.428,1.3915,1.4384,1.4719,1.4316,1.4302,1.437,1.4384,1.4373,1.2371,0.6536,0.1178,-0.4284,-1.0126,-1.5514,-1.9036,-1.9823,-2.0387,-2.0794,-2.1007,-2.1245,-2.137,-2.1446,-2.168,-2.1817,-2.1853,-2.1804,-2.1864,-2.1998,-2.2153,-2.2392,-2.2685,-2.2756,-2.296,-2.3265,-2.3289,-2.3383,-2.3562,-2.3607,-2.3652,-2.37,-2.37,-2.37,-2.37,-2.3629,-2.3607,-2.3607,-2.3539,-2.3517,-2.3517,0.7727,0.756,0.752,0.7909,0.8294,0.8374,0.7877,0.7824,0.7753,0.7547,0.754,0.7664,0.7876,0.7919,0.8062,0.8215,0.8115,0.8055,0.799,0.8156,0.8209,0.8262,0.8586,0.8639,0.8362,0.8309,0.7996,0.7515,0.7568,0.7515,0.7408,0.7408,0.7295,0.702,0.6539,0.6277,0.6223,0.5841,0.5736,0.5791,0.5517,0.5572,0.5795,0.5462,0.5462,0.5732,0.6213,0.6268,0.6263,0.7509,0.862,0.951,0.971,0.9976,1.019,0.9917,1.0336,1.0863,1.06,1.136,1.2274,1.2382,1.3055,1.3546,1.322,1.3716,1.4233,1.4291,1.5081,1.5591,1.4891,1.5081,1.5168,1.4532,1.4373,1.2371,0.6536,0.4621,0.1692,-0.4084,-0.5891,-0.8481,-1.3118,-1.7885,-2.0843,-2.1119,-2.1055,-2.1055,-2.1103,-2.16,-2.1779,-2.1601,-2.2128,-2.2285,-2.1998,-2.2287,-2.2497,-2.2605,-2.2816,-2.2902,-2.2977,-2.3217,-2.3313,-2.3383,-2.3634,-2.3739,-2.37,-2.3761,-2.3761,-2.37,-2.3678,-2.3678,-2.3678,-2.3718,-2.37,-2.3656,0.8101,0.8005,0.7947,0.8112,0.8391,0.8533,0.8249,0.7931,0.7723,0.767,0.7568,0.7574,0.7681,0.7848,0.8008,0.8168,0.8221,0.8221,0.8321,0.8215,0.8215,0.8321,0.8434,0.8533,0.8573,0.8474,0.8315,0.8209,0.8262,0.8156,0.7943,0.7842,0.7622,0.7289,0.6918,0.6761,0.6707,0.6436,0.6273,0.6164,0.6,0.6,0.6164,0.6,0.6109,0.6381,0.6701,0.675,0.6804,0.7978,0.8672,0.9145,0.971,0.9925,0.9932,1.0072,1.0431,1.0795,1.0854,1.156,1.2323,1.2372,1.3057,1.3705,1.3577,1.4129,1.4674,1.4593,1.5257,1.5671,1.5097,1.551,1.5576,1.4589,1.4746,1.3721,1.0172,0.7306,0.4492,0.1564,-0.1237,-0.4084,-0.7151,-1.3126,-1.6788,-1.6626,-1.9516,-2.1159,-2.0909,-2.1595,-2.0545,-1.7385,-1.7806,-1.6733,-1.3963,-1.4007,-1.429,-1.4795,-1.7651,-1.7615,-1.5153,-1.8071,-1.79,-1.564,-2.1226,-2.2084,-1.9765,-2.2412,-2.3499,-2.3476,-2.3526,-2.3553,-2.3558,-2.3549,-2.3567,-2.3571,0.8625,0.8572,0.8397,0.8152,0.8359,0.8633,0.8626,0.8096,0.7729,0.7824,0.767,0.7515,0.7568,0.7842,0.8115,0.8268,0.8221,0.8168,0.8168,0.8115,0.8055,0.8168,0.8275,0.8374,0.8527,0.8421,0.8586,0.8962,0.9054,0.8896,0.848,0.8381,0.8002,0.7503,0.7295,0.7187,0.7139,0.7031,0.681,0.6588,0.6588,0.6588,0.6588,0.6588,0.6756,0.7025,0.7139,0.73,0.7509,0.8283,0.8508,0.8633,0.9658,0.9718,0.9517,1.0072,1.0316,1.0553,1.1065,1.1713,1.2218,1.2407,1.3182,1.3932,1.419,1.4807,1.5211,1.4925,1.5463,1.5897,1.5544,1.6045,1.6138,1.4991,1.5297,1.535,1.4356,1.0083,0.7121,0.7328,0.2202,-0.136,-0.133,-0.7092,-1.0597,-0.9924,-1.5168,-1.8173,-1.7679,-1.8543,-1.6641,-1.1367,-1.1598,-0.968,-0.5161,-0.5035,-0.4929,-0.4895,-0.9597,-0.9938,-0.6586,-1.1435,-1.1032,-0.709,-1.6537,-1.7962,-1.4001,-1.9535,-2.178,-2.1883,-2.2935,-2.3353,-2.3364,-2.3348,-2.3389,-2.3463,0.9341,0.9065,0.8869,0.9297,0.9377,0.9302,0.883,0.8567,0.8256,0.7622,0.7622,0.7723,0.7824,0.8256,0.8521,0.8521,0.8321,0.8115,0.7955,0.8415,0.8468,0.7955,0.8533,0.8692,0.8275,0.8374,0.8533,0.8804,0.8738,0.8685,0.8752,0.8752,0.8586,0.8408,0.7765,0.745,0.7408,0.6761,0.6539,0.6588,0.6588,0.6588,0.6588,0.6588,0.6642,0.675,0.7402,0.8049,0.8586,0.8573,0.8935,0.9458,0.9762,1.0079,1.0395,1.0249,1.0713,1.1311,1.1243,1.1891,1.2768,1.3367,1.4052,1.4676,1.5044,1.5258,1.5395,1.5384,1.6598,1.7564,1.7159,1.7665,1.7713,1.6291,1.6033,1.5811,1.5188,1.4122,1.3528,1.3925,0.8589,0.4908,0.506,-0.0306,-0.3526,-0.2926,-0.4144,-0.4909,-0.487,-0.6007,-0.6161,-0.5225,-0.6125,-0.6184,-0.5275,-0.5607,-0.3594,0.0633,0.0088,-0.2291,-0.6186,-0.7213,-0.7168,-0.645,-0.8255,-0.8593,-0.8263,-1.3823,-1.6068,-1.6499,-2.1293,-2.3182,-2.3253,-2.3491,-2.3562,-2.3584,0.9562,0.9406,0.9354,0.9681,0.9569,0.9458,0.9295,0.8883,0.8468,0.815,0.8096,0.8103,0.815,0.8573,0.8784,0.8725,0.8732,0.8633,0.8315,0.8732,0.889,0.8533,0.8685,0.8685,0.8521,0.8268,0.8268,0.8586,0.8527,0.8527,0.8586,0.8487,0.848,0.8474,0.8043,0.7943,0.7996,0.7676,0.7402,0.7235,0.7402,0.7402,0.7235,0.7402,0.7563,0.7616,0.767,0.783,0.799,0.8262,0.858,0.8896,0.9256,0.9621,0.9932,1.0079,1.058,1.119,1.141,1.2149,1.293,1.3427,1.4139,1.4775,1.4829,1.5269,1.5753,1.6139,1.6832,1.7388,1.7509,1.7894,1.7852,1.6808,1.6425,1.5998,1.5224,1.4782,1.4716,1.5287,1.346,1.2176,1.2225,0.6684,0.3193,0.3556,0.0,-0.2326,-0.2626,-0.3714,-0.2739,0.0755,-0.0047,0.1005,0.4127,0.4134,0.4954,0.6683,0.6775,0.5424,0.2658,-0.0472,-0.0086,0.272,-0.3747,-0.4716,-0.217,-0.7686,-1.1765,-1.4763,-1.7344,-2.0277,-2.3052,-2.3394,-2.3399,-2.3283]}]]